[[{"header":{"parameterUnit":"m.s-1","parameterCategory":1,"la1":31.0,"la2":29.5877,"lo1":-88.7671,"lo2":-86.6584,"dy":0.0162,"dx":0.0185,"nx":115,"ny":88,"refTime":"2023-07-14T00:00:00:Z","depth":0,"parameterNumber":2,"parameterNumberName":"U-component_of_WINDS"},"data":[0.0,0.0,0.0,0.0,0.0,0.0,0.0,0.0,0.0,0.0,0.0,0.0,0.0,0.0,0.0,0.0,0.0,0.0,0.0,0.0,0.0,0.0,0.0,0.0,0.0,0.0,0.0,0.0,0.0,0.0,0.0,0.0,0.0,0.0,0.0,0.0,0.0,0.0,0.0,0.0,0.0,0.0,0.0,0.0,0.0,0.0,0.0,0.0,0.0,0.0,0.0,0.0,0.0,0.0,0.0,0.0,0.0,0.0,0.0,0.0,0.0,0.0,0.0,0.0,0.0,0.0,0.0,0.0,0.0,0.0,0.0,0.0,0.0,0.0,0.0,0.0,0.0,0.0,0.0,0.0,0.0,0.0,0.0,0.0,0.0,0.0,0.0,0.0,0.0,0.0,0.0,0.0,0.0,0.0,0.0,0.0,0.0,0.0,0.0,0.0,0.0,0.0,0.0,0.0,0.0,0.0,0.0,0.0,0.0,0.0,0.0,0.0,0.0,0.0,0.0,0.0,0.0,0.0,0.0,0.0,0.0,0.0,0.0,0.0,0.0,0.0,0.0,0.0,0.0,0.0,0.0,0.0,0.0,0.0,0.0,0.0,0.0,0.0,0.0,0.0,0.0,0.0,0.0,0.0,0.0,0.0,0.0,0.0,0.0,0.0,0.0,0.0,0.0,0.0,0.0,0.0,0.0,0.0,0.0,0.0,0.0,0.0,0.0,0.0,0.0,0.0,0.0,0.0,0.0,0.0,0.0,0.0,0.0,0.0,0.0,0.0,0.0,0.0,0.0,0.0,0.0,0.0,0.0,0.0,0.0,0.0,0.0,0.0,0.0,0.0,0.0,0.0,0.0,0.0,0.0,0.0,0.0,0.0,0.0,0.0,0.0,0.0,0.0,0.0,0.0,0.0,0.0,0.0,0.0,0.0,0.0,0.0,0.0,0.0,0.0,0.0,0.0,0.0,0.0,0.0,0.0,0.0,0.0,0.0,0.0,0.0,0.0,0.0,0.0,0.0,0.0,0.0,0.0,0.0,0.0,0.0,0.0,0.0,0.0,0.0,0.0,0.0,0.0,0.0,0.0,0.0,0.0,0.0,0.0,0.0,0.0,0.0,0.0,0.0,0.0,0.0,0.0,0.0,0.0,0.0,0.0,0.0,0.0,0.0,0.0,0.0,0.0,0.0,0.0,0.0,0.0,0.0,0.0,0.0,0.0,0.0,0.0,0.0,0.0,0.0,0.0,0.0,0.0,0.0,0.0,0.0,0.0,0.0,0.0,0.0,0.0,0.0,0.0,0.0,0.0,0.0,0.0,0.0,0.0,0.0,0.0,0.0,0.0,0.0,0.0,0.0,0.0,0.0,0.0,0.0,0.0,0.0,0.0,0.0,0.0,0.0,0.0,0.0,0.0,0.0,0.0,0.0,0.0,0.0,0.0,0.0,0.0,0.0,0.0,0.0,0.0,0.0,0.0,0.0,0.0,0.0,0.0,0.0,0.0,0.0,0.0,0.0,0.0,0.0,0.0,0.0,0.0,0.0,0.0,0.0,0.0,0.0,0.0,0.0,0.0,0.0,0.0,0.0,0.0,0.0,0.0,0.0,0.0,0.0,0.0,0.0,0.0,0.0,0.0,0.0,0.0,0.0,0.0,0.0,0.0,0.0,0.0,0.0,0.0,0.0,0.0,0.0,0.0,0.0,0.0,0.0,0.0,0.0,0.0,0.0,0.0,0.0,0.0,0.0,0.0,0.0,0.0,0.0,0.0,0.0,0.0,0.0,0.0,0.0,0.0,0.0,0.0,0.0,0.0,0.0,0.0,0.0,0.0,0.0,0.0,0.0,0.0,0.0,0.0,0.0,0.0,0.0,0.0,0.0,0.0,0.0,0.0,0.0,0.0,0.0,0.0,0.0,0.0,0.0,0.0,0.0,0.0,0.0,0.0,0.0,0.0,0.0,0.0,0.0,0.0,0.0,0.0,0.0,0.0,0.0,0.0,0.0,0.0,0.0,0.0,0.0,0.0,0.0,0.0,0.0,0.0,0.0,0.0,0.0,0.0,0.0,0.0,0.0,0.0,0.0,0.0,0.0,0.0,0.0,0.0,0.0,0.0,0.0,0.0,0.0,0.0,0.0,0.0,0.0,0.0,0.0,0.0,0.0,0.0,0.0,0.0,0.0,0.0,0.0,0.0,0.0,0.0,0.0,0.0,0.0,0.0,0.0,0.0,0.0,0.0,0.0,0.0,0.0,0.0,0.0,0.0,0.0,0.0,0.0,0.0,0.0,0.0,0.0,0.0,0.0,0.0,0.0,0.0,0.0,0.0,0.0,0.0,0.0,0.0,0.0,0.0,0.0,0.0,0.0,0.0,0.0,0.0,0.0,0.0,0.0,0.0,0.0,0.0,0.0,0.0,0.0,0.0,0.0,0.0,0.0,0.0,0.0,0.0,0.0,0.0,0.0,0.0,0.0,0.0,0.0,0.0,0.0,0.0,0.0,0.0,0.0,0.0,0.0,0.0,0.0,0.0,0.0,0.0,0.0,0.0,0.0,0.0,0.0,0.0,0.0,0.0,0.0,0.0,0.0,0.0,0.0,0.0,0.0,0.0,0.0,0.0,0.0,0.0,0.0,0.0,0.0,0.0,0.0,0.0,0.0,0.0,0.0,0.0,0.0,0.0,0.0,0.0,0.0,0.0,0.0,0.0,0.0,0.0,0.0,0.0,0.0,0.0,0.0,0.0,0.0,0.0,0.0,0.0,0.0,0.0,0.0,0.0,0.0,0.0,0.0,0.0,0.0,0.0,0.0,0.0,0.0,0.0,0.0,0.0,0.0,0.0,0.0,0.0,0.0,0.0,0.0,0.0,0.0,0.0,0.0,0.0,0.0,0.0,0.0,0.0,0.0,0.0,0.0,0.0,0.0,0.0,0.0,0.0,0.0,0.0,0.0,0.0,0.0,0.0,0.0,0.0,0.0,0.0,0.0,0.0,0.0,0.0,0.0,0.0,0.0,0.0,0.0,0.0,0.0,0.0,0.0,0.0,0.0,0.0,0.0,0.0,0.0,0.0,0.0,0.0,0.0,0.0,0.0,0.0,0.0,0.0,0.0,0.0,0.0,0.0,0.0,0.0,0.0,0.0,0.0,0.0,0.0,0.0,0.0,0.0,0.0,0.0,0.0,0.0,0.0,0.0,0.0,0.0,0.0,0.0,0.0,0.0,0.0,0.0,0.0,0.0,0.0,0.0,0.0,0.0,0.0,0.0,0.0,0.0,0.0,0.0,0.0,0.0,0.0,0.0,0.0,0.0,0.0,0.0,0.0,0.0,0.0,0.0,0.0,0.0,0.0,0.0,0.0,0.0,0.0,0.0,0.0,0.0,0.0,0.0,0.0,0.0,0.0,0.0,0.0,0.0,0.0,0.0,0.0,0.0,0.0,0.0,0.0,0.0,0.0,0.0,0.0,0.0,0.0,0.0,0.0,0.0,0.0,0.0,0.0,0.0,0.0,0.0,0.0,0.0,0.0,0.0,0.0,0.0,0.0,0.0,0.0,0.0,0.0,0.0,0.0,0.0,0.0,0.0,0.0,0.0,0.0,0.0,0.0,0.0,0.0,0.0,0.0,0.0,0.0,0.0,0.0,0.0,0.0,0.0,0.0,0.0,0.0,0.0,0.0,0.0,0.0,0.0,0.0,0.0,0.0,0.0,0.0,0.0,0.0,0.0,0.0,0.0,0.0,0.0,0.0,0.0,0.0,0.0,0.0,0.0,0.0,0.0,0.0,0.0,0.0,0.0,0.0,0.0,0.0,0.0,0.0,0.0,0.0,0.0,0.0,0.0,0.0,0.0,0.0,0.0,0.0,0.0,0.0,0.0,0.0,0.0,0.0,0.0,0.0,0.0,0.0,0.0,0.0,0.0,0.0,0.0,0.0,0.0,0.0,0.0,0.0,0.0,0.0,0.0,0.0,0.0,0.0,0.0,0.0,0.0,0.0,0.0,0.0,0.0,0.0,0.0,0.0,0.0,0.0,0.0,0.0,0.0,0.0,0.0,0.0,0.0,0.0,0.0,0.0,0.0,0.0,0.0,0.0,0.0,0.0,0.0,0.0,0.0,0.0,0.0,0.0,0.0,0.0,0.0,0.0,0.0,0.0,0.0,0.0,0.0,0.0,0.0,0.0,0.0,0.0,0.0,0.0,0.0,0.0,0.0,0.0,0.0,0.0,0.0,0.0,0.0,0.0,0.0,0.0,0.0,0.0,0.0,0.0,0.0,0.0,0.0719,0.0,0.0,0.0,0.0,0.0,0.0,0.0,0.0,0.0,0.0,0.0,0.0,0.0,0.0,0.0,0.0,0.0,0.0,0.0,0.0,0.0,0.0,0.0,0.0,0.0,0.0,0.0,0.0,0.0,0.0,0.0,0.0,0.0,0.0,0.0,0.0,0.0,0.0,0.0,0.0,0.0,0.0,0.0,0.0,0.0,0.0,0.0,0.0,0.0,0.0,0.0,0.0,0.0,0.0,0.0,0.0,0.0,0.0,0.0,0.0,0.0,0.0,0.0,0.0,0.0,0.0,0.0,0.0,0.0,0.0,0.0,0.0,0.0,0.0,0.0,0.0,0.0,0.0,0.0,0.0,0.0,0.0,0.0,0.0,0.0,0.0,0.0,0.0,0.0,0.0,0.0,0.0,0.0,0.0,0.0,0.0,0.0,0.0,0.0,0.0,0.0,0.0,0.0,0.0,0.0,0.0,0.0,0.0,0.0,0.0,0.1422,0.1254,0.1254,0.121,0.1076,0.0,0.0,0.0,0.0,0.0,0.0,0.0,0.0,0.0,0.0,0.0,0.0,0.0,0.0,0.0,0.0,0.0,0.0,0.0,0.0,0.0,0.0,0.0,0.0,0.0,0.0,0.0,0.0,0.0,0.0,0.0,0.0,0.0,0.0,0.0,0.0,0.0,0.0,0.0,0.0,0.0,0.0,0.0,0.0,0.0,0.0,0.0,0.0,0.0,0.0,0.0,0.0,0.0,0.0,0.0,0.0,0.0,0.0,0.0,0.0,0.0,0.0,0.0,0.0,0.0,0.0,0.0,0.0,0.0,0.0,0.0,0.0,0.0,0.0,0.0,0.0,0.0,0.0,0.0,0.0,0.0,0.0,0.0,0.0,0.0,0.0,0.0,0.0,0.0,0.0,0.0,0.0,0.0,0.0,0.0,0.0,0.0,0.0,0.0,0.0,0.0,0.0,0.0,0.0,0.0,0.0,0.0,0.0,0.0,0.0,0.0,0.0,0.1557,0.1513,0.1455,0.0,0.0,0.0,0.0,0.0,0.0,0.0,0.0,0.0,0.0,0.0,0.0,0.0,0.0,0.0,0.0,0.0,0.0,0.0,0.0,0.0,0.0,0.0,0.0,0.0,0.0,0.0,0.0,0.0,0.0,0.0,0.0,0.0,0.0,0.0,0.0,0.0,0.0,0.0,0.0,0.0,0.0,0.0,0.0,0.0,0.0,0.0,0.0,0.0,0.0,0.0,0.0,0.0,0.0,0.0,0.0,0.0,0.0,0.0,0.0,0.0,0.0,0.0,0.0,0.0,0.0,0.0,0.0,0.0,0.0,0.0,0.0,0.0,0.0,0.0,0.0,0.0,0.0,0.0,0.0,0.0,0.0,0.0,0.0,0.0,0.0,0.0,0.0,0.0,0.0,0.0,0.0,0.0,0.0,0.0,0.0,0.0,0.0,0.0,0.0,0.0,0.0,0.0,0.0,0.0,0.0,0.0,0.0,0.0,0.0,0.2168,0.1854,0.1958,0.0,0.1614,0.0,0.0,0.0,0.0,0.0,0.0,0.0,0.0,0.0,0.0,0.0,0.0,0.0,0.0,0.0,0.0,0.0,0.0,0.0,0.0,0.0,0.0,0.0,0.0,0.0,0.0,0.0,0.0,0.0,0.0,0.0,0.0,0.0,0.0,0.0,0.0,0.0,0.0,0.0,0.0,0.0,0.0,0.0,0.0,0.0,0.0,0.0,0.0,0.0,0.0,0.0,0.0,0.0,0.0,0.0,0.0,0.0,0.0,0.0,0.0,0.0,0.0,0.0,0.0,0.0,0.0,0.0,0.0,0.0,0.0,0.0,0.0,0.0,0.0,0.0,0.0,0.0,0.0,0.0,0.0,0.0,0.0,0.0,0.0,0.0,0.0,0.0,0.0,0.0,0.0,0.0,0.0,0.0,0.0,0.0,0.0,0.0,0.0,0.0,0.0,0.0,0.0,0.0,0.0,0.0,0.0,0.0,0.0,0.0,0.0,0.2405,0.2219,0.2249,0.22,0.0,0.0,0.0,0.0,0.0,0.0,0.0,0.0,0.0,0.0,0.0,0.0,0.0,0.0,0.0,0.0,0.0,0.0,0.0,0.0,0.0,0.0,0.0,0.0,0.0,0.0,0.0,0.0,0.0,0.0,0.0,0.0,0.0,0.0,0.0,0.0,0.0,0.0,0.0,0.0,0.0,0.0,0.0,0.0,0.0,0.0,0.0,0.0,0.0,0.0,0.0,0.0,0.0,0.0,0.0,0.0,0.0,0.0,0.0,0.0,0.0,0.0,0.0,0.0,0.0,0.0,0.0,0.0,0.0,0.0,0.0,0.0,0.0,0.0,0.0,0.0,0.0,0.0,0.0,0.0,0.0,0.0,0.0,0.0,0.0,0.0,0.0,0.0,0.0,0.0,0.0,0.0,0.0,0.0,0.0,0.0,0.0,0.0,0.0,0.0,0.0,0.0,0.0,0.0,0.0,0.0,0.0,0.0,0.0,0.0,0.2647,0.256,0.2495,0.2545,0.2629,0.2607,0.0,0.0,0.0,0.0,0.0,0.0,0.0,0.0,0.0,0.0,0.0,0.0,0.0,0.0,0.0,0.0,0.0,0.0,0.0,0.0,0.0,0.0,0.0,0.0,0.0,0.0,0.0,0.0,0.0,0.0,0.0,0.0,0.0,0.0,0.0,0.0,0.0,0.0,0.0,0.0,0.0,0.0,0.0,0.0,0.0,0.0,0.0,0.0,0.0,0.0,0.0,0.0,0.0,0.0,0.0,0.0,0.0,0.0,0.0,0.0,0.0,0.0,0.0,0.0,0.0,0.0,0.0,0.0,0.0,0.0,0.0,0.0,0.0,0.0,0.0,0.0,0.0,0.0,0.0,0.0,0.0,0.0,0.0,0.0,0.0,0.0,0.0,0.0,0.0,0.0,0.0,0.0,0.0,0.0,0.0,0.0,0.0,0.0,0.0,0.0,0.0,0.0,0.0,0.0,0.0,0.0,0.0,0.0,0.2685,0.2683,0.2683,0.267,0.2923,0.312,0.0,0.0,0.0,0.0,0.0,0.0,0.0,0.0,0.0,0.0,0.0,0.0,0.0,0.0,0.0,0.0,0.0,0.0,0.0,0.0,0.0,0.0,0.0,0.0,0.0,0.0,0.0,0.0,0.0,0.0,0.0,0.0,0.0,0.0,0.0,0.0,0.0,0.0,0.0,0.0,0.0,0.0,0.0,0.0,0.0,0.0,0.0,0.0,0.0,0.0,0.0,0.0,0.0,0.0,0.0,0.0,0.0,0.0,0.0,0.0,0.0,0.0,0.0,0.0,0.0,0.0,0.0,0.0,0.0,0.0,0.0,0.0,0.0,0.0,0.0,0.0,0.0,0.0,0.0,0.0,0.0,0.0,0.0,0.0,0.0,0.0,0.0,0.0,0.0,0.0,0.0,0.0,0.0,0.0,0.0,0.0,0.0,0.0,0.0,0.0,0.0,0.0,0.0,0.0,0.0,0.0,0.0,0.0,0.0,0.2691,0.2691,0.2691,0.2689,0.2789,0.2877,0.0,0.0,0.0,0.0,0.0,0.0,0.0,0.0,0.0,0.0,0.0,0.0,0.0,0.0,0.0,0.0,0.0,0.0,0.0,0.0,0.0,0.0,0.0,0.0,0.0,0.0,0.0,0.0,0.0,0.0,0.0,0.0,0.0,0.0,0.0,0.0,0.0,0.0,0.0,0.0,0.0,0.0,0.0,0.0,0.0,0.0,0.0,0.0,0.0,0.0,0.0,0.0,0.0,0.0,0.0,0.0,0.0,0.0,0.0,0.0,0.0,0.0,0.0,0.0,0.0,0.0,0.0,0.0,0.0,0.0,0.0,0.0,0.0,0.0,0.0,0.0,0.0,0.0,0.0,0.0,0.0,0.0,0.0,0.0,0.0,0.0,0.0,0.0,0.0,0.0,0.0,0.0,0.0,0.0,0.0,0.0,0.0,0.0,0.0,0.0,0.0,0.0,0.0,0.0,0.0,0.0,0.0,0.0,0.0,0.2691,0.0,0.2691,0.2691,0.2856,0.2914,0.0,0.0,0.0,0.0,0.0,0.0,0.0,0.0,0.0,0.0,0.0,0.0,0.0,0.0,0.0,0.0,0.0,0.0,0.0,0.0,0.0,0.0,0.0,0.0,0.0,0.0,0.0,0.0,0.0,0.0,0.0,0.0,0.0,0.0,0.0,0.0,0.0,0.0,0.0,0.0,0.0,0.0,0.0,0.0,0.0,0.0,0.0,0.0,0.0,0.0,0.0,0.0,0.0,0.0,0.0,0.0,0.0,0.0,0.0,0.0,0.0,0.0,0.0,0.0,0.0,0.0,0.0,0.0,0.0,0.0,0.0,0.0,0.0,0.0,0.0,0.0,0.0,0.0,0.0,0.0,0.0,0.0,0.0,0.0,0.0,0.0,0.0,0.0,0.0,0.0,0.0,0.0,0.0,0.0,0.0,0.0,0.0,0.0,0.0,0.0,0.0,0.0,0.0,0.0,0.0,0.0,0.0,0.0,0.2695,0.2691,0.2691,0.2691,0.2691,0.3137,0.336,0.0,0.0,0.0,0.0,0.0,0.0,0.0,0.0,0.0,0.0,0.0,0.0,0.0,0.0,0.0,0.0,0.0,0.0,0.0,0.0,0.0,0.0,0.0,0.0,0.0,0.0,0.0,0.0,0.0,0.0,0.0,0.0,0.0,0.0,0.0,0.0,0.0,0.0,0.0,0.0,0.0,0.0,0.0,0.0,0.0,0.0,0.0,0.0,0.0,0.0,0.0,0.0,0.0,0.0,0.0,0.0,0.0,0.0,0.0,0.0,0.0,0.0,0.0,0.0,0.0,0.0,0.0,0.0,0.0,0.0,0.0,0.0,0.0,0.0,0.0,0.0,0.0,0.0,0.0,0.0,0.0,0.0,0.0,0.0,0.0,0.0,0.0,0.0,0.0,0.0,0.0,0.0,0.0,0.0,0.0,0.0,0.0,0.0,0.0,0.0,0.0,0.0,0.0,0.0,0.0,0.0,0.0,0.0,0.0,0.2695,0.2691,0.2691,0.2691,0.2858,0.2914,0.0,0.0,0.0,0.0,0.0,0.0,0.0,0.0,0.0,0.0,0.0,0.0,0.0,0.0,0.0,0.0,0.0,0.0,0.0,0.0,0.0,0.0,0.0,0.0,0.0,0.0,0.0,0.0,0.0,0.0,0.0,0.0,0.0,0.0,0.0,0.0,0.0,0.0,0.0,0.0,0.0,0.0,0.0,0.0,0.0,0.0,0.0,0.0,0.0,0.0,0.0,0.0,0.0,0.0,0.0,0.0,0.0,0.0,0.0,0.0,0.0,0.0,0.0,0.0,0.0,0.0,0.0,0.0,0.0,0.0,0.0,0.0,0.0,0.0,0.0,0.0,0.0,0.0,0.0,0.0,0.0,0.0,0.0,0.0,0.0,0.0,0.0,0.0,0.0,0.0,0.0,0.0,0.0,0.0,0.0,0.0,0.0,0.0,0.0,0.0,0.0,0.0,0.0,0.0,0.0,0.0,0.0,0.0,0.0,0.2851,0.2758,0.2725,0.2691,0.2858,0.2968,0.2968,0.0,0.0,0.0,0.0,0.0,0.0,0.0,0.0,0.0,0.0,0.0,0.0,0.0,0.0,0.0,0.0,0.0,0.0,0.0,0.0,0.0,0.0,0.0,0.0,0.0,0.0,0.0,0.0,0.0,0.0,0.0,0.0,0.0,0.0,0.0,0.0,0.0,0.0,0.0,0.0,0.0,0.0,0.0,0.0,0.0,0.0,0.0,0.0,0.0,0.0,0.0,0.0,0.0,0.0,0.0,0.0,0.0,0.0,0.0,0.0,0.0,0.0,0.0,0.0,0.0,0.0,0.0,0.0,0.0,0.0,0.0,0.0,0.0,0.0,0.0,0.0,0.0,0.0,0.0,0.0,0.0,0.0,0.0,0.0,0.0,0.0,0.0,0.0,0.0,0.0,0.0,0.0,0.0,0.0,0.0,0.0,0.0,0.0,0.0,0.0,0.0,0.0,0.0,0.0,0.0,0.0,0.0,0.0,0.3024,0.2883,0.2799,0.2709,0.3159,0.3378,0.0,0.0,0.0,0.0,0.0,0.0,0.0,0.0,0.0,0.0,0.0,0.0,0.0,0.0,0.0,0.0,0.0,0.0,0.0,0.0,0.0,0.0,0.0,0.0,0.0,0.0,0.0,0.0,0.0,0.0,0.0,0.0,0.0,0.0,0.0,0.0,0.0,0.0,0.0,0.0,0.0,0.0,0.0,0.0,0.0,0.0,0.0,0.0,0.0,0.0,0.0,0.0,0.0,0.0,0.0,0.0,0.0,0.0,0.0,0.0,0.0,0.0,0.0,0.0,0.0,0.0,0.0,0.0,0.0,0.0,0.0,0.0,0.0,0.0,0.0,0.0,0.0,0.0,0.0,0.0,0.0,0.0,0.0,0.0,0.0,0.0,0.0,0.0,0.0,0.0,0.0,0.0,0.0,0.0,0.0,0.0,0.0,0.0,0.0,0.0,0.0,0.0,0.0,0.0,0.0,0.0,0.0,0.0,0.0,0.3058,0.3032,0.2977,0.2949,0.3064,0.3304,0.0,0.0,0.0,0.0,0.0,0.0,0.0,0.0,0.0,0.0,0.0,0.0,0.0,0.0,0.0,0.0,0.0,0.0,0.0,0.0,0.0,0.0,0.0,0.0,0.0,0.0,0.0,0.0,0.0,0.0,0.0,0.0,0.0,0.0,0.0,0.0,0.0,0.0,0.0,0.0,0.0,0.0,0.0,0.0,0.0,0.0,0.0,0.0,0.0,0.0,0.0,0.0,0.0,0.0,0.0,0.0,0.0,0.0,0.0,0.0,0.0,0.0,0.0,0.0,0.0,0.0,0.0,0.0,0.0,0.0,0.0,0.0,0.0,0.0,0.0,0.0,0.0,0.0,0.0,0.0,0.0,0.0,0.0,0.0,0.0,0.0,0.0,0.0,0.0,0.0,0.0,0.0,0.0,0.0,0.0,0.0,0.0,0.0,0.0,0.0,0.0,0.0,0.0,0.0,0.0,0.0,0.0,0.0,0.4188,0.3861,0.3796,0.3828,0.3763,0.3673,0.3625,0.0,0.0,0.0,0.0,0.0,0.0,0.0,0.0,0.0,0.0,0.0,0.0,0.0,0.0,0.0,0.0,0.0,0.0,0.0,0.0,0.0,0.0,0.0,0.0,0.0,0.0,0.0,0.0,0.0,0.0,0.0,0.0,0.0,0.0,0.0,0.0,0.0,0.0,0.0,0.0,0.0,0.0,0.0,0.0,0.0,0.0,0.0,0.0,0.0,0.0,0.0,0.0,0.0,0.0,0.0,0.0,0.0,0.0,0.0,0.0,0.0,0.0,0.0,0.0,0.0,0.0,0.0,0.0,0.0,0.0,0.0,0.0,0.0,0.0,0.0,0.0,0.0,0.0,0.0,0.0,0.0,0.0,0.0,0.0,0.0,0.0,0.0,0.0,0.0,0.0,0.0,0.0,0.0,0.0,0.0,0.0,0.0,0.0,0.0,0.0,0.0,0.0,0.0,0.0,0.0,0.0,0.0,0.0,0.4683,0.4613,0.4616,0.4683,0.4677,0.452,0.4212,0.0,0.0,0.0,0.0,0.0,0.0,0.0,0.0,0.0,0.0,0.0,0.0,0.0,0.0,0.0,0.0,0.0,0.0,0.0,0.0,0.0,0.0,0.0,0.0,0.0,0.0,0.0,0.0,0.0,0.0,0.0,0.0,0.0,0.0,0.0,0.0,0.0,0.0,0.0,0.0,0.0,0.0,0.0,0.0,0.0,0.0,0.0,0.0,0.0,0.0,0.0,0.0,0.0,0.0,0.0,0.0,0.0,0.0,0.0,0.0,0.0,0.0,0.0,0.0,0.0,0.0,0.0,0.0,0.0,0.0,0.0,0.0,0.0,0.0,0.0,0.0,0.0,0.0,0.0,0.0,0.0,0.0,0.0,0.0,0.0,0.0,0.0,0.0,0.0,0.0,0.0,0.0,0.0,0.0,0.0,0.0,0.0,0.0,0.0,0.0,0.0,0.0,0.0,0.0,0.0,0.0,0.0,0.0,0.3959,0.3558,0.3558,0.3756,0.4159,0.4501,0.486,0.0,0.0,0.0,0.0,0.0,0.0,0.0,0.0,0.0,0.0,0.0,0.0,0.0,0.0,0.0,0.0,0.0,0.0,0.0,0.0,0.0,0.0,0.0,0.0,0.0,0.0,0.0,0.0,0.0,0.0,0.0,0.0,0.0,0.0,0.0,0.0,0.0,0.0,0.0,0.0,0.0,0.0,0.0,0.0,0.0,0.0,0.0,0.0,1.1276,0.0,0.0,0.0,0.0,0.0,0.0,0.0,0.0,0.0,0.0,0.0,0.0,0.0,0.0,0.0,0.0,0.0,0.0,0.0,0.0,0.0,0.0,0.0,0.0,0.0,0.0,0.0,0.0,0.0,0.0,0.0,0.0,0.0,0.0,0.0,0.0,0.0,0.0,0.0,0.0,0.0,0.0,0.0,0.0,0.0,0.0,0.0,0.0,0.0,0.0,0.0,0.0,0.0,0.0,0.0,0.0,0.0,0.0,0.0,0.4758,0.4688,0.4688,0.4755,0.4755,0.5286,0.5481,0.0,0.0,0.0,0.0,0.0,0.0,0.0,0.0,0.0,0.0,0.0,0.0,0.0,0.0,0.0,0.0,0.0,0.0,0.0,0.0,0.0,0.0,0.0,0.0,0.0,0.0,0.0,0.0,0.0,0.0,0.0,0.0,0.0,0.0,0.0,0.0,0.0,0.0,0.0,0.0,0.0,0.0,0.0,0.0,0.0,0.0,0.0,0.0,0.0,0.0,0.0,0.0,0.0,0.0,0.0,0.0,0.0,0.0,0.0,0.0,0.0,0.0,0.0,0.0,0.0,0.0,0.0,0.0,0.0,0.0,0.0,0.0,0.0,0.0,0.0,0.0,0.0,0.0,0.0,0.0,0.0,0.0,0.0,0.0,0.0,0.0,0.0,0.0,0.0,0.0,0.0,0.0,0.0,0.0,0.0,0.0,0.0,0.0,0.0,0.0,0.0,0.0,0.0,0.0,0.0,0.0,0.0,0.5885,0.5818,0.6284,0.6218,0.6017,0.5679,0.6083,0.5881,0.5213,0.0,0.0,0.0,0.0,0.0,0.0,0.0,0.0,0.0,0.0,0.0,0.0,0.0,0.0,0.0,0.0,0.0,0.0,0.0,0.0,0.0,0.0,0.0,0.0,0.0,0.0,0.0,0.0,0.0,0.0,0.0,0.0,0.0,0.0,0.0,0.0,0.0,0.0,1.1217,1.1276,0.0,0.0,0.0,0.0,0.0,0.0,0.0,0.0,1.1276,0.0,0.0,0.0,0.0,0.0,0.0,0.0,0.0,0.0,0.0,0.0,0.0,0.0,0.0,0.0,0.0,0.0,0.0,0.0,0.0,0.0,0.0,0.0,0.0,0.0,0.0,0.0,0.0,0.0,0.0,0.0,0.0,0.0,0.0,0.0,0.0,0.0,0.0,0.0,0.0,0.0,0.0,0.0,0.0,0.0,0.0,0.0,0.0,0.0,0.0,0.0,0.0,0.0,0.0,0.0,0.0,0.6148,0.5815,0.5745,0.5943,0.5345,0.5345,0.5943,0.5815,0.6017,0.6544,0.0,0.0,0.0,0.0,0.0,0.0,0.0,0.0,0.0,0.0,0.0,0.0,0.0,0.0,0.0,0.0,0.0,0.0,0.0,0.0,0.0,0.0,0.0,0.0,0.0,0.0,0.0,0.0,0.0,0.0,0.0,0.0,0.0,0.0,0.0,0.0,0.0,0.0,0.0,1.1276,1.1276,0.0,0.0,0.0,0.0,0.0,0.0,0.0,0.0,1.1276,0.0,0.0,0.0,0.0,0.0,0.0,0.0,0.0,0.0,0.0,0.0,0.0,0.0,0.0,0.0,0.0,0.0,0.0,0.0,0.0,0.0,0.0,0.0,0.0,0.0,0.0,0.0,0.0,0.0,0.0,0.0,0.0,0.0,0.0,0.0,0.0,0.0,0.0,0.0,0.0,0.0,0.0,0.0,0.0,0.0,0.0,0.0,0.0,0.0,0.0,0.0,0.0,0.0,0.0,0.0,0.6478,0.6079,0.6145,0.6666,0.64,0.6272,0.6408,0.6535,0.6732,0.0,0.0,0.0,0.0,0.0,0.0,0.0,0.0,0.0,0.0,0.0,0.0,0.0,0.0,0.0,0.0,0.0,0.0,0.0,0.0,0.0,0.0,0.0,0.0,0.0,0.0,0.0,0.0,0.0,0.0,0.0,0.0,0.0,0.0,0.0,0.0,0.0,0.0,0.0,0.0,1.1439,1.1567,1.1567,0.0,0.0,0.0,0.0,0.0,0.0,1.185,1.185,0.0,0.0,0.0,0.0,0.0,0.0,0.0,0.0,0.0,0.0,0.0,0.0,0.0,0.0,0.0,0.0,0.0,0.0,0.0,0.0,0.0,0.0,0.0,0.0,0.0,0.0,0.0,0.0,0.0,0.0,0.0,0.0,0.0,0.0,0.0,0.0,0.0,0.0,0.0,0.0,0.0,0.0,0.0,0.0,0.0,0.0,0.0,0.0,0.0,0.0,0.0,0.0,0.0,0.0,0.0,0.7194,0.6785,0.6914,0.7783,0.7716,0.7451,0.7123,0.7451,0.7579,0.0,0.0,0.0,0.0,0.0,0.0,0.0,0.0,0.0,0.0,0.0,0.0,0.0,0.0,0.0,0.0,0.0,0.0,0.0,0.0,0.0,0.0,0.0,0.0,0.0,0.0,0.0,0.0,0.0,0.0,0.0,0.0,0.0,0.0,0.0,0.0,0.0,0.0,0.0,0.0,0.0,1.1814,1.1882,1.1899,0.0,0.0,0.0,0.0,1.2346,1.2389,0.0,0.0,0.0,0.0,0.0,0.0,0.0,0.0,0.0,0.0,0.0,0.0,0.0,0.0,0.0,0.0,0.0,0.0,0.0,0.0,0.0,0.0,0.0,0.0,0.0,0.0,0.0,0.0,0.0,0.0,0.0,0.0,0.0,0.0,0.0,0.0,0.0,0.0,0.0,0.0,0.0,0.0,0.0,0.0,0.0,0.0,0.0,0.0,0.0,0.0,0.0,0.0,0.0,0.0,0.0,0.0,0.8444,0.8154,0.8284,0.8911,0.8424,0.8229,0.8439,0.8229,0.8224,0.0,0.0,0.0,0.0,0.0,0.0,0.0,0.0,0.0,0.0,0.0,0.0,0.0,0.0,0.0,0.0,0.0,0.0,0.0,0.0,0.0,0.0,0.0,0.0,0.0,0.0,0.0,0.0,0.0,0.0,0.0,0.0,0.0,0.0,0.0,0.0,0.0,0.0,0.0,0.0,0.0,1.1907,1.2286,1.2329,1.2346,0.0,0.0,1.2338,1.2381,1.2389,0.0,0.0,0.0,0.0,0.0,0.0,0.0,0.0,0.0,0.0,0.0,0.0,0.0,0.0,0.0,0.0,0.0,0.0,0.0,0.0,0.0,0.0,0.0,0.0,0.0,0.0,0.0,0.0,0.0,0.0,0.0,0.0,0.0,0.0,0.0,0.0,0.0,0.0,0.0,0.0,0.0,0.0,0.0,0.0,0.0,0.0,0.0,0.0,0.0,0.0,0.0,0.0,0.0,0.0,0.0,0.7664,0.8659,0.808,0.8287,0.9136,0.8925,0.8855,0.9006,0.8855,0.8855,0.0,0.0,0.0,0.0,0.0,0.0,0.0,0.0,0.0,0.0,0.0,0.0,0.0,0.0,0.0,0.0,0.0,0.0,0.0,0.0,0.0,0.0,0.0,0.0,0.0,0.0,0.0,0.0,0.0,0.0,0.0,0.0,0.0,0.0,0.0,0.0,0.0,0.0,0.0,0.0,0.0,0.0,1.2706,1.2723,0.0,0.0,0.0,1.2792,1.2997,0.0,0.0,0.0,0.0,0.0,0.0,0.0,0.0,0.0,0.0,0.0,0.0,0.0,0.0,0.0,0.0,0.0,0.0,0.0,0.0,0.0,0.0,0.0,0.0,0.0,0.0,0.0,0.0,0.0,0.0,0.0,0.0,0.0,0.0,0.0,0.0,0.0,0.0,0.0,0.0,0.0,0.0,0.0,0.0,0.0,0.0,0.0,0.0,0.0,0.0,0.0,0.0,0.0,0.0,0.0,0.0,0.0,0.8965,0.8375,0.8514,0.9312,0.9383,0.9389,0.9383,0.9389,0.0,0.0,0.0,0.0,0.0,0.0,0.0,0.0,0.0,0.0,0.0,0.0,0.0,0.0,0.0,0.0,0.0,0.0,0.0,0.0,0.0,0.0,0.0,0.0,0.0,0.0,0.0,0.9679,0.0,0.0,0.0,0.0,0.0,0.0,0.0,0.0,0.0,0.0,0.0,0.0,0.0,0.0,1.3006,1.31,1.3108,1.3202,0.0,0.0,1.3202,1.3468,1.3511,1.3511,0.0,0.0,0.0,0.0,0.0,0.0,0.0,0.0,0.0,0.0,0.0,0.0,0.0,0.0,0.0,0.0,0.0,0.0,0.0,0.0,0.0,0.0,0.0,0.0,0.0,0.0,0.0,0.0,0.0,0.0,0.0,0.0,0.0,0.0,0.0,0.0,0.0,0.0,0.0,0.0,0.0,0.0,0.0,0.0,0.0,0.0,0.0,0.0,0.0,0.0,0.0,0.0,0.0,0.0,0.0,0.9798,0.9723,0.9712,0.9873,0.9873,0.9868,0.9873,0.9873,0.9863,0.0,0.0,0.0,0.0,0.0,0.0,0.0,0.0,0.0,0.0,0.0,0.0,0.0,0.0,0.0,0.0,0.0,0.0,0.0,0.0,0.0,0.0,0.0,0.0,0.0,0.0,0.0,0.0,0.0,0.0,0.0,0.0,0.0,0.0,0.0,0.0,0.0,0.0,0.0,0.0,0.0,1.31,1.3425,1.3468,1.3476,0.0,0.0,1.3485,1.3502,1.3511,1.3511,1.3511,0.0,0.0,0.0,0.0,0.0,0.0,0.0,0.0,0.0,0.0,0.0,0.0,0.0,0.0,0.0,0.0,0.0,0.0,0.0,0.0,0.0,0.0,0.0,0.0,0.0,0.0,0.0,0.0,0.0,0.0,0.0,0.0,0.0,0.0,0.0,0.0,0.0,0.0,0.0,0.0,0.0,0.0,0.0,0.0,0.0,0.0,0.0,0.0,0.0,0.0,0.0,0.0,0.0,0.9241,0.9846,0.9387,0.9387,0.9846,0.9922,0.9922,0.9922,0.9922,0.9922,0.0,0.0,0.0,0.0,0.0,0.0,0.0,0.0,0.0,0.0,0.0,0.0,0.0,0.0,0.0,0.0,0.0,0.0,0.0,0.0,0.0,0.0,0.0,0.0,0.0,0.0,0.0,0.0,0.9907,1.0329,1.1353,0.0,0.0,0.0,0.0,0.0,0.0,0.0,0.0,0.0,0.0,1.3357,1.3494,1.3511,0.0,0.0,1.3511,1.3511,1.3511,1.3511,1.3511,1.3511,1.3511,0.0,0.0,0.0,0.0,0.0,0.0,0.0,0.0,0.0,0.0,0.0,0.0,0.0,0.0,0.0,0.0,0.0,0.0,0.0,0.0,0.0,0.0,0.0,0.0,0.0,0.0,0.0,0.0,0.0,0.0,0.0,0.0,0.0,0.0,0.0,0.0,0.0,0.0,0.0,0.0,0.0,0.0,0.0,0.0,0.0,0.0,0.0,0.0,0.0,0.0,0.0,0.0,0.9003,0.9544,0.8775,0.8623,0.915,0.915,0.915,0.915,0.915,0.9306,0.0,0.0,0.0,0.0,0.0,0.0,0.0,0.0,0.0,0.0,0.0,0.0,0.0,0.0,0.0,0.0,0.0,0.0,0.0,0.0,0.0,0.0,0.0,0.0,0.0,0.0,0.0,0.0,1.0491,1.0989,1.2042,0.0,0.0,0.0,0.0,0.0,0.0,0.0,0.0,0.0,0.0,1.3511,1.3511,1.3511,1.3511,1.3511,1.3511,1.3511,1.3511,1.3511,1.3511,1.3511,0.0,0.0,0.0,0.0,0.0,0.0,0.0,0.0,0.0,0.0,0.0,0.0,0.0,0.0,0.0,0.0,0.0,0.0,0.0,0.0,0.0,0.0,0.0,0.0,0.0,0.0,0.0,0.0,0.0,0.0,0.8099,0.0,0.0,0.0,0.0,0.0,0.0,0.0,0.0,0.0,0.0,0.0,0.0,0.0,0.0,0.0,0.0,0.0,0.0,0.0,0.0,0.0,0.0,0.8703,0.8699,0.7927,0.754,0.7617,0.754,0.7617,0.7617,0.754,0.7927,0.8699,0.0,0.0,0.0,0.0,0.0,0.0,0.0,0.0,0.0,0.0,0.0,0.0,0.0,0.0,0.0,0.0,0.0,0.0,0.0,0.0,0.0,0.0,0.0,0.0,0.0,0.0,1.0238,1.0863,1.1553,0.0,0.0,0.0,0.0,0.0,0.0,0.0,0.0,0.0,0.0,1.3511,1.3511,1.3511,1.3511,1.3528,1.3528,1.3528,1.3528,1.3536,1.3528,1.3511,0.0,0.0,0.0,0.0,0.0,0.0,0.0,0.0,0.0,0.0,0.0,0.0,0.0,0.0,0.0,0.0,0.0,0.0,0.0,0.0,0.0,0.0,0.0,0.0,0.0,0.0,0.0,0.7151,0.7151,0.0,0.0,0.0,0.0,0.0,0.0,0.0,0.0,0.0,0.0,0.0,0.7238,0.7234,0.0,0.0,0.0,0.0,0.0,0.0,0.0,0.0,0.0,0.0,0.0,0.0,0.847,0.7927,0.7617,0.754,0.754,0.754,0.754,0.754,0.754,0.7617,0.7927,0.0,0.0,0.0,0.0,0.0,0.0,0.0,0.0,0.0,0.0,0.0,0.0,0.0,0.0,0.0,0.0,0.0,0.0,0.0,0.0,0.0,0.0,0.0,0.0,0.0,0.9958,0.0,0.0,0.0,0.0,0.0,0.0,0.0,0.0,0.0,0.0,0.0,1.3009,1.345,1.313,1.3009,1.3442,1.3733,1.3896,0.0,0.0,0.0,0.0,0.0,0.0,0.0,0.0,0.0,0.0,0.0,0.0,0.0,0.0,1.429,1.429,1.429,1.4345,1.4392,0.0,0.0,0.0,0.0,0.0,0.0,0.0,0.0,0.0,0.0,0.0,0.0,0.0,0.0,0.6865,0.0,0.7169,0.0,0.0,0.0,0.0,0.0,0.0,0.0,0.0,0.6853,0.6619,0.6615,0.6615,0.6538,0.0,0.6384,0.6773,0.0,0.0,0.0,0.0,0.0,0.0,0.0,0.0,0.7548,0.708,0.6777,0.6623,0.6623,0.6623,0.6626,0.6626,0.693,0.7084,0.708,0.731,0.7846,0.0,0.0,0.0,0.0,0.0,0.0,0.0,0.0,0.0,0.0,0.0,0.0,0.0,0.0,0.0,0.0,0.0,0.0,0.0,0.0,0.0,0.0,0.0,0.9722,0.0,0.0,0.0,0.0,0.0,0.0,0.0,0.0,0.0,1.2728,1.2491,1.2578,1.3269,1.3056,1.3137,1.3789,0.0,0.0,0.0,0.0,0.0,0.0,0.0,1.4684,1.4684,1.4795,1.4915,1.5043,1.5078,1.5078,1.5069,0.0,0.0,1.4735,1.4684,1.4741,1.4798,1.4789,1.4854,1.492,1.4985,1.4985,0.0,0.0,0.0,0.0,0.0,0.0,0.0,0.0,0.7702,0.7238,0.0,0.7395,0.0,0.0,0.0,0.0,0.0,0.7318,0.0,0.0,0.5777,0.5777,0.6086,0.6086,0.6005,0.5848,0.5619,0.5777,0.6163,0.678,0.0,0.0,0.0,0.0,0.0,0.0,0.6163,0.6167,0.5401,0.5018,0.5018,0.5018,0.5018,0.5096,0.5783,0.6163,0.6163,0.6927,0.777,0.8623,0.8627,0.0,0.0,0.0,0.0,0.0,0.0,0.0,0.0,0.0,0.0,0.0,0.0,0.0,0.0,0.0,0.0,0.0,0.0,0.0,0.0,0.9131,0.0,0.0,0.0,0.0,0.0,0.0,0.0,0.0,0.0,0.0,1.1522,1.171,1.2158,1.294,0.0,0.0,0.0,0.0,1.4701,1.4626,1.4709,1.4726,1.4735,1.4726,1.4735,1.4735,0.0,0.0,1.5728,1.5797,1.578,1.5797,1.5762,1.5574,1.4863,1.4761,1.4761,1.4744,1.4769,1.4726,1.4726,1.4861,1.4835,0.699,0.0,0.0,0.0,0.0,0.7084,0.6542,0.6002,0.5702,0.547,0.5312,0.577,0.0,0.0,0.0,0.0,0.0,0.0,0.5851,0.5538,0.516,0.4774,0.446,0.4462,0.446,0.4382,0.4384,0.4462,0.4698,0.4854,0.5854,0.746,0.0,0.0,0.0,0.0,0.5935,0.5398,0.5093,0.5018,0.5018,0.5018,0.5018,0.5018,0.5246,0.5323,0.5323,0.5553,0.6398,0.777,0.7234,0.0,0.0,0.0,0.0,0.0,0.0,0.0,0.0,0.0,0.0,0.0,0.0,0.0,0.0,0.0,0.0,0.0,0.0,0.0,0.9731,0.9731,0.9794,0.0,0.0,0.0,0.0,0.0,0.0,0.0,0.0,0.0,1.0651,1.1094,1.1755,0.0,0.0,1.2219,1.2908,1.3731,1.4247,1.4247,1.4949,0.0,1.548,1.548,1.5489,1.548,1.5566,1.5677,1.5788,1.5805,1.5805,1.5805,1.5805,1.5728,1.5548,1.548,1.5471,1.548,1.548,1.548,1.548,1.548,1.548,0.5499,0.584,0.6298,0.6486,0.6644,0.6258,0.5701,0.522,0.5228,0.4914,0.4513,0.5225,0.5462,0.5382,0.6093,0.0,0.0,0.0,0.5143,0.4743,0.4511,0.4192,0.3871,0.3871,0.3951,0.4029,0.3949,0.411,0.4353,0.4272,0.4908,0.6327,0.0,0.0,0.5467,0.5547,0.5395,0.4935,0.494,0.5018,0.5018,0.5018,0.5018,0.5018,0.5018,0.5018,0.5018,0.5018,0.5631,0.6927,0.685,0.7314,0.0,0.0,0.0,0.0,0.0,0.0,0.0,0.0,0.0,0.0,0.0,0.9653,0.0,0.0,0.0,0.0,0.9854,0.9893,0.9918,0.9982,0.0,0.0,0.0,0.0,0.0,0.0,0.0,1.0349,1.0503,1.0641,1.0641,1.0985,1.1435,1.202,1.19,1.1975,1.2668,0.0,1.3885,1.3885,1.4703,1.5355,1.5346,1.5576,1.5805,1.5805,1.5805,1.5805,1.5805,1.5805,1.5805,1.5805,1.5805,1.5805,1.5805,1.5805,1.5805,1.5805,1.5805,1.5805,1.5805,1.5805,1.5805,0.432,0.4395,0.543,0.5993,0.6299,0.5889,0.5477,0.4972,0.556,0.5144,0.4139,0.5301,0.5544,0.4946,0.5532,0.0,0.4946,0.4946,0.4613,0.4036,0.4036,0.4036,0.4036,0.4034,0.4118,0.4362,0.4365,0.4448,0.4699,0.4446,0.4448,0.4696,0.4506,0.4408,0.4411,0.4648,0.4726,0.4729,0.4888,0.5045,0.5048,0.5045,0.5045,0.5045,0.5045,0.5042,0.5031,0.5031,0.541,0.6167,0.6927,0.7698,0.8546,0.0,0.0,0.0,0.0,0.0,0.0,0.0,0.0,0.0,0.0,0.0,0.0,0.0,0.0,0.0,0.961,0.0,0.99,0.995,0.0,0.0,0.0,0.9915,1.0119,1.0402,1.0617,1.0755,0.0,0.0,1.1117,1.1111,1.1323,1.1794,1.2065,1.2445,1.3244,1.3295,1.339,1.3368,1.4099,1.4601,1.4681,1.5275,1.5805,1.5805,1.5805,1.5805,1.5805,1.5805,1.5805,1.5805,1.5805,1.5805,1.5805,1.5805,1.5805,1.5805,1.5805,1.5805,1.5805,1.5805,1.5805,0.4508,0.4597,0.4831,0.4904,0.4844,0.4759,0.4586,0.4498,0.4676,0.4498,0.423,0.4513,0.444,0.4202,0.4369,0.4369,0.4283,0.4448,0.4448,0.4283,0.4453,0.4536,0.4536,0.4536,0.4536,0.4617,0.4617,0.4617,0.4703,0.4617,0.4617,0.4701,0.4651,0.4627,0.4627,0.4709,0.4794,0.4961,0.4961,0.5125,0.5287,0.5284,0.5284,0.5287,0.5287,0.5243,0.5151,0.5148,0.5495,0.617,0.578,0.6244,0.7693,0.7774,0.0,0.0,0.0,0.0,0.0,0.0,0.0,0.0,0.0,0.9922,0.9922,0.0,0.9841,0.0,0.9985,1.0082,1.0143,1.0318,0.0,0.0,1.0376,1.0415,1.063,1.0689,1.0804,1.0941,1.1075,1.1117,1.1117,1.1117,1.1162,1.1249,1.1366,1.1477,1.17,1.2218,1.2592,1.2666,1.3673,1.4601,1.4609,1.5275,1.5805,1.5805,1.5805,1.5805,1.5805,1.5805,1.5805,1.5805,1.5805,1.5805,1.5805,1.5805,1.5805,1.5805,1.5805,1.5805,1.5805,1.5805,1.5805,0.4726,0.4689,0.4689,0.463,0.453,0.4455,0.4422,0.4422,0.4785,0.4693,0.4418,0.4369,0.432,0.4277,0.4275,0.4275,0.4275,0.445,0.445,0.4539,0.4625,0.4716,0.4802,0.4802,0.4891,0.4979,0.4934,0.491,0.4908,0.4863,0.4837,0.4839,0.4839,0.4839,0.4834,0.4833,0.4951,0.5035,0.5121,0.5288,0.5371,0.5371,0.5371,0.5371,0.5371,0.5336,0.5271,0.5268,0.5479,0.5811,0.5725,0.6093,0.6969,0.704,0.7553,0.0,0.0,0.0,0.0,0.0,0.0,0.0,0.0,0.0,0.0,0.0,0.9922,0.9922,1.0073,1.0212,1.0212,1.0443,1.0669,1.0663,1.0738,1.0812,1.0962,1.0962,1.0962,1.1111,1.1117,1.1117,1.1117,1.1117,1.1117,1.1117,1.1117,1.1117,1.1111,1.149,1.1781,1.1774,1.2799,1.3745,1.4034,1.4768,1.5284,1.5275,1.5584,1.5805,1.5805,1.5805,1.5805,1.5805,1.5805,1.5805,1.5805,1.5805,1.5805,1.5805,1.5805,1.5805,1.5805,1.5805,1.5805,0.4941,0.4871,0.4869,0.4869,0.4857,0.4706,0.4628,0.4699,0.5267,0.5165,0.4589,0.4589,0.4583,0.4571,0.4571,0.4571,0.4571,0.4666,0.4666,0.4666,0.4666,0.4856,0.5041,0.5041,0.5138,0.5325,0.5234,0.5191,0.5279,0.5187,0.5138,0.5141,0.5141,0.5133,0.5112,0.519,0.5173,0.5157,0.5328,0.5415,0.5417,0.5415,0.5417,0.5415,0.5415,0.5407,0.5393,0.5393,0.5385,0.5452,0.6105,0.6463,0.6425,0.6418,0.7062,0.0,0.7885,0.0,0.0,0.0,0.0,0.0,0.0,0.0,0.0,0.9922,0.9922,0.9922,1.0067,1.0218,1.0218,1.0513,1.0812,1.0812,1.0962,1.1037,1.1037,1.1037,1.1037,1.1031,1.1037,1.1043,1.1043,1.1111,1.1117,1.1117,1.1117,1.1117,1.1117,1.1117,1.1186,1.1117,1.1781,1.2813,1.36,1.425,1.4681,1.4824,1.5204,1.5655,1.5805,1.5726,1.5647,1.5805,1.5805,1.5805,1.5805,1.5805,1.5805,1.5805,1.5805,1.5805,1.5805,1.5805,1.5805,0.5073,0.5055,0.5057,0.5057,0.5053,0.502,0.4922,0.4785,0.4883,0.4845,0.4683,0.4683,0.4643,0.4575,0.4571,0.4571,0.4571,0.4757,0.4851,0.4851,0.5045,0.5232,0.5232,0.5232,0.5232,0.5327,0.5308,0.5395,0.5583,0.5566,0.5647,0.5925,0.5922,0.5874,0.5689,0.0,0.0,0.0,0.5489,0.5665,0.5665,0.5665,0.5665,0.5665,0.5665,0.0,0.5523,0.5518,0.5469,0.5377,0.5532,0.0,0.0,0.0,0.0,0.0,0.0,0.0,0.0,0.0,0.0,0.0,0.9922,0.9922,0.9922,0.9922,0.9922,0.9922,1.0067,1.0293,1.0438,1.0513,1.0669,1.0738,1.0663,1.0594,1.0594,1.0594,1.0594,1.0588,1.0738,1.0893,1.0887,1.1037,1.1117,1.1111,1.1117,1.1117,1.1117,1.1117,1.1117,1.1192,1.1781,1.2806,1.4178,1.4458,1.4689,1.5346,1.5054,1.5125,1.5576,1.5204,1.5125,1.5655,1.5805,1.5805,1.5805,1.5805,1.5805,1.5805,1.5805,1.5805,1.5805,1.5805,1.5805,0.5149,0.5108,0.5106,0.5106,0.0,0.5106,0.5055,0.4969,0.4969,0.4945,0.4908,0.4906,0.4879,0.4832,0.479,0.4771,0.4767,0.4818,0.4893,0.4893,0.4992,0.5092,0.5289,0.5289,0.5287,0.5477,0.5432,0.5504,0.579,0.5739,0.5805,0.6086,0.6086,0.6053,0.5994,0.5934,0.5756,0.5552,0.5644,0.5733,0.5733,0.5733,0.5733,0.5733,0.5733,0.0,0.0,0.0,0.0,0.0,0.0,0.0,0.0,0.6042,0.0,0.7064,0.7134,0.7388,0.8086,0.8147,0.8335,0.8699,0.9079,0.9463,0.9846,0.9922,0.9922,0.9922,1.0067,1.0218,1.0368,1.0443,1.0519,1.0663,1.0594,1.0513,1.0513,1.0513,1.0513,1.0519,1.0663,1.0743,1.0663,1.0887,1.1037,1.0962,1.1037,1.1123,1.1117,1.1117,1.1117,1.1111,1.1409,1.1922,1.2718,1.3237,1.36,1.3897,1.4042,1.4402,1.5054,1.4903,1.4832,1.5576,1.5805,1.5805,1.5805,1.5805,1.5805,1.5805,1.5805,1.5805,1.5805,1.5805,1.5805,0.5224,0.5157,0.5155,0.5157,0.5157,0.5155,0.5157,0.5155,0.0,0.0,0.0,0.5106,0.5106,0.5102,0.5028,0.4996,0.499,0.4918,0.4883,0.4883,0.4883,0.4976,0.5166,0.5166,0.5256,0.5432,0.5356,0.5513,0.5801,0.5716,0.5769,0.6053,0.6149,0.6138,0.6111,0.5996,0.589,0.5798,0.5754,0.5733,0.5733,0.5733,0.5733,0.5733,0.5733,0.5733,0.5733,0.5733,0.5733,0.5733,0.5733,0.5689,0.5505,0.5497,0.5781,0.6322,0.6389,0.6737,0.7392,0.7461,0.7462,0.7525,0.8132,0.8818,0.962,0.9841,0.9922,0.9922,1.0067,1.0143,1.0218,1.0293,1.0438,1.0443,1.0438,1.0368,1.0368,1.0368,1.0363,1.0443,1.0588,1.0594,1.0519,1.0871,1.1039,1.097,1.1117,1.1256,1.1238,1.119,1.1117,1.1111,1.1186,1.1186,1.1409,1.1922,1.2298,1.2732,1.3098,1.36,1.4314,1.4466,1.476,1.5655,1.5805,1.5805,1.5805,1.5805,1.5805,1.5805,1.5805,1.5805,1.5805,1.5805,1.5805,0.5353,0.5343,0.5345,0.5345,0.5343,0.5343,0.5343,0.5328,0.5177,0.5108,0.5106,0.5106,0.5106,0.5106,0.5094,0.509,0.5088,0.5077,0.5069,0.5069,0.5069,0.5028,0.5058,0.5056,0.5014,0.4939,0.4922,0.5018,0.5318,0.5501,0.5795,0.5991,0.6289,0.6336,0.6241,0.6121,0.6051,0.6032,0.5836,0.5733,0.5733,0.5733,0.5733,0.5733,0.5733,0.5733,0.5733,0.5733,0.5733,0.5733,0.5733,0.5725,0.5711,0.5706,0.5651,0.562,0.5695,0.5972,0.6661,0.673,0.699,0.7557,0.7695,0.8026,0.8794,0.9539,0.9922,0.9922,0.9916,0.9992,1.0143,1.0067,1.0067,1.0218,1.0067,0.9992,1.0008,1.0019,1.0024,1.003,1.0143,1.031,1.0355,1.0806,1.1165,1.12,1.1456,1.1781,1.1691,1.1401,1.1148,1.1117,1.1117,1.1409,1.1845,1.2164,1.2499,1.3237,1.2847,1.3103,1.4336,1.4263,1.4416,1.561,1.5891,1.5857,1.584,1.5805,1.584,1.5848,1.5848,1.5848,1.5874,1.5882,1.5848,0.5382,0.5382,0.5382,0.5382,0.5382,0.5382,0.5382,0.5375,0.5294,0.5255,0.5257,0.5257,0.5257,0.5253,0.5204,0.5181,0.5179,0.5132,0.5106,0.5106,0.5106,0.5086,0.5049,0.5047,0.5022,0.4983,0.4983,0.5062,0.5324,0.5422,0.5698,0.6047,0.6239,0.641,0.6355,0.6244,0.6187,0.6181,0.5947,0.5825,0.5822,0.5765,0.5733,0.5733,0.5733,0.5733,0.5733,0.5733,0.5733,0.5733,0.5733,0.5733,0.5733,0.5733,0.5708,0.5654,0.5561,0.5678,0.5978,0.5984,0.6083,0.6427,0.6824,0.7196,0.7525,0.859,0.9463,0.9846,0.9922,0.9916,0.9997,0.9922,0.9916,1.0067,1.0117,1.0121,1.0137,1.0245,1.0309,1.0309,1.0461,1.0623,1.0623,1.0959,1.1265,1.1356,1.17,1.1932,1.1932,1.1721,1.1552,1.1552,1.1558,1.1629,1.2004,1.2087,1.2241,1.2626,1.2779,1.3307,1.4351,1.4419,1.5165,1.6102,1.6396,1.6319,1.6148,1.6096,1.6105,1.6096,1.6096,1.6148,1.6328,1.6413,1.6268,0.5382,0.5382,0.5382,0.5382,0.5382,0.5382,0.5382,0.5382,0.5382,0.5382,0.5382,0.5382,0.5382,0.5373,0.5306,0.5273,0.5265,0.5202,0.5171,0.5169,0.5169,0.5159,0.5141,0.5139,0.5128,0.511,0.5106,0.5179,0.5324,0.5401,0.5644,0.5952,0.6239,0.6337,0.6434,0.6352,0.6306,0.6293,0.6094,0.5969,0.5939,0.5831,0.5773,0.5771,0.5746,0.5733,0.5733,0.5733,0.5733,0.5733,0.5733,0.5733,0.5733,0.5733,0.5733,0.5733,0.5733,0.5695,0.56,0.5504,0.5439,0.5412,0.5987,0.6549,0.6994,0.7907,0.8836,0.9612,0.9898,1.003,1.0094,1.01,1.0083,1.0094,1.025,1.0363,1.039,1.053,1.0557,1.0638,1.0713,1.0864,1.0967,1.1087,1.1386,1.1688,1.1933,1.202,1.2014,1.2095,1.2101,1.2071,1.2005,1.1896,1.1926,1.1908,1.1896,1.192,1.2692,1.3519,1.4292,1.5081,1.5948,1.6615,1.6884,1.6764,1.6524,1.6473,1.6482,1.6482,1.6482,1.6567,1.679,1.685,1.6747,0.5382,0.5382,0.5382,0.5382,0.5382,0.5382,0.5382,0.5382,0.5382,0.5382,0.5382,0.5382,0.5382,0.5382,0.5369,0.5365,0.5365,0.5359,0.5351,0.5351,0.5355,0.5312,0.5237,0.523,0.519,0.5122,0.5116,0.5116,0.5197,0.5331,0.5646,0.5954,0.6042,0.6142,0.6334,0.6423,0.6418,0.6418,0.6301,0.6179,0.607,0.595,0.5888,0.5885,0.5787,0.5733,0.5741,0.5733,0.5733,0.5733,0.5733,0.5733,0.5733,0.5733,0.5733,0.5733,0.5733,0.5727,0.5716,0.5706,0.5643,0.5462,0.5617,0.6329,0.7616,0.7967,0.8436,0.9152,0.99,1.0342,1.0536,1.0466,1.0439,1.0503,1.0568,1.0606,1.0611,1.0541,1.0557,1.0557,1.0692,1.0638,1.0789,1.1084,1.1606,1.2187,1.2283,1.2367,1.2457,1.2542,1.2554,1.2512,1.2258,1.1992,1.1974,1.1932,1.1992,1.2049,1.2657,1.3564,1.4295,1.504,1.598,1.6423,1.6784,1.6682,1.6674,1.6867,1.6707,1.6724,1.6733,1.691,1.6927,1.6987,1.6927,0.5382,0.5382,0.5382,0.5382,0.5382,0.5382,0.5382,0.5382,0.5382,0.5382,0.5382,0.5382,0.5382,0.5382,0.5382,0.5382,0.5382,0.5382,0.5382,0.5382,0.5382,0.5361,0.5328,0.5326,0.5304,0.5271,0.5269,0.5241,0.5181,0.5312,0.553,0.5644,0.5938,0.6111,0.6145,0.6337,0.6437,0.6434,0.6393,0.6342,0.6276,0.6108,0.6013,0.5999,0.5896,0.5833,0.5828,0.5771,0.5733,0.5733,0.5733,0.5733,0.5733,0.5733,0.5733,0.5733,0.5733,0.5733,0.5733,0.5733,0.5711,0.5659,0.6092,0.676,0.7382,0.8388,0.9117,0.9363,1.0054,1.0541,1.0552,1.0557,1.0557,1.0573,1.0756,1.0842,1.0842,1.0966,1.0974,1.0974,1.0968,1.1052,1.1237,1.164,1.2076,1.2345,1.2454,1.2619,1.2699,1.2705,1.2705,1.2681,1.2506,1.2415,1.2367,1.2379,1.2373,1.2539,1.3124,1.3933,1.4151,1.4903,1.5644,1.603,1.6086,1.5992,1.5606,1.5748,1.574,1.6242,1.724,1.7586,1.7586,1.7586,1.7578,0.5453,0.5449,0.5429,0.5416,0.5414,0.539,0.5382,0.5382,0.5382,0.5382,0.5382,0.5382,0.5382,0.5382,0.5382,0.5382,0.5382,0.5382,0.5382,0.5382,0.5382,0.5382,0.5382,0.5382,0.5382,0.5382,0.538,0.5331,0.5247,0.5293,0.5419,0.5439,0.5817,0.5967,0.5992,0.6158,0.6237,0.6339,0.6337,0.6437,0.6412,0.6268,0.6168,0.613,0.6015,0.5953,0.5947,0.5841,0.5779,0.5779,0.5752,0.5733,0.5733,0.5733,0.5733,0.5733,0.5733,0.5733,0.5733,0.5733,0.5733,0.5733,0.6349,0.6874,0.721,0.8245,0.909,0.9611,1.0085,1.0419,1.0749,1.0749,1.0749,1.0848,1.0993,1.1085,1.1095,1.1257,1.1251,1.1267,1.1305,1.144,1.1693,1.1935,1.2186,1.2283,1.2454,1.2619,1.2705,1.2705,1.2705,1.2705,1.2699,1.2687,1.2705,1.2662,1.2705,1.2869,1.3419,1.3995,1.4048,1.4796,1.5379,1.5703,1.5508,1.5584,1.5832,1.5602,1.5256,1.6212,1.7169,1.7917,1.7937,1.8006,1.8014,0.5633,0.5614,0.5539,0.5502,0.5496,0.5422,0.5388,0.54,0.5392,0.5388,0.5394,0.5388,0.5384,0.5388,0.5386,0.5382,0.5382,0.5382,0.5382,0.5382,0.5382,0.5382,0.5382,0.5382,0.5382,0.5382,0.5382,0.5339,0.5253,0.5243,0.5302,0.5532,0.5554,0.5599,0.577,0.5997,0.6044,0.6042,0.6239,0.6437,0.6437,0.642,0.6355,0.626,0.6143,0.6078,0.6064,0.5961,0.5896,0.5896,0.5798,0.5741,0.5735,0.5733,0.5733,0.5733,0.5733,0.5733,0.5733,0.5733,0.5733,0.5733,0.5911,0.6171,0.7051,0.7383,0.8165,0.9676,0.9812,1.0221,1.0828,1.1054,1.1171,1.1182,1.1214,1.123,1.1235,1.1235,1.1267,1.1354,1.144,1.1613,1.1699,1.1699,1.1866,1.2037,1.2283,1.2534,1.2619,1.2705,1.2705,1.2705,1.2705,1.2705,1.2705,1.2705,1.2705,1.2784,1.3294,1.388,1.4294,1.4629,1.5054,1.5228,1.5061,1.5296,1.6018,1.625,1.5973,1.6472,1.7284,1.787,1.8031,1.8031,1.8031,0.5528,0.5643,0.5608,0.5594,0.559,0.5561,0.5549,0.5549,0.5549,0.5549,0.5537,0.5488,0.5461,0.5461,0.5404,0.5382,0.5382,0.5382,0.5382,0.5382,0.5382,0.5382,0.5382,0.5382,0.5382,0.5382,0.5382,0.5365,0.5337,0.5333,0.5286,0.5316,0.5485,0.5514,0.5611,0.576,0.5809,0.5746,0.6039,0.6139,0.6139,0.6337,0.6415,0.6374,0.6263,0.6203,0.6203,0.6086,0.6021,0.6021,0.5909,0.5841,0.5833,0.5773,0.5733,0.5733,0.5733,0.5733,0.5733,0.5733,0.5733,0.5733,0.626,0.67,0.7139,0.7577,0.8189,0.844,0.8798,0.9065,0.9226,1.0284,1.1267,1.1267,1.1267,1.1267,1.1267,1.1267,1.1267,1.1267,1.1435,1.1527,1.1699,1.1785,1.1952,1.2198,1.2448,1.2619,1.2705,1.2705,1.2705,1.2705,1.2705,1.2705,1.2705,1.2705,1.2705,1.279,1.3039,1.3124,1.3372,1.3542,1.3795,1.388,1.3964,1.4048,1.4608,1.553,1.5545,1.6288,1.7115,1.7538,1.8031,1.7619,1.7708,0.5733,0.5727,0.57,0.5688,0.5684,0.5655,0.5528,0.5528,0.5528,0.5528,0.5631,0.5578,0.5551,0.5537,0.5461,0.5422,0.5418,0.5396,0.5382,0.5382,0.5382,0.5382,0.5382,0.5382,0.5382,0.5382,0.5382,0.5382,0.5382,0.5382,0.5349,0.5292,0.5366,0.5399,0.5391,0.5554,0.5693,0.5609,0.5893,0.6085,0.6052,0.6239,0.6437,0.6426,0.6361,0.6325,0.632,0.6208,0.6146,0.613,0.6029,0.5961,0.5953,0.589,0.5828,0.5795,0.5787,0.5768,0.5738,0.5733,0.5733,0.5735,0.626,0.6612,0.67,0.7228,0.7482,0.7562,0.7742,0.8009,0.8615,0.9937,1.0824,1.0911,1.1089,1.1267,1.1267,1.1267,1.1348,1.1435,1.1348,1.1435,1.1699,1.1871,1.2123,1.2369,1.2619,1.2705,1.2705,1.2705,1.2705,1.2705,1.2705,1.2705,1.2705,1.2705,1.2705,1.2705,1.279,1.2705,1.2705,1.2705,1.2705,1.2705,1.2705,1.2705,1.3288,1.4384,1.5213,1.5869,1.6288,1.6632,1.6878,1.7041,1.7123,0.591,0.5892,0.5818,0.578,0.5772,0.5702,0.5655,0.5665,0.5663,0.5676,0.5678,0.5649,0.5645,0.5627,0.5549,0.5506,0.5484,0.5426,0.539,0.5382,0.5382,0.5382,0.5382,0.5382,0.5382,0.5382,0.5382,0.5382,0.5382,0.5382,0.5375,0.5361,0.5292,0.5245,0.5235,0.536,0.5488,0.5512,0.5896,0.605,0.606,0.6245,0.6337,0.6337,0.6429,0.6423,0.6426,0.6325,0.6268,0.6255,0.6151,0.6089,0.6072,0.6059,0.6024,0.5923,0.5907,0.585,0.5768,0.5763,0.5771,0.5752,0.5744,0.5833,0.5911,0.5908,0.626,0.6874,0.7136,0.7669,0.9152,0.9772,1.0033,1.0033,1.0824,1.1267,1.1267,1.1267,1.1354,1.1527,1.1435,1.1521,1.1866,1.1957,1.2037,1.2283,1.2534,1.2705,1.2705,1.2705,1.2705,1.2705,1.2705,1.2705,1.2705,1.2705,1.2705,1.2705,1.2699,1.2705,1.2705,1.2705,1.2705,1.2705,1.2705,1.2699,1.3203,1.4216,1.4636,1.5213,1.547,1.5809,1.5966,1.6214,1.6296,0.5919,0.5914,0.5886,0.5876,0.5872,0.5843,0.5833,0.5831,0.5833,0.5831,0.5821,0.5765,0.5737,0.5716,0.5643,0.5567,0.5508,0.5478,0.5439,0.539,0.5382,0.5382,0.5382,0.5382,0.5382,0.5382,0.5382,0.5382,0.5382,0.5382,0.5382,0.5375,0.5353,0.5304,0.5249,0.5214,0.5264,0.5282,0.5525,0.5679,0.5644,0.5979,0.6142,0.6142,0.6337,0.6437,0.6434,0.6401,0.6385,0.638,0.6274,0.6176,0.6108,0.6086,0.6067,0.6034,0.6029,0.6021,0.5986,0.5969,0.5928,0.5871,0.585,0.5809,0.5746,0.5741,0.583,0.618,0.6174,0.67,0.7753,0.8544,0.9432,1.0738,1.1176,1.1267,1.1267,1.1267,1.1348,1.1435,1.1354,1.1354,1.1521,1.1607,1.1866,1.2118,1.2363,1.2534,1.2619,1.2705,1.2705,1.2705,1.2705,1.2705,1.2705,1.2705,1.2705,1.2705,1.2705,1.2705,1.2705,1.2705,1.2705,1.2705,1.2705,1.2869,1.3372,1.3795,1.4216,1.472,1.5137,1.5311,1.5394,1.5387,1.5304,0.5919,0.5919,0.5919,0.5919,0.5919,0.5919,0.5919,0.5919,0.5919,0.5919,0.5902,0.5859,0.5833,0.5812,0.5735,0.5643,0.5561,0.5524,0.5461,0.5392,0.5382,0.5382,0.5382,0.5382,0.5382,0.5382,0.5382,0.5382,0.5382,0.5382,0.5382,0.5382,0.5382,0.5355,0.53,0.5292,0.5249,0.5161,0.5422,0.5477,0.5536,0.5858,0.6108,0.6101,0.6263,0.6439,0.6437,0.6437,0.6437,0.6426,0.6366,0.6293,0.6222,0.6219,0.6198,0.6159,0.6151,0.6135,0.6094,0.6072,0.6056,0.5986,0.5969,0.5945,0.588,0.5866,0.5863,0.5863,0.5871,0.6406,0.7667,0.8294,0.9522,1.1221,1.1316,1.1273,1.1267,1.1267,1.1267,1.1267,1.1267,1.1348,1.144,1.1521,1.1866,1.2118,1.2283,1.2448,1.2619,1.2705,1.2705,1.2705,1.2705,1.2705,1.2705,1.2705,1.2705,1.2705,1.2705,1.2705,1.2705,1.2705,1.2705,1.2705,1.2705,1.2705,1.3124,1.3209,1.3542,1.4132,1.4552,1.4216,1.4048,1.4132,1.4126,0.5919,0.5919,0.5919,0.5919,0.5919,0.5919,0.5919,0.5919,0.5919,0.5919,0.5914,0.5908,0.5908,0.5894,0.5821,0.5731,0.5641,0.5561,0.5473,0.5404,0.5382,0.5382,0.5382,0.5382,0.5382,0.5382,0.5382,0.5382,0.5382,0.5382,0.5382,0.5382,0.5382,0.5382,0.5369,0.5377,0.5333,0.5261,0.5452,0.5506,0.5437,0.5967,0.6107,0.6203,0.6313,0.6453,0.6437,0.6437,0.6437,0.6437,0.6426,0.6415,0.6426,0.6434,0.6366,0.6282,0.6279,0.6227,0.614,0.6143,0.6121,0.61,0.6094,0.6086,0.6056,0.6037,0.604,0.6043,0.6051,0.6901,0.8478,0.9031,0.988,1.1279,1.1499,1.1283,1.1267,1.1267,1.1267,1.1267,1.1262,1.1348,1.1613,1.1613,1.1866,1.2198,1.2369,1.2534,1.2619,1.2705,1.2705,1.2705,1.2705,1.2705,1.2705,1.2705,1.2705,1.2705,1.2705,1.2711,1.2705,1.2705,1.2705,1.2705,1.2705,1.2705,1.279,1.2954,1.2954,1.3209,1.3209,1.2784,1.2869,1.3209,1.3372,0.5919,0.5919,0.5919,0.5919,0.5919,0.5919,0.5919,0.5919,0.5919,0.5919,0.5919,0.5919,0.5919,0.5914,0.589,0.5796,0.5665,0.5616,0.552,0.54,0.5382,0.5382,0.5382,0.5382,0.5382,0.5382,0.5382,0.5382,0.5382,0.5382,0.5382,0.5382,0.5382,0.5382,0.5382,0.5382,0.5371,0.5339,0.5273,0.5345,0.542,0.5757,0.5979,0.5901,0.6382,0.6521,0.6448,0.6437,0.6437,0.6437,0.6437,0.6437,0.6437,0.6437,0.6418,0.6393,0.6385,0.638,0.635,0.6333,0.6301,0.623,0.6219,0.6181,0.6092,0.6089,0.6089,0.6086,0.6181,0.6938,0.8617,0.9177,1.0066,1.1556,1.1628,1.1305,1.13,1.1267,1.1267,1.1267,1.1289,1.1392,1.1484,1.1657,1.183,1.2077,1.2336,1.2502,1.2635,1.2715,1.2751,1.2741,1.2717,1.2705,1.2705,1.2705,1.2705,1.2705,1.2711,1.2729,1.2717,1.2705,1.2705,1.2705,1.2705,1.2705,1.2705,1.2784,1.2699,1.2705,1.2705,1.2705,1.2705,1.2869,1.2954,0.5919,0.5919,0.5919,0.5919,0.5919,0.5919,0.5919,0.5919,0.5919,0.5919,0.5919,0.5919,0.5919,0.5919,0.5914,0.5814,0.5661,0.5528,0.5545,0.5404,0.5382,0.5382,0.5382,0.5382,0.5382,0.5382,0.5382,0.5382,0.5382,0.5382,0.5382,0.5382,0.5382,0.5382,0.5382,0.5382,0.5382,0.5371,0.5324,0.53,0.5511,0.5861,0.611,0.6123,0.6477,0.6562,0.6456,0.6437,0.6437,0.6437,0.6437,0.6437,0.6437,0.6437,0.6437,0.6437,0.6437,0.6437,0.6437,0.6437,0.6407,0.6355,0.6339,0.6306,0.6255,0.6233,0.6233,0.6241,0.623,0.7286,0.8901,0.9995,1.0983,1.1971,1.1871,1.165,1.1645,1.1661,1.1645,1.1639,1.1639,1.1639,1.1639,1.1811,1.1899,1.2092,1.2303,1.2557,1.2815,1.2861,1.2925,1.297,1.2976,1.3037,1.3055,1.3055,1.3031,1.2994,1.2958,1.2934,1.2813,1.2783,1.2753,1.2753,1.2729,1.2723,1.2765,1.2765,1.2705,1.2705,1.2705,1.2723,1.2741,1.2819,1.2801,0.5919,0.5919,0.5919,0.5919,0.5919,0.5919,0.5919,0.5919,0.5919,0.5919,0.5919,0.5919,0.5919,0.5919,0.5914,0.5818,0.5647,0.5528,0.5535,0.5429,0.5382,0.5382,0.5382,0.5382,0.5382,0.5382,0.5382,0.5382,0.5382,0.5382,0.5382,0.5382,0.5382,0.5382,0.5382,0.5382,0.5382,0.5382,0.5373,0.5475,0.5684,0.595,0.6221,0.637,0.6505,0.6584,0.6491,0.645,0.6437,0.6437,0.6437,0.6437,0.6437,0.6437,0.6437,0.6437,0.6437,0.6437,0.6437,0.6437,0.6437,0.6423,0.6426,0.6437,0.641,0.6396,0.6396,0.6391,0.6531,0.7684,0.9633,1.1288,1.2178,1.242,1.2231,1.2145,1.2205,1.2173,1.2043,1.2043,1.2124,1.2043,1.214,1.214,1.221,1.2305,1.2428,1.2777,1.295,1.3034,1.3231,1.3357,1.3393,1.3447,1.3453,1.3453,1.3417,1.3381,1.3338,1.3266,1.3043,1.2964,1.288,1.2868,1.2994,1.3006,1.2946,1.2898,1.2843,1.288,1.3,1.2922,1.2843,1.2976,1.3019,0.5919,0.5919,0.5919,0.5919,0.5919,0.5919,0.5919,0.5919,0.5919,0.5919,0.5919,0.5919,0.5919,0.5919,0.591,0.5816,0.5663,0.5635,0.5547,0.54,0.5382,0.5382,0.5382,0.5382,0.5382,0.5382,0.5382,0.5382,0.5382,0.5382,0.5382,0.5382,0.5382,0.5382,0.5382,0.5382,0.5382,0.5382,0.5382,0.5382,0.5603,0.6026,0.6301,0.6322,0.644,0.6627,0.657,0.6486,0.6439,0.6437,0.6437,0.6437,0.6437,0.6437,0.6437,0.6437,0.6437,0.6437,0.6437,0.6437,0.6437,0.6437,0.6437,0.6437,0.6437,0.6437,0.6437,0.6537,0.7229,0.8517,1.048,1.193,1.2566,1.2635,1.2603,1.2571,1.2544,1.2379,1.2113,1.2081,1.2081,1.2054,1.2156,1.2281,1.2362,1.242,1.2706,1.2968,1.3088,1.3312,1.3445,1.3597,1.3676,1.3707,1.3713,1.3713,1.3719,1.3713,1.3688,1.3658,1.3429,1.3308,1.3296,1.3314,1.3363,1.3308,1.3175,1.3248,1.3236,1.3278,1.3284,1.3224,1.3188,1.3248,1.323,0.5919,0.5919,0.5919,0.5919,0.5919,0.5919,0.5919,0.5919,0.5919,0.5919,0.5919,0.5919,0.5919,0.5919,0.5912,0.5837,0.571,0.561,0.551,0.5404,0.5382,0.5382,0.5382,0.5382,0.5382,0.5382,0.5382,0.5382,0.5382,0.5382,0.5382,0.5382,0.5382,0.5382,0.5382,0.5382,0.5382,0.5382,0.5382,0.5493,0.5603,0.6049,0.6443,0.6458,0.664,0.6771,0.6703,0.6589,0.6535,0.651,0.6469,0.6437,0.6437,0.6437,0.6437,0.6437,0.6437,0.6437,0.6437,0.6437,0.6437,0.6437,0.6437,0.6437,0.6437,0.6437,0.6437,0.6634,0.7425,0.8806,1.0974,1.216,1.2662,1.2759,1.2759,1.2759,1.2721,1.2533,1.2382,1.2382,1.2414,1.2409,1.2482,1.2505,1.2549,1.2703,1.2808,1.3085,1.3402,1.3526,1.3772,1.3884,1.3942,1.3936,1.3936,1.3954,1.3978,1.399,1.4008,1.3996,1.3906,1.3833,1.3785,1.3713,1.3586,1.3501,1.3411,1.3507,1.3556,1.3471,1.3447,1.3495,1.3501,1.3453,1.3423,0.5898,0.5896,0.5882,0.5876,0.5878,0.587,0.5863,0.587,0.5892,0.5886,0.5902,0.5906,0.5919,0.5919,0.5919,0.5865,0.5751,0.5596,0.5471,0.5424,0.5388,0.5384,0.5382,0.5382,0.5382,0.5382,0.5382,0.5382,0.5382,0.5382,0.5382,0.5382,0.5382,0.5382,0.5382,0.5382,0.5382,0.5382,0.5382,0.5493,0.5712,0.6049,0.6445,0.6934,0.6972,0.6912,0.6823,0.6719,0.6635,0.6616,0.6521,0.6464,0.6437,0.6437,0.6437,0.6437,0.6437,0.6437,0.6437,0.6437,0.6437,0.6437,0.6437,0.6437,0.6437,0.6437,0.6537,0.7129,0.8018,0.9497,1.1268,1.2262,1.2759,1.2759,1.2759,1.2759,1.2759,1.2759,1.2711,1.2711,1.2641,1.2619,1.2748,1.2731,1.2813,1.2861,1.3055,1.3244,1.3545,1.3721,1.4017,1.4082,1.4123,1.4105,1.4105,1.4099,1.4135,1.4153,1.4214,1.4214,1.4214,1.4141,1.4008,1.3845,1.3731,1.3688,1.3707,1.3791,1.3773,1.3646,1.3682,1.3809,1.3761,1.3646,1.3652,0.5804,0.5798,0.572,0.569,0.5692,0.5692,0.57,0.5702,0.5778,0.5804,0.5812,0.588,0.5904,0.5912,0.5916,0.5863,0.5743,0.56,0.55,0.5457,0.5414,0.5384,0.5382,0.5382,0.5382,0.5382,0.5382,0.5382,0.5382,0.5382,0.5382,0.5382,0.5382,0.5382,0.5382,0.5382,0.5382,0.5382,0.5382,0.5493,0.5605,0.6049,0.6596,0.7103,0.7043,0.6991,0.6942,0.6836,0.6728,0.663,0.66,0.6537,0.6488,0.6464,0.6456,0.6437,0.6437,0.6437,0.6437,0.6437,0.6437,0.6437,0.6437,0.6437,0.6437,0.6437,0.6833,0.8021,0.9402,1.1077,1.2365,1.2662,1.2759,1.2759,1.2759,1.2759,1.2759,1.2759,1.2759,1.2759,1.2759,1.2764,1.2856,1.2856,1.2953,1.3152,1.3346,1.3539,1.3738,1.3925,1.4184,1.4268,1.4274,1.4268,1.4262,1.425,1.4256,1.4238,1.4268,1.4268,1.4268,1.4286,1.4189,1.4032,1.4026,1.4075,1.4093,1.4087,1.4069,1.399,1.4063,1.4135,1.4045,1.3954,1.4032,0.5753,0.5706,0.5661,0.5528,0.5528,0.5528,0.5528,0.5651,0.569,0.571,0.5723,0.5757,0.5806,0.5835,0.5847,0.5796,0.57,0.5633,0.5531,0.5457,0.54,0.5382,0.5382,0.5382,0.5382,0.5382,0.5382,0.5382,0.5382,0.5382,0.5382,0.5382,0.5382,0.5382,0.5382,0.5382,0.5382,0.5382,0.5382,0.5384,0.5495,0.594,0.6604,0.7025,0.7108,0.7078,0.7051,0.6961,0.6877,0.6812,0.6747,0.6687,0.6641,0.6605,0.6564,0.6472,0.6445,0.6439,0.6437,0.6437,0.6437,0.6437,0.6437,0.6437,0.6437,0.6537,0.7129,0.8715,1.0092,1.1668,1.2662,1.2759,1.2759,1.2759,1.2759,1.2759,1.2759,1.2759,1.2759,1.2759,1.2759,1.2764,1.2861,1.2958,1.305,1.3346,1.3636,1.3732,1.3925,1.4118,1.4298,1.4298,1.4298,1.4298,1.4298,1.4298,1.4298,1.4298,1.4298,1.4298,1.4298,1.4298,1.4298,1.4232,1.4286,1.4298,1.428,1.4201,1.4262,1.4298,1.4256,1.4232,1.4268,1.4292,1.4298,0.5684,0.5616,0.5598,0.5592,0.559,0.559,0.5588,0.5594,0.5608,0.5616,0.562,0.5643,0.5692,0.5739,0.5747,0.5712,0.5641,0.5625,0.5531,0.5443,0.5392,0.5382,0.5382,0.5382,0.5382,0.5382,0.5382,0.5382,0.5382,0.5382,0.5382,0.5382,0.5382,0.5382,0.5382,0.5382,0.5382,0.5382,0.5384,0.5384,0.5717,0.6051,0.6606,0.7154,0.7154,0.7149,0.713,0.7067,0.7002,0.6948,0.6888,0.6823,0.6806,0.6801,0.6709,0.6545,0.6491,0.6467,0.6439,0.6437,0.6437,0.6437,0.6437,0.6437,0.6537,0.6833,0.7528,0.9308,1.0587,1.1668,1.2565,1.2759,1.2759,1.2759,1.2759,1.2759,1.2759,1.2759,1.2759,1.2759,1.2759,1.2764,1.2861,1.3055,1.3249,1.3437,1.3732,1.4016,1.4112,1.4208,1.4298,1.4298,1.4298,1.4298,1.4298,1.4298,1.4298,1.4298,1.4298,1.4298,1.4298,1.4298,1.4298,1.4298,1.4298,1.4298,1.4298,1.4298,1.4298,1.4298,1.4298,1.4298,1.4298,1.4298,1.4298,0.5533,0.5516,0.5445,0.5412,0.542,0.5422,0.5418,0.5431,0.5496,0.5524,0.5529,0.5598,0.5637,0.5659,0.5667,0.5655,0.562,0.5565,0.5514,0.5455,0.5408,0.5382,0.5382,0.5382,0.5382,0.5382,0.5382,0.5382,0.5382,0.5382,0.5382,0.5382,0.5382,0.5382,0.5382,0.5382,0.5382,0.5382,0.5382,0.5605,0.6049,0.6163,0.6604,0.7046,0.7154,0.7154,0.7154,0.7119,0.7086,0.7002,0.698,0.691,0.6828,0.6804,0.6796,0.6733,0.666,0.6551,0.6486,0.648,0.6483,0.6486,0.6461,0.6442,0.6537,0.7229,0.812,0.941,1.0587,1.1473,1.2365,1.2759,1.2759,1.2759,1.2759,1.2759,1.2759,1.2759,1.2759,1.2759,1.2759,1.2759,1.2764,1.3152,1.3443,1.3636,1.3823,1.4112,1.4202,1.4298,1.4298,1.4298,1.4298,1.4298,1.4298,1.4298,1.4298,1.4298,1.4298,1.4298,1.4298,1.4298,1.4298,1.4298,1.4298,1.4298,1.4298,1.4298,1.4298,1.4298,1.4298,1.4298,1.4298,1.4298,1.4298,0.5435,0.5435,0.5398,0.5382,0.5382,0.5382,0.5382,0.539,0.542,0.5437,0.5441,0.5473,0.5518,0.5565,0.5614,0.5614,0.5567,0.552,0.5478,0.5445,0.54,0.5382,0.5382,0.5382,0.5382,0.5382,0.5382,0.5382,0.5382,0.5382,0.5382,0.5382,0.5382,0.5382,0.5382,0.5382,0.5382,0.5382,0.5382,0.5603,0.5935,0.6161,0.6495,0.6935,0.7043,0.7154,0.7154,0.7154,0.7138,0.7084,0.7081,0.7062,0.7018,0.6999,0.6983,0.6899,0.6861,0.6774,0.6673,0.6646,0.663,0.6616,0.6578,0.6516,0.6662,0.7335,0.8127,0.8616,1.0288,1.137,1.1965,1.2462,1.2662,1.2759,1.2759,1.2759,1.2759,1.2759,1.2759,1.2759,1.2759,1.2759,1.2856,1.3249,1.3443,1.3636,1.3919,1.4208,1.4298,1.4298,1.4298,1.4298,1.4298,1.4298,1.4298,1.4298,1.4298,1.4298,1.4298,1.4298,1.4298,1.4298,1.4298,1.4298,1.4298,1.4298,1.4298,1.4298,1.4298,1.4298,1.4298,1.4298,1.4298,1.4298,1.4298,0.5382,0.5382,0.5382,0.5382,0.5382,0.5382,0.5382,0.5382,0.5386,0.5384,0.5382,0.539,0.5424,0.5473,0.5533,0.5527,0.5478,0.5475,0.5441,0.54,0.5382,0.5382,0.5382,0.5382,0.5382,0.5382,0.5382,0.5382,0.5382,0.5382,0.5382,0.5382,0.5382,0.5382,0.5382,0.5382,0.5382,0.5382,0.5382,0.5603,0.5824,0.6047,0.6381,0.6712,0.6935,0.7154,0.7154,0.7154,0.7152,0.7149,0.7143,0.713,0.7124,0.7116,0.7092,0.7035,0.7008,0.698,0.6885,0.6834,0.6815,0.6774,0.6736,0.6632,0.6664,0.7315,0.7882,0.8096,0.9217,1.0391,1.117,1.1965,1.2365,1.2565,1.2759,1.2759,1.2764,1.2764,1.2764,1.2759,1.2759,1.2759,1.2953,1.3249,1.3443,1.3539,1.3823,1.4202,1.4298,1.4298,1.4298,1.4298,1.4298,1.4298,1.4298,1.4298,1.4298,1.4298,1.4298,1.4298,1.4298,1.4298,1.4298,1.4298,1.4298,1.4298,1.4298,1.4298,1.4298,1.4298,1.4298,1.4298,1.4298,1.4298,1.4298,0.5382,0.5382,0.5382,0.5382,0.5382,0.5382,0.5382,0.5382,0.5382,0.5382,0.5382,0.5384,0.5386,0.5402,0.5418,0.542,0.5396,0.539,0.539,0.5388,0.5382,0.5382,0.5382,0.5382,0.5382,0.5382,0.5382,0.5382,0.5382,0.5382,0.5382,0.5382,0.5382,0.5382,0.5382,0.5382,0.5382,0.5382,0.5382,0.5491,0.5712,0.5935,0.6156,0.6601,0.6712,0.6824,0.7154,0.7154,0.7154,0.7154,0.7154,0.7154,0.7154,0.7154,0.7133,0.7122,0.7114,0.7097,0.7054,0.694,0.6828,0.6806,0.6793,0.6771,0.6711,0.6646,0.7126,0.7922,0.856,0.9379,1.0439,1.1385,1.1983,1.2387,1.2708,1.2845,1.2829,1.277,1.2764,1.2764,1.2759,1.2856,1.2953,1.3244,1.3443,1.3539,1.3919,1.4298,1.4298,1.4298,1.4298,1.4298,1.4298,1.4298,1.4298,1.4298,1.4298,1.4298,1.4298,1.4298,1.4298,1.4298,1.4298,1.4298,1.4298,1.4298,1.4298,1.4298,1.4298,1.4298,1.4298,1.4298,1.4298,1.4298,1.4298,0.5382,0.5382,0.5382,0.5382,0.5382,0.5382,0.5382,0.5382,0.5382,0.5382,0.5382,0.5382,0.5382,0.5382,0.5382,0.5382,0.5382,0.5384,0.5382,0.5382,0.5382,0.5382,0.5382,0.5382,0.5382,0.5382,0.5382,0.5382,0.5382,0.5382,0.5382,0.5382,0.5382,0.5382,0.5382,0.5382,0.5382,0.5382,0.5382,0.5491,0.5491,0.5712,0.6044,0.6383,0.6601,0.6824,0.7154,0.7154,0.7154,0.7154,0.7154,0.7154,0.7154,0.7154,0.7154,0.7154,0.7154,0.7154,0.7154,0.7059,0.6997,0.6921,0.6912,0.6891,0.6839,0.6757,0.684,0.7333,0.7917,0.8769,0.9214,1.0649,1.1793,1.2148,1.2584,1.2902,1.2953,1.291,1.2872,1.291,1.2921,1.2856,1.305,1.334,1.3443,1.3539,1.4016,1.4298,1.4298,1.4298,1.4298,1.4298,1.4298,1.4298,1.4298,1.4298,1.4298,1.4298,1.4298,1.4298,1.4298,1.4298,1.4298,1.4298,1.4298,1.4298,1.4298,1.4298,1.4298,1.4298,1.4298,1.4298,1.4298,1.4298,1.4298,0.5382,0.5382,0.5382,0.5382,0.5382,0.5382,0.5382,0.5382,0.5382,0.5382,0.5382,0.5382,0.5382,0.5382,0.5382,0.5382,0.5382,0.5382,0.5382,0.5382,0.5382,0.5382,0.5382,0.5382,0.5382,0.5382,0.5382,0.5382,0.5382,0.5382,0.5382,0.5382,0.5382,0.5382,0.5382,0.5382,0.5382,0.5382,0.5382,0.5382,0.5493,0.5603,0.5935,0.6274,0.6495,0.6824,0.7043,0.7154,0.7154,0.7154,0.7154,0.7154,0.7154,0.7154,0.7154,0.7154,0.7154,0.7154,0.7154,0.7146,0.7119,0.7048,0.7037,0.6991,0.6929,0.688,0.6965,0.6956,0.756,0.8062,0.8384,0.9995,1.1326,1.1782,1.2775,1.3222,1.3195,1.3157,1.3098,1.3071,1.3068,1.2986,1.3236,1.3528,1.3738,1.3835,1.4016,1.4298,1.4298,1.4298,1.4298,1.4298,1.4298,1.4298,1.4298,1.4298,1.4298,1.4298,1.4298,1.4298,1.4298,1.4298,1.4298,1.4298,1.4298,1.4298,1.4298,1.4298,1.4298,1.4298,1.4298,1.4298,1.4298,1.4298,1.4298,0.5382,0.5382,0.5382,0.5382,0.5382,0.5382,0.5382,0.5382,0.5382,0.5382,0.5382,0.5382,0.5382,0.5382,0.5382,0.5382,0.5382,0.5382,0.5382,0.5382,0.5382,0.5382,0.5382,0.5382,0.5382,0.5382,0.5382,0.5382,0.5382,0.5382,0.5382,0.5382,0.5382,0.5382,0.5382,0.5382,0.5382,0.5382,0.5382,0.5382,0.5382,0.5491,0.5826,0.6163,0.6386,0.6715,0.7043,0.7154,0.7154,0.7154,0.7154,0.7154,0.7154,0.7154,0.7154,0.7154,0.7154,0.7154,0.7154,0.7154,0.7143,0.713,0.7114,0.7103,0.7103,0.7051,0.698,0.6972,0.7124,0.7481,0.8292,0.9444,1.0414,1.1567,1.259,1.3356,1.3335,1.3346,1.3276,1.3238,1.3163,1.3181,1.3506,1.3722,1.3984,1.4124,1.4304,1.4298,1.4298,1.4298,1.4298,1.4298,1.4298,1.4298,1.4298,1.4298,1.4298,1.4298,1.4298,1.4298,1.4298,1.4298,1.4298,1.4298,1.4298,1.4298,1.4298,1.4298,1.4298,1.4298,1.4298,1.4298,1.4298,1.4298,1.4298,0.5382,0.5382,0.5382,0.5382,0.5382,0.5382,0.5382,0.5382,0.5382,0.5382,0.5382,0.5382,0.5382,0.5382,0.5382,0.5382,0.5382,0.5382,0.5382,0.5382,0.5382,0.5382,0.5382,0.5382,0.5382,0.5382,0.5382,0.5382,0.5382,0.5382,0.5382,0.5382,0.5382,0.5382,0.5382,0.5382,0.5382,0.5382,0.5382,0.5382,0.538,0.5603,0.5826,0.6274,0.6383,0.6715,0.7154,0.7154,0.7154,0.7154,0.7154,0.7154,0.7154,0.7154,0.7154,0.7154,0.7154,0.7154,0.7154,0.7154,0.7154,0.7154,0.7154,0.7154,0.7143,0.7127,0.7103,0.7089,0.7037,0.7331,0.7692,0.8665,0.9757,1.0915,1.1945,1.2895,1.3242,1.3415,1.3421,1.3405,1.3357,1.3518,1.3717,1.401,1.4279,1.4238,1.4304,1.4298,1.4298,1.4298,1.4298,1.4298,1.4298,1.4298,1.4298,1.4298,1.4298,1.4298,1.4298,1.4298,1.4298,1.4298,1.4298,1.4298,1.4298,1.4298,1.4298,1.4298,1.4298,1.4298,1.4298,1.4298,1.4298,1.4298,1.4298,0.5382,0.5382,0.5382,0.5382,0.5382,0.5382,0.5382,0.5382,0.5382,0.5382,0.5382,0.5382,0.5382,0.5382,0.5382,0.5382,0.5382,0.5382,0.5382,0.5382,0.5382,0.5382,0.5382,0.5382,0.5382,0.5382,0.5382,0.5382,0.5382,0.5382,0.5382,0.5382,0.5382,0.5382,0.5382,0.5382,0.5382,0.5382,0.5382,0.5384,0.5493,0.5603,0.5824,0.6161,0.6495,0.6712,0.7046,0.7154,0.7154,0.7154,0.7154,0.7154,0.7154,0.7154,0.7154,0.7154,0.7154,0.7154,0.7154,0.7154,0.7154,0.7154,0.7154,0.7154,0.7154,0.7146,0.7146,0.7146,0.7154,0.7263,0.7368,0.826,0.9127,1.03,1.1463,1.2428,1.3037,1.322,1.3728,1.3701,1.38,1.3936,1.4019,1.4301,1.4582,1.4437,1.4298,1.4298,1.4298,1.4298,1.4298,1.4298,1.4298,1.4298,1.4298,1.4298,1.4298,1.4298,1.4298,1.4298,1.4298,1.4298,1.4298,1.4298,1.4298,1.4298,1.4298,1.4298,1.4298,1.4298,1.4298,1.4298,1.4298,1.4298,1.4298,0.5382,0.5382,0.5382,0.5382,0.5382,0.5382,0.5382,0.5382,0.5382,0.5382,0.5382,0.5382,0.5382,0.5382,0.5382,0.5382,0.5382,0.5382,0.5382,0.5382,0.5382,0.5382,0.5382,0.5382,0.5382,0.5382,0.5382,0.5382,0.5382,0.5382,0.5382,0.5382,0.5382,0.5382,0.5382,0.5382,0.5382,0.5382,0.5382,0.5382,0.5382,0.5605,0.5938,0.6274,0.6495,0.6826,0.7046,0.7154,0.7154,0.7154,0.7154,0.7154,0.7154,0.7154,0.7154,0.7154,0.7154,0.7154,0.7154,0.7154,0.7154,0.7154,0.7154,0.7154,0.7154,0.7154,0.7154,0.7154,0.7154,0.7154,0.7376,0.8039,0.8699,0.9892,1.1097,1.1941,1.2596,1.3116,1.3885,1.4147,1.4228,1.4331,1.4297,1.453,1.4714,1.4515,1.4377,1.4298,1.4298,1.4298,1.4298,1.4298,1.4298,1.4298,1.4298,1.4298,1.4298,1.4298,1.4298,1.4298,1.4298,1.4298,1.4298,1.4298,1.4298,1.4298,1.4298,1.4298,1.4298,1.4298,1.4298,1.4298,1.4298,1.4298,1.4298,0.5382,0.5382,0.5382,0.5382,0.5382,0.5382,0.5382,0.5382,0.5382,0.5382,0.5382,0.5382,0.5382,0.5382,0.5382,0.5382,0.5382,0.5382,0.5382,0.5382,0.5382,0.5382,0.5382,0.5382,0.5382,0.5382,0.5382,0.5382,0.5382,0.5382,0.5382,0.5382,0.5382,0.5382,0.5382,0.5382,0.5382,0.5382,0.5382,0.5382,0.5493,0.5717,0.6051,0.6272,0.6604,0.6935,0.7154,0.7154,0.7154,0.7154,0.7154,0.7154,0.7154,0.7154,0.7154,0.7154,0.7154,0.7154,0.7154,0.7154,0.7154,0.7154,0.7154,0.7154,0.7154,0.7154,0.7154,0.7154,0.7154,0.7154,0.7154,0.7706,0.826,0.9137,1.0339,1.1433,1.22,1.3305,1.397,1.4379,1.4467,1.4639,1.4607,1.4803,1.4877,1.4642,1.4461,1.4358,1.4298,1.4298,1.4298,1.4298,1.4298,1.4298,1.4298,1.4298,1.4298,1.4298,1.4298,1.4298,1.4298,1.4298,1.4298,1.4298,1.4298,1.4298,1.4298,1.4298,1.4298,1.4298,1.4298,1.4298,1.4298,1.4298,1.4298,0.5382,0.5382,0.5382,0.5382,0.5382,0.5382,0.5382,0.5382,0.5382,0.5382,0.5382,0.5382,0.5382,0.5382,0.5382,0.5382,0.5382,0.5382,0.5382,0.5382,0.5382,0.5382,0.5382,0.5382,0.5382,0.5382,0.5382,0.5382,0.5382,0.5382,0.5382,0.5382,0.5382,0.5382,0.5382,0.5382,0.5382,0.5382,0.5382,0.5382,0.5605,0.5828,0.6049,0.6383,0.6826,0.7046,0.7154,0.7154,0.7154,0.7154,0.7154,0.7154,0.7154,0.7154,0.7154,0.7154,0.7154,0.7154,0.7154,0.7154,0.7154,0.7154,0.7154,0.7154,0.7154,0.7154,0.7154,0.7154,0.7154,0.7154,0.7154,0.7265,0.7709,0.8149,0.9574,1.0887,1.2096,1.3305,1.3856,1.4288,1.4646,1.4758,1.4984,1.5071,1.501,1.4721,1.4491,1.4346,1.4298,1.4298,1.4298,1.4298,1.4298,1.4298,1.4298,1.4298,1.4298,1.4298,1.4298,1.4298,1.4298,1.4298,1.4298,1.4298,1.4298,1.4298,1.4298,1.4298,1.4298,1.4298,1.4298,1.4298,1.4298,1.4298,1.4298,0.5382,0.5382,0.5382,0.5382,0.5382,0.5382,0.5382,0.5382,0.5382,0.5382,0.5382,0.5382,0.5382,0.5382,0.5382,0.5382,0.5382,0.5382,0.5382,0.5382,0.5382,0.5382,0.5382,0.5382,0.5382,0.5382,0.5382,0.5382,0.5382,0.5382,0.5382,0.5382,0.5382,0.5382,0.5382,0.5382,0.5382,0.5382,0.5382,0.5382,0.5493,0.5714,0.6047,0.6274,0.6606,0.6935,0.7154,0.7154,0.7154,0.7154,0.7154,0.7154,0.7154,0.7154,0.7154,0.7154,0.7154,0.7154,0.7154,0.7154,0.7154,0.7154,0.7154,0.7154,0.7154,0.7154,0.7154,0.7154,0.7154,0.7154,0.7154,0.7154,0.7487,0.8039,0.9027,1.0229,1.1328,1.2758,1.4078,1.4401,1.4696,1.4921,1.503,1.511,1.5167,1.4835,1.4588,1.4419,1.4304,1.4304,1.4298,1.4298,1.4298,1.4298,1.4298,1.4298,1.4298,1.4298,1.4298,1.4298,1.4298,1.4298,1.4298,1.4298,1.4298,1.4298,1.4298,1.4304,1.431,1.4298,1.4298,1.4298,1.4304,1.4328,1.4298,0.5382,0.5382,0.5382,0.5382,0.5382,0.5382,0.5382,0.5382,0.5382,0.5382,0.5382,0.5382,0.5382,0.5382,0.5382,0.5382,0.5382,0.5382,0.5382,0.5382,0.5382,0.5382,0.5382,0.5382,0.5382,0.5382,0.5382,0.5382,0.5382,0.5382,0.5382,0.5382,0.5382,0.5382,0.5382,0.5382,0.5382,0.5382,0.5382,0.5382,0.5493,0.5826,0.6272,0.6495,0.6715,0.7046,0.7154,0.7154,0.7154,0.7154,0.7154,0.7154,0.7154,0.7154,0.7154,0.7154,0.7154,0.7154,0.7154,0.7154,0.7154,0.7154,0.7154,0.7154,0.7154,0.7154,0.7154,0.7154,0.7154,0.7154,0.7154,0.7154,0.7265,0.7817,0.8585,0.9684,1.0781,1.2427,1.4078,1.4509,1.4719,1.4978,1.5099,1.5129,1.5203,1.5046,1.4793,1.4588,1.4389,1.4322,1.4304,1.4298,1.4298,1.4298,1.4298,1.4298,1.4298,1.4298,1.4298,1.4298,1.4304,1.4358,1.4395,1.4328,1.4298,1.4401,1.4437,1.4328,1.4322,1.4401,1.4431,1.4485,1.4431,1.4431,1.4358,0.5382,0.5382,0.5382,0.5382,0.5382,0.5382,0.5382,0.5382,0.5382,0.5382,0.5382,0.5382,0.5382,0.5382,0.5382,0.5382,0.5382,0.5382,0.5382,0.5382,0.5382,0.5382,0.5382,0.5382,0.5382,0.5382,0.5382,0.5382,0.5382,0.5382,0.5382,0.5382,0.5382,0.5384,0.5384,0.5382,0.5382,0.5382,0.5382,0.5493,0.5603,0.6049,0.6383,0.6606,0.6824,0.7154,0.7154,0.7154,0.7154,0.7154,0.7154,0.7154,0.7154,0.7154,0.7154,0.7154,0.7154,0.7154,0.7154,0.7154,0.7154,0.7154,0.7154,0.7154,0.7154,0.7154,0.7154,0.7154,0.7154,0.7154,0.7154,0.7154,0.7154,0.7595,0.9137,1.0672,1.1882,1.3423,1.4191,1.4299,1.4617,1.4917,1.5128,1.5293,1.5287,1.5264,1.5016,1.4745,1.4545,1.4364,1.434,1.4298,1.4298,1.4298,1.4298,1.4298,1.4298,1.4298,1.4298,1.431,1.4328,1.4443,1.4491,1.4503,1.457,1.4702,1.469,1.4582,1.4636,1.4769,1.4751,1.4714,1.4636,1.4594,1.4618,0.5382,0.5382,0.5382,0.5382,0.5382,0.5382,0.5382,0.5382,0.5382,0.5382,0.5382,0.5382,0.5382,0.5382,0.5382,0.5382,0.5382,0.5382,0.5382,0.5382,0.5382,0.5382,0.5382,0.5382,0.5382,0.5382,0.5382,0.5382,0.5382,0.5382,0.5382,0.538,0.5382,0.5384,0.5382,0.5382,0.5382,0.5382,0.5493,0.5603,0.5826,0.6161,0.6383,0.6715,0.7043,0.7154,0.7154,0.7154,0.7154,0.7154,0.7154,0.7154,0.7154,0.7154,0.7154,0.7154,0.7154,0.7154,0.7154,0.7154,0.7154,0.7154,0.7154,0.7154,0.7154,0.7154,0.7154,0.7154,0.7154,0.7154,0.7154,0.7154,0.7154,0.7595,0.9464,1.1114,1.254,1.3867,1.4191,1.4191,1.4617,1.4934,1.5163,1.5434,1.5425,1.5415,1.5221,1.4944,1.4702,1.4539,1.4437,1.4358,1.4298,1.4298,1.4298,1.4298,1.4298,1.4298,1.4304,1.4316,1.4395,1.4606,1.4751,1.4793,1.4871,1.4956,1.4998,1.4938,1.5028,1.5077,1.498,1.4902,1.4926,1.4902,1.4992,0.5382,0.5382,0.5382,0.5382,0.5382,0.5382,0.5382,0.5382,0.5382,0.5382,0.5382,0.5382,0.5382,0.5382,0.5382,0.5382,0.5382,0.5382,0.5382,0.5382,0.5382,0.5382,0.5382,0.5382,0.5382,0.5382,0.5382,0.5382,0.5382,0.5382,0.5491,0.571,0.5491,0.5491,0.5714,0.5603,0.5493,0.5493,0.5605,0.5714,0.6049,0.6383,0.6383,0.6715,0.7043,0.7154,0.7154,0.7154,0.7154,0.7154,0.7154,0.7154,0.7154,0.7154,0.7154,0.7154,0.7154,0.7154,0.7154,0.7154,0.7154,0.7154,0.7154,0.7154,0.7154,0.7154,0.7154,0.7154,0.7154,0.7154,0.7154,0.7154,0.7265,0.8036,0.9357,1.0453,1.166,1.3197,1.4299,1.4509,1.4719,1.5148,1.5357,1.5559,1.5692,1.5578,1.5457,1.5179,1.4883,1.4714,1.4564,1.4455,1.4358,1.4298,1.4298,1.4298,1.4298,1.4298,1.4352,1.4461,1.4624,1.4871,1.4992,1.5046,1.5077,1.5131,1.5167,1.5276,1.5215,1.5228,1.5131,1.5077,1.5137,1.5203,1.5282]},{"header":{"parameterUnit":"m.s-1","parameterCategory":1,"la1":31.0,"la2":29.5877,"lo1":-88.7671,"lo2":-86.6584,"dy":0.0162,"dx":0.0185,"nx":115,"ny":88,"refTime":"2023-07-14T00:00:00:Z","depth":0,"parameterNumber":3,"parameterNumberName":"V-component_of_WINDS"},"data":[0.0,0.0,0.0,0.0,0.0,0.0,0.0,0.0,0.0,0.0,0.0,0.0,0.0,0.0,0.0,0.0,0.0,0.0,0.0,0.0,0.0,0.0,0.0,0.0,0.0,0.0,0.0,0.0,0.0,0.0,0.0,0.0,0.0,0.0,0.0,0.0,0.0,0.0,0.0,0.0,0.0,0.0,0.0,0.0,0.0,0.0,0.0,0.0,0.0,0.0,0.0,0.0,0.0,0.0,0.0,0.0,0.0,0.0,0.0,0.0,0.0,0.0,0.0,0.0,0.0,0.0,0.0,0.0,0.0,0.0,0.0,0.0,0.0,0.0,0.0,0.0,0.0,0.0,0.0,0.0,0.0,0.0,0.0,0.0,0.0,0.0,0.0,0.0,0.0,0.0,0.0,0.0,0.0,0.0,0.0,0.0,0.0,0.0,0.0,0.0,0.0,0.0,0.0,0.0,0.0,0.0,0.0,0.0,0.0,0.0,0.0,0.0,0.0,0.0,0.0,0.0,0.0,0.0,0.0,0.0,0.0,0.0,0.0,0.0,0.0,0.0,0.0,0.0,0.0,0.0,0.0,0.0,0.0,0.0,0.0,0.0,0.0,0.0,0.0,0.0,0.0,0.0,0.0,0.0,0.0,0.0,0.0,0.0,0.0,0.0,0.0,0.0,0.0,0.0,0.0,0.0,0.0,0.0,0.0,0.0,0.0,0.0,0.0,0.0,0.0,0.0,0.0,0.0,0.0,0.0,0.0,0.0,0.0,0.0,0.0,0.0,0.0,0.0,0.0,0.0,0.0,0.0,0.0,0.0,0.0,0.0,0.0,0.0,0.0,0.0,0.0,0.0,0.0,0.0,0.0,0.0,0.0,0.0,0.0,0.0,0.0,0.0,0.0,0.0,0.0,0.0,0.0,0.0,0.0,0.0,0.0,0.0,0.0,0.0,0.0,0.0,0.0,0.0,0.0,0.0,0.0,0.0,0.0,0.0,0.0,0.0,0.0,0.0,0.0,0.0,0.0,0.0,0.0,0.0,0.0,0.0,0.0,0.0,0.0,0.0,0.0,0.0,0.0,0.0,0.0,0.0,0.0,0.0,0.0,0.0,0.0,0.0,0.0,0.0,0.0,0.0,0.0,0.0,0.0,0.0,0.0,0.0,0.0,0.0,0.0,0.0,0.0,0.0,0.0,0.0,0.0,0.0,0.0,0.0,0.0,0.0,0.0,0.0,0.0,0.0,0.0,0.0,0.0,0.0,0.0,0.0,0.0,0.0,0.0,0.0,0.0,0.0,0.0,0.0,0.0,0.0,0.0,0.0,0.0,0.0,0.0,0.0,0.0,0.0,0.0,0.0,0.0,0.0,0.0,0.0,0.0,0.0,0.0,0.0,0.0,0.0,0.0,0.0,0.0,0.0,0.0,0.0,0.0,0.0,0.0,0.0,0.0,0.0,0.0,0.0,0.0,0.0,0.0,0.0,0.0,0.0,0.0,0.0,0.0,0.0,0.0,0.0,0.0,0.0,0.0,0.0,0.0,0.0,0.0,0.0,0.0,0.0,0.0,0.0,0.0,0.0,0.0,0.0,0.0,0.0,0.0,0.0,0.0,0.0,0.0,0.0,0.0,0.0,0.0,0.0,0.0,0.0,0.0,0.0,0.0,0.0,0.0,0.0,0.0,0.0,0.0,0.0,0.0,0.0,0.0,0.0,0.0,0.0,0.0,0.0,0.0,0.0,0.0,0.0,0.0,0.0,0.0,0.0,0.0,0.0,0.0,0.0,0.0,0.0,0.0,0.0,0.0,0.0,0.0,0.0,0.0,0.0,0.0,0.0,0.0,0.0,0.0,0.0,0.0,0.0,0.0,0.0,0.0,0.0,0.0,0.0,0.0,0.0,0.0,0.0,0.0,0.0,0.0,0.0,0.0,0.0,0.0,0.0,0.0,0.0,0.0,0.0,0.0,0.0,0.0,0.0,0.0,0.0,0.0,0.0,0.0,0.0,0.0,0.0,0.0,0.0,0.0,0.0,0.0,0.0,0.0,0.0,0.0,0.0,0.0,0.0,0.0,0.0,0.0,0.0,0.0,0.0,0.0,0.0,0.0,0.0,0.0,0.0,0.0,0.0,0.0,0.0,0.0,0.0,0.0,0.0,0.0,0.0,0.0,0.0,0.0,0.0,0.0,0.0,0.0,0.0,0.0,0.0,0.0,0.0,0.0,0.0,0.0,0.0,0.0,0.0,0.0,0.0,0.0,0.0,0.0,0.0,0.0,0.0,0.0,0.0,0.0,0.0,0.0,0.0,0.0,0.0,0.0,0.0,0.0,0.0,0.0,0.0,0.0,0.0,0.0,0.0,0.0,0.0,0.0,0.0,0.0,0.0,0.0,0.0,0.0,0.0,0.0,0.0,0.0,0.0,0.0,0.0,0.0,0.0,0.0,0.0,0.0,0.0,0.0,0.0,0.0,0.0,0.0,0.0,0.0,0.0,0.0,0.0,0.0,0.0,0.0,0.0,0.0,0.0,0.0,0.0,0.0,0.0,0.0,0.0,0.0,0.0,0.0,0.0,0.0,0.0,0.0,0.0,0.0,0.0,0.0,0.0,0.0,0.0,0.0,0.0,0.0,0.0,0.0,0.0,0.0,0.0,0.0,0.0,0.0,0.0,0.0,0.0,0.0,0.0,0.0,0.0,0.0,0.0,0.0,0.0,0.0,0.0,0.0,0.0,0.0,0.0,0.0,0.0,0.0,0.0,0.0,0.0,0.0,0.0,0.0,0.0,0.0,0.0,0.0,0.0,0.0,0.0,0.0,0.0,0.0,0.0,0.0,0.0,0.0,0.0,0.0,0.0,0.0,0.0,0.0,0.0,0.0,0.0,0.0,0.0,0.0,0.0,0.0,0.0,0.0,0.0,0.0,0.0,0.0,0.0,0.0,0.0,0.0,0.0,0.0,0.0,0.0,0.0,0.0,0.0,0.0,0.0,0.0,0.0,0.0,0.0,0.0,0.0,0.0,0.0,0.0,0.0,0.0,0.0,0.0,0.0,0.0,0.0,0.0,0.0,0.0,0.0,0.0,0.0,0.0,0.0,0.0,0.0,0.0,0.0,0.0,0.0,0.0,0.0,0.0,0.0,0.0,0.0,0.0,0.0,0.0,0.0,0.0,0.0,0.0,0.0,0.0,0.0,0.0,0.0,0.0,0.0,0.0,0.0,0.0,0.0,0.0,0.0,0.0,0.0,0.0,0.0,0.0,0.0,0.0,0.0,0.0,0.0,0.0,0.0,0.0,0.0,0.0,0.0,0.0,0.0,0.0,0.0,0.0,0.0,0.0,0.0,0.0,0.0,0.0,0.0,0.0,0.0,0.0,0.0,0.0,0.0,0.0,0.0,0.0,0.0,0.0,0.0,0.0,0.0,0.0,0.0,0.0,0.0,0.0,0.0,0.0,0.0,0.0,0.0,0.0,0.0,0.0,0.0,0.0,0.0,0.0,0.0,0.0,0.0,0.0,0.0,0.0,0.0,0.0,0.0,0.0,0.0,0.0,0.0,0.0,0.0,0.0,0.0,0.0,0.0,0.0,0.0,0.0,0.0,0.0,0.0,0.0,0.0,0.0,0.0,0.0,0.0,0.0,0.0,0.0,0.0,0.0,0.0,0.0,0.0,0.0,0.0,0.0,0.0,0.0,0.0,0.0,0.0,0.0,0.0,0.0,0.0,0.0,0.0,0.0,0.0,0.0,0.0,0.0,0.0,0.0,0.0,0.0,0.0,0.0,0.0,0.0,0.0,0.0,0.0,0.0,0.0,0.0,0.0,0.0,0.0,0.0,0.0,0.0,0.0,0.0,0.0,0.0,0.0,0.0,0.0,0.0,0.0,0.0,0.0,0.0,0.0,0.0,0.0,0.0,0.0,0.0,0.0,0.0,0.0,0.0,0.0,0.0,0.0,0.0,0.0,0.0,0.0,0.0,0.0,0.0,0.0,0.0,0.0,0.0,0.0,0.0,0.0,0.0,0.0,0.0,0.0,0.0,0.0,0.0,0.0,0.0,0.0,0.0,0.0,0.0,0.0,0.0,0.0,0.0,0.0,0.0,0.0,0.0,0.0,0.0,0.0,0.0,0.0,0.0,0.0,0.0,0.0,0.0,0.0,0.0,0.0,0.0,0.0,0.0,0.0,0.0,0.0,0.0,0.0,0.0,0.0,0.0,0.0,0.0,0.0,0.0,0.0,0.0,0.0,0.0,0.0,0.0,0.0,0.0,0.0,0.0,0.0,-2.0593,0.0,0.0,0.0,0.0,0.0,0.0,0.0,0.0,0.0,0.0,0.0,0.0,0.0,0.0,0.0,0.0,0.0,0.0,0.0,0.0,0.0,0.0,0.0,0.0,0.0,0.0,0.0,0.0,0.0,0.0,0.0,0.0,0.0,0.0,0.0,0.0,0.0,0.0,0.0,0.0,0.0,0.0,0.0,0.0,0.0,0.0,0.0,0.0,0.0,0.0,0.0,0.0,0.0,0.0,0.0,0.0,0.0,0.0,0.0,0.0,0.0,0.0,0.0,0.0,0.0,0.0,0.0,0.0,0.0,0.0,0.0,0.0,0.0,0.0,0.0,0.0,0.0,0.0,0.0,0.0,0.0,0.0,0.0,0.0,0.0,0.0,0.0,0.0,0.0,0.0,0.0,0.0,0.0,0.0,0.0,0.0,0.0,0.0,0.0,0.0,0.0,0.0,0.0,0.0,0.0,0.0,0.0,0.0,0.0,0.0,-2.0987,-2.0509,-2.0509,-2.0511,-2.0538,0.0,0.0,0.0,0.0,0.0,0.0,0.0,0.0,0.0,0.0,0.0,0.0,0.0,0.0,0.0,0.0,0.0,0.0,0.0,0.0,0.0,0.0,0.0,0.0,0.0,0.0,0.0,0.0,0.0,0.0,0.0,0.0,0.0,0.0,0.0,0.0,0.0,0.0,0.0,0.0,0.0,0.0,0.0,0.0,0.0,0.0,0.0,0.0,0.0,0.0,0.0,0.0,0.0,0.0,0.0,0.0,0.0,0.0,0.0,0.0,0.0,0.0,0.0,0.0,0.0,0.0,0.0,0.0,0.0,0.0,0.0,0.0,0.0,0.0,0.0,0.0,0.0,0.0,0.0,0.0,0.0,0.0,0.0,0.0,0.0,0.0,0.0,0.0,0.0,0.0,0.0,0.0,0.0,0.0,0.0,0.0,0.0,0.0,0.0,0.0,0.0,0.0,0.0,0.0,0.0,0.0,0.0,0.0,0.0,0.0,0.0,0.0,-2.0958,-2.0981,-2.0809,0.0,0.0,0.0,0.0,0.0,0.0,0.0,0.0,0.0,0.0,0.0,0.0,0.0,0.0,0.0,0.0,0.0,0.0,0.0,0.0,0.0,0.0,0.0,0.0,0.0,0.0,0.0,0.0,0.0,0.0,0.0,0.0,0.0,0.0,0.0,0.0,0.0,0.0,0.0,0.0,0.0,0.0,0.0,0.0,0.0,0.0,0.0,0.0,0.0,0.0,0.0,0.0,0.0,0.0,0.0,0.0,0.0,0.0,0.0,0.0,0.0,0.0,0.0,0.0,0.0,0.0,0.0,0.0,0.0,0.0,0.0,0.0,0.0,0.0,0.0,0.0,0.0,0.0,0.0,0.0,0.0,0.0,0.0,0.0,0.0,0.0,0.0,0.0,0.0,0.0,0.0,0.0,0.0,0.0,0.0,0.0,0.0,0.0,0.0,0.0,0.0,0.0,0.0,0.0,0.0,0.0,0.0,0.0,0.0,0.0,-2.2513,-2.1737,-2.2375,0.0,-2.1717,0.0,0.0,0.0,0.0,0.0,0.0,0.0,0.0,0.0,0.0,0.0,0.0,0.0,0.0,0.0,0.0,0.0,0.0,0.0,0.0,0.0,0.0,0.0,0.0,0.0,0.0,0.0,0.0,0.0,0.0,0.0,0.0,0.0,0.0,0.0,0.0,0.0,0.0,0.0,0.0,0.0,0.0,0.0,0.0,0.0,0.0,0.0,0.0,0.0,0.0,0.0,0.0,0.0,0.0,0.0,0.0,0.0,0.0,0.0,0.0,0.0,0.0,0.0,0.0,0.0,0.0,0.0,0.0,0.0,0.0,0.0,0.0,0.0,0.0,0.0,0.0,0.0,0.0,0.0,0.0,0.0,0.0,0.0,0.0,0.0,0.0,0.0,0.0,0.0,0.0,0.0,0.0,0.0,0.0,0.0,0.0,0.0,0.0,0.0,0.0,0.0,0.0,0.0,0.0,0.0,0.0,0.0,0.0,0.0,0.0,-2.3373,-2.2528,-2.2839,-2.2844,0.0,0.0,0.0,0.0,0.0,0.0,0.0,0.0,0.0,0.0,0.0,0.0,0.0,0.0,0.0,0.0,0.0,0.0,0.0,0.0,0.0,0.0,0.0,0.0,0.0,0.0,0.0,0.0,0.0,0.0,0.0,0.0,0.0,0.0,0.0,0.0,0.0,0.0,0.0,0.0,0.0,0.0,0.0,0.0,0.0,0.0,0.0,0.0,0.0,0.0,0.0,0.0,0.0,0.0,0.0,0.0,0.0,0.0,0.0,0.0,0.0,0.0,0.0,0.0,0.0,0.0,0.0,0.0,0.0,0.0,0.0,0.0,0.0,0.0,0.0,0.0,0.0,0.0,0.0,0.0,0.0,0.0,0.0,0.0,0.0,0.0,0.0,0.0,0.0,0.0,0.0,0.0,0.0,0.0,0.0,0.0,0.0,0.0,0.0,0.0,0.0,0.0,0.0,0.0,0.0,0.0,0.0,0.0,0.0,0.0,-2.4663,-2.4358,-2.3736,-2.324,-2.3073,-2.3331,0.0,0.0,0.0,0.0,0.0,0.0,0.0,0.0,0.0,0.0,0.0,0.0,0.0,0.0,0.0,0.0,0.0,0.0,0.0,0.0,0.0,0.0,0.0,0.0,0.0,0.0,0.0,0.0,0.0,0.0,0.0,0.0,0.0,0.0,0.0,0.0,0.0,0.0,0.0,0.0,0.0,0.0,0.0,0.0,0.0,0.0,0.0,0.0,0.0,0.0,0.0,0.0,0.0,0.0,0.0,0.0,0.0,0.0,0.0,0.0,0.0,0.0,0.0,0.0,0.0,0.0,0.0,0.0,0.0,0.0,0.0,0.0,0.0,0.0,0.0,0.0,0.0,0.0,0.0,0.0,0.0,0.0,0.0,0.0,0.0,0.0,0.0,0.0,0.0,0.0,0.0,0.0,0.0,0.0,0.0,0.0,0.0,0.0,0.0,0.0,0.0,0.0,0.0,0.0,0.0,0.0,0.0,0.0,-2.5543,-2.5523,-2.5523,-2.5407,-2.3806,-2.3308,0.0,0.0,0.0,0.0,0.0,0.0,0.0,0.0,0.0,0.0,0.0,0.0,0.0,0.0,0.0,0.0,0.0,0.0,0.0,0.0,0.0,0.0,0.0,0.0,0.0,0.0,0.0,0.0,0.0,0.0,0.0,0.0,0.0,0.0,0.0,0.0,0.0,0.0,0.0,0.0,0.0,0.0,0.0,0.0,0.0,0.0,0.0,0.0,0.0,0.0,0.0,0.0,0.0,0.0,0.0,0.0,0.0,0.0,0.0,0.0,0.0,0.0,0.0,0.0,0.0,0.0,0.0,0.0,0.0,0.0,0.0,0.0,0.0,0.0,0.0,0.0,0.0,0.0,0.0,0.0,0.0,0.0,0.0,0.0,0.0,0.0,0.0,0.0,0.0,0.0,0.0,0.0,0.0,0.0,0.0,0.0,0.0,0.0,0.0,0.0,0.0,0.0,0.0,0.0,0.0,0.0,0.0,0.0,0.0,-2.5601,-2.5601,-2.5601,-2.5582,-2.4962,-2.4775,0.0,0.0,0.0,0.0,0.0,0.0,0.0,0.0,0.0,0.0,0.0,0.0,0.0,0.0,0.0,0.0,0.0,0.0,0.0,0.0,0.0,0.0,0.0,0.0,0.0,0.0,0.0,0.0,0.0,0.0,0.0,0.0,0.0,0.0,0.0,0.0,0.0,0.0,0.0,0.0,0.0,0.0,0.0,0.0,0.0,0.0,0.0,0.0,0.0,0.0,0.0,0.0,0.0,0.0,0.0,0.0,0.0,0.0,0.0,0.0,0.0,0.0,0.0,0.0,0.0,0.0,0.0,0.0,0.0,0.0,0.0,0.0,0.0,0.0,0.0,0.0,0.0,0.0,0.0,0.0,0.0,0.0,0.0,0.0,0.0,0.0,0.0,0.0,0.0,0.0,0.0,0.0,0.0,0.0,0.0,0.0,0.0,0.0,0.0,0.0,0.0,0.0,0.0,0.0,0.0,0.0,0.0,0.0,0.0,-2.5601,0.0,-2.5601,-2.5601,-2.5564,-2.5577,0.0,0.0,0.0,0.0,0.0,0.0,0.0,0.0,0.0,0.0,0.0,0.0,0.0,0.0,0.0,0.0,0.0,0.0,0.0,0.0,0.0,0.0,0.0,0.0,0.0,0.0,0.0,0.0,0.0,0.0,0.0,0.0,0.0,0.0,0.0,0.0,0.0,0.0,0.0,0.0,0.0,0.0,0.0,0.0,0.0,0.0,0.0,0.0,0.0,0.0,0.0,0.0,0.0,0.0,0.0,0.0,0.0,0.0,0.0,0.0,0.0,0.0,0.0,0.0,0.0,0.0,0.0,0.0,0.0,0.0,0.0,0.0,0.0,0.0,0.0,0.0,0.0,0.0,0.0,0.0,0.0,0.0,0.0,0.0,0.0,0.0,0.0,0.0,0.0,0.0,0.0,0.0,0.0,0.0,0.0,0.0,0.0,0.0,0.0,0.0,0.0,0.0,0.0,0.0,0.0,0.0,0.0,0.0,-2.564,-2.5601,-2.5601,-2.5601,-2.5601,-2.555,-2.5522,0.0,0.0,0.0,0.0,0.0,0.0,0.0,0.0,0.0,0.0,0.0,0.0,0.0,0.0,0.0,0.0,0.0,0.0,0.0,0.0,0.0,0.0,0.0,0.0,0.0,0.0,0.0,0.0,0.0,0.0,0.0,0.0,0.0,0.0,0.0,0.0,0.0,0.0,0.0,0.0,0.0,0.0,0.0,0.0,0.0,0.0,0.0,0.0,0.0,0.0,0.0,0.0,0.0,0.0,0.0,0.0,0.0,0.0,0.0,0.0,0.0,0.0,0.0,0.0,0.0,0.0,0.0,0.0,0.0,0.0,0.0,0.0,0.0,0.0,0.0,0.0,0.0,0.0,0.0,0.0,0.0,0.0,0.0,0.0,0.0,0.0,0.0,0.0,0.0,0.0,0.0,0.0,0.0,0.0,0.0,0.0,0.0,0.0,0.0,0.0,0.0,0.0,0.0,0.0,0.0,0.0,0.0,0.0,0.0,-2.564,-2.5601,-2.5601,-2.5601,-2.5583,-2.5577,0.0,0.0,0.0,0.0,0.0,0.0,0.0,0.0,0.0,0.0,0.0,0.0,0.0,0.0,0.0,0.0,0.0,0.0,0.0,0.0,0.0,0.0,0.0,0.0,0.0,0.0,0.0,0.0,0.0,0.0,0.0,0.0,0.0,0.0,0.0,0.0,0.0,0.0,0.0,0.0,0.0,0.0,0.0,0.0,0.0,0.0,0.0,0.0,0.0,0.0,0.0,0.0,0.0,0.0,0.0,0.0,0.0,0.0,0.0,0.0,0.0,0.0,0.0,0.0,0.0,0.0,0.0,0.0,0.0,0.0,0.0,0.0,0.0,0.0,0.0,0.0,0.0,0.0,0.0,0.0,0.0,0.0,0.0,0.0,0.0,0.0,0.0,0.0,0.0,0.0,0.0,0.0,0.0,0.0,0.0,0.0,0.0,0.0,0.0,0.0,0.0,0.0,0.0,0.0,0.0,0.0,0.0,0.0,0.0,-2.6566,-2.6242,-2.5931,-2.5601,-2.5583,-2.5551,-2.5551,0.0,0.0,0.0,0.0,0.0,0.0,0.0,0.0,0.0,0.0,0.0,0.0,0.0,0.0,0.0,0.0,0.0,0.0,0.0,0.0,0.0,0.0,0.0,0.0,0.0,0.0,0.0,0.0,0.0,0.0,0.0,0.0,0.0,0.0,0.0,0.0,0.0,0.0,0.0,0.0,0.0,0.0,0.0,0.0,0.0,0.0,0.0,0.0,0.0,0.0,0.0,0.0,0.0,0.0,0.0,0.0,0.0,0.0,0.0,0.0,0.0,0.0,0.0,0.0,0.0,0.0,0.0,0.0,0.0,0.0,0.0,0.0,0.0,0.0,0.0,0.0,0.0,0.0,0.0,0.0,0.0,0.0,0.0,0.0,0.0,0.0,0.0,0.0,0.0,0.0,0.0,0.0,0.0,0.0,0.0,0.0,0.0,0.0,0.0,0.0,0.0,0.0,0.0,0.0,0.0,0.0,0.0,0.0,-2.8178,-2.7427,-2.6631,-2.5776,-2.5725,-2.5657,0.0,0.0,0.0,0.0,0.0,0.0,0.0,0.0,0.0,0.0,0.0,0.0,0.0,0.0,0.0,0.0,0.0,0.0,0.0,0.0,0.0,0.0,0.0,0.0,0.0,0.0,0.0,0.0,0.0,0.0,0.0,0.0,0.0,0.0,0.0,0.0,0.0,0.0,0.0,0.0,0.0,0.0,0.0,0.0,0.0,0.0,0.0,0.0,0.0,0.0,0.0,0.0,0.0,0.0,0.0,0.0,0.0,0.0,0.0,0.0,0.0,0.0,0.0,0.0,0.0,0.0,0.0,0.0,0.0,0.0,0.0,0.0,0.0,0.0,0.0,0.0,0.0,0.0,0.0,0.0,0.0,0.0,0.0,0.0,0.0,0.0,0.0,0.0,0.0,0.0,0.0,0.0,0.0,0.0,0.0,0.0,0.0,0.0,0.0,0.0,0.0,0.0,0.0,0.0,0.0,0.0,0.0,0.0,0.0,-2.9097,-2.8845,-2.832,-2.7479,-2.7427,-2.7399,0.0,0.0,0.0,0.0,0.0,0.0,0.0,0.0,0.0,0.0,0.0,0.0,0.0,0.0,0.0,0.0,0.0,0.0,0.0,0.0,0.0,0.0,0.0,0.0,0.0,0.0,0.0,0.0,0.0,0.0,0.0,0.0,0.0,0.0,0.0,0.0,0.0,0.0,0.0,0.0,0.0,0.0,0.0,0.0,0.0,0.0,0.0,0.0,0.0,0.0,0.0,0.0,0.0,0.0,0.0,0.0,0.0,0.0,0.0,0.0,0.0,0.0,0.0,0.0,0.0,0.0,0.0,0.0,0.0,0.0,0.0,0.0,0.0,0.0,0.0,0.0,0.0,0.0,0.0,0.0,0.0,0.0,0.0,0.0,0.0,0.0,0.0,0.0,0.0,0.0,0.0,0.0,0.0,0.0,0.0,0.0,0.0,0.0,0.0,0.0,0.0,0.0,0.0,0.0,0.0,0.0,0.0,0.0,-3.0278,-2.9829,-2.9838,-2.9577,-2.9074,-2.8377,-2.8008,0.0,0.0,0.0,0.0,0.0,0.0,0.0,0.0,0.0,0.0,0.0,0.0,0.0,0.0,0.0,0.0,0.0,0.0,0.0,0.0,0.0,0.0,0.0,0.0,0.0,0.0,0.0,0.0,0.0,0.0,0.0,0.0,0.0,0.0,0.0,0.0,0.0,0.0,0.0,0.0,0.0,0.0,0.0,0.0,0.0,0.0,0.0,0.0,0.0,0.0,0.0,0.0,0.0,0.0,0.0,0.0,0.0,0.0,0.0,0.0,0.0,0.0,0.0,0.0,0.0,0.0,0.0,0.0,0.0,0.0,0.0,0.0,0.0,0.0,0.0,0.0,0.0,0.0,0.0,0.0,0.0,0.0,0.0,0.0,0.0,0.0,0.0,0.0,0.0,0.0,0.0,0.0,0.0,0.0,0.0,0.0,0.0,0.0,0.0,0.0,0.0,0.0,0.0,0.0,0.0,0.0,0.0,0.0,-3.0423,-3.0414,-3.0433,-3.0423,-3.0384,-2.8946,-2.8183,0.0,0.0,0.0,0.0,0.0,0.0,0.0,0.0,0.0,0.0,0.0,0.0,0.0,0.0,0.0,0.0,0.0,0.0,0.0,0.0,0.0,0.0,0.0,0.0,0.0,0.0,0.0,0.0,0.0,0.0,0.0,0.0,0.0,0.0,0.0,0.0,0.0,0.0,0.0,0.0,0.0,0.0,0.0,0.0,0.0,0.0,0.0,0.0,0.0,0.0,0.0,0.0,0.0,0.0,0.0,0.0,0.0,0.0,0.0,0.0,0.0,0.0,0.0,0.0,0.0,0.0,0.0,0.0,0.0,0.0,0.0,0.0,0.0,0.0,0.0,0.0,0.0,0.0,0.0,0.0,0.0,0.0,0.0,0.0,0.0,0.0,0.0,0.0,0.0,0.0,0.0,0.0,0.0,0.0,0.0,0.0,0.0,0.0,0.0,0.0,0.0,0.0,0.0,0.0,0.0,0.0,0.0,0.0,-3.0585,-3.0634,-3.0634,-3.0591,-3.0558,-3.0115,-2.9841,0.0,0.0,0.0,0.0,0.0,0.0,0.0,0.0,0.0,0.0,0.0,0.0,0.0,0.0,0.0,0.0,0.0,0.0,0.0,0.0,0.0,0.0,0.0,0.0,0.0,0.0,0.0,0.0,0.0,0.0,0.0,0.0,0.0,0.0,0.0,0.0,0.0,0.0,0.0,0.0,0.0,0.0,0.0,0.0,0.0,0.0,0.0,0.0,-2.3119,0.0,0.0,0.0,0.0,0.0,0.0,0.0,0.0,0.0,0.0,0.0,0.0,0.0,0.0,0.0,0.0,0.0,0.0,0.0,0.0,0.0,0.0,0.0,0.0,0.0,0.0,0.0,0.0,0.0,0.0,0.0,0.0,0.0,0.0,0.0,0.0,0.0,0.0,0.0,0.0,0.0,0.0,0.0,0.0,0.0,0.0,0.0,0.0,0.0,0.0,0.0,0.0,0.0,0.0,0.0,0.0,0.0,0.0,0.0,-3.0471,-3.0462,-3.0462,-3.0451,-3.0451,-3.0364,-3.0309,0.0,0.0,0.0,0.0,0.0,0.0,0.0,0.0,0.0,0.0,0.0,0.0,0.0,0.0,0.0,0.0,0.0,0.0,0.0,0.0,0.0,0.0,0.0,0.0,0.0,0.0,0.0,0.0,0.0,0.0,0.0,0.0,0.0,0.0,0.0,0.0,0.0,0.0,0.0,0.0,0.0,0.0,0.0,0.0,0.0,0.0,0.0,0.0,0.0,0.0,0.0,0.0,0.0,0.0,0.0,0.0,0.0,0.0,0.0,0.0,0.0,0.0,0.0,0.0,0.0,0.0,0.0,0.0,0.0,0.0,0.0,0.0,0.0,0.0,0.0,0.0,0.0,0.0,0.0,0.0,0.0,0.0,0.0,0.0,0.0,0.0,0.0,0.0,0.0,0.0,0.0,0.0,0.0,0.0,0.0,0.0,0.0,0.0,0.0,0.0,0.0,0.0,0.0,0.0,0.0,0.0,0.0,-3.0273,-3.0286,-3.0213,-3.0226,-3.0247,-3.0273,-3.0234,-3.0254,-3.0337,0.0,0.0,0.0,0.0,0.0,0.0,0.0,0.0,0.0,0.0,0.0,0.0,0.0,0.0,0.0,0.0,0.0,0.0,0.0,0.0,0.0,0.0,0.0,0.0,0.0,0.0,0.0,0.0,0.0,0.0,0.0,0.0,0.0,0.0,0.0,0.0,0.0,0.0,-2.3126,-2.3119,0.0,0.0,0.0,0.0,0.0,0.0,0.0,0.0,-2.3119,0.0,0.0,0.0,0.0,0.0,0.0,0.0,0.0,0.0,0.0,0.0,0.0,0.0,0.0,0.0,0.0,0.0,0.0,0.0,0.0,0.0,0.0,0.0,0.0,0.0,0.0,0.0,0.0,0.0,0.0,0.0,0.0,0.0,0.0,0.0,0.0,0.0,0.0,0.0,0.0,0.0,0.0,0.0,0.0,0.0,0.0,0.0,0.0,0.0,0.0,0.0,0.0,0.0,0.0,0.0,0.0,-3.0221,-3.0267,-3.026,-3.0222,-3.0314,-3.0314,-3.0222,-3.0267,-3.0247,-3.0138,0.0,0.0,0.0,0.0,0.0,0.0,0.0,0.0,0.0,0.0,0.0,0.0,0.0,0.0,0.0,0.0,0.0,0.0,0.0,0.0,0.0,0.0,0.0,0.0,0.0,0.0,0.0,0.0,0.0,0.0,0.0,0.0,0.0,0.0,0.0,0.0,0.0,0.0,0.0,-2.3119,-2.3119,0.0,0.0,0.0,0.0,0.0,0.0,0.0,0.0,-2.3119,0.0,0.0,0.0,0.0,0.0,0.0,0.0,0.0,0.0,0.0,0.0,0.0,0.0,0.0,0.0,0.0,0.0,0.0,0.0,0.0,0.0,0.0,0.0,0.0,0.0,0.0,0.0,0.0,0.0,0.0,0.0,0.0,0.0,0.0,0.0,0.0,0.0,0.0,0.0,0.0,0.0,0.0,0.0,0.0,0.0,0.0,0.0,0.0,0.0,0.0,0.0,0.0,0.0,0.0,0.0,-3.0152,-3.0215,-3.0202,-3.0071,-3.0109,-3.0155,-3.0147,-3.0099,-3.0056,0.0,0.0,0.0,0.0,0.0,0.0,0.0,0.0,0.0,0.0,0.0,0.0,0.0,0.0,0.0,0.0,0.0,0.0,0.0,0.0,0.0,0.0,0.0,0.0,0.0,0.0,0.0,0.0,0.0,0.0,0.0,0.0,0.0,0.0,0.0,0.0,0.0,0.0,0.0,0.0,-2.3453,-2.3716,-2.3716,0.0,0.0,0.0,0.0,0.0,0.0,-2.4295,-2.4295,0.0,0.0,0.0,0.0,0.0,0.0,0.0,0.0,0.0,0.0,0.0,0.0,0.0,0.0,0.0,0.0,0.0,0.0,0.0,0.0,0.0,0.0,0.0,0.0,0.0,0.0,0.0,0.0,0.0,0.0,0.0,0.0,0.0,0.0,0.0,0.0,0.0,0.0,0.0,0.0,0.0,0.0,0.0,0.0,0.0,0.0,0.0,0.0,0.0,0.0,0.0,0.0,0.0,0.0,0.0,-3.0551,-3.0605,-3.0556,-3.0366,-3.0383,-3.0449,-3.0548,-3.0449,-3.0397,0.0,0.0,0.0,0.0,0.0,0.0,0.0,0.0,0.0,0.0,0.0,0.0,0.0,0.0,0.0,0.0,0.0,0.0,0.0,0.0,0.0,0.0,0.0,0.0,0.0,0.0,0.0,0.0,0.0,0.0,0.0,0.0,0.0,0.0,0.0,0.0,0.0,0.0,0.0,0.0,0.0,-2.4356,-2.4497,-2.4532,0.0,0.0,0.0,0.0,-2.5314,-2.5401,0.0,0.0,0.0,0.0,0.0,0.0,0.0,0.0,0.0,0.0,0.0,0.0,0.0,0.0,0.0,0.0,0.0,0.0,0.0,0.0,0.0,0.0,0.0,0.0,0.0,0.0,0.0,0.0,0.0,0.0,0.0,0.0,0.0,0.0,0.0,0.0,0.0,0.0,0.0,0.0,0.0,0.0,0.0,0.0,0.0,0.0,0.0,0.0,0.0,0.0,0.0,0.0,0.0,0.0,0.0,0.0,-3.2071,-3.2106,-3.2032,-3.1863,-3.1996,-3.2107,-3.2052,-3.2107,-3.2088,0.0,0.0,0.0,0.0,0.0,0.0,0.0,0.0,0.0,0.0,0.0,0.0,0.0,0.0,0.0,0.0,0.0,0.0,0.0,0.0,0.0,0.0,0.0,0.0,0.0,0.0,0.0,0.0,0.0,0.0,0.0,0.0,0.0,0.0,0.0,0.0,0.0,0.0,0.0,0.0,0.0,-2.455,-2.5191,-2.5279,-2.5314,0.0,0.0,-2.5296,-2.5384,-2.5401,0.0,0.0,0.0,0.0,0.0,0.0,0.0,0.0,0.0,0.0,0.0,0.0,0.0,0.0,0.0,0.0,0.0,0.0,0.0,0.0,0.0,0.0,0.0,0.0,0.0,0.0,0.0,0.0,0.0,0.0,0.0,0.0,0.0,0.0,0.0,0.0,0.0,0.0,0.0,0.0,0.0,0.0,0.0,0.0,0.0,0.0,0.0,0.0,0.0,0.0,0.0,0.0,0.0,0.0,0.0,-3.2547,-3.2317,-3.2406,-3.2334,-3.2125,-3.2184,-3.2203,-3.2202,-3.2203,-3.2203,0.0,0.0,0.0,0.0,0.0,0.0,0.0,0.0,0.0,0.0,0.0,0.0,0.0,0.0,0.0,0.0,0.0,0.0,0.0,0.0,0.0,0.0,0.0,0.0,0.0,0.0,0.0,0.0,0.0,0.0,0.0,0.0,0.0,0.0,0.0,0.0,0.0,0.0,0.0,0.0,0.0,0.0,-2.6051,-2.6086,0.0,0.0,0.0,-2.6226,-2.6648,0.0,0.0,0.0,0.0,0.0,0.0,0.0,0.0,0.0,0.0,0.0,0.0,0.0,0.0,0.0,0.0,0.0,0.0,0.0,0.0,0.0,0.0,0.0,0.0,0.0,0.0,0.0,0.0,0.0,0.0,0.0,0.0,0.0,0.0,0.0,0.0,0.0,0.0,0.0,0.0,0.0,0.0,0.0,0.0,0.0,0.0,0.0,0.0,0.0,0.0,0.0,0.0,0.0,0.0,0.0,0.0,0.0,-3.2882,-3.2976,-3.2921,-3.2745,-3.2724,-3.2743,-3.2724,-3.2743,0.0,0.0,0.0,0.0,0.0,0.0,0.0,0.0,0.0,0.0,0.0,0.0,0.0,0.0,0.0,0.0,0.0,0.0,0.0,0.0,0.0,0.0,0.0,0.0,0.0,0.0,0.0,-2.6594,0.0,0.0,0.0,0.0,0.0,0.0,0.0,0.0,0.0,0.0,0.0,0.0,0.0,0.0,-2.6665,-2.6858,-2.6876,-2.7069,0.0,0.0,-2.7069,-2.7613,-2.7701,-2.7701,0.0,0.0,0.0,0.0,0.0,0.0,0.0,0.0,0.0,0.0,0.0,0.0,0.0,0.0,0.0,0.0,0.0,0.0,0.0,0.0,0.0,0.0,0.0,0.0,0.0,0.0,0.0,0.0,0.0,0.0,0.0,0.0,0.0,0.0,0.0,0.0,0.0,0.0,0.0,0.0,0.0,0.0,0.0,0.0,0.0,0.0,0.0,0.0,0.0,0.0,0.0,0.0,0.0,0.0,0.0,-3.4454,-3.4475,-3.4438,-3.4433,-3.4433,-3.4414,-3.4433,-3.4433,-3.4395,0.0,0.0,0.0,0.0,0.0,0.0,0.0,0.0,0.0,0.0,0.0,0.0,0.0,0.0,0.0,0.0,0.0,0.0,0.0,0.0,0.0,0.0,0.0,0.0,0.0,0.0,0.0,0.0,0.0,0.0,0.0,0.0,0.0,0.0,0.0,0.0,0.0,0.0,0.0,0.0,0.0,-2.6858,-2.7526,-2.7613,-2.7631,0.0,0.0,-2.7648,-2.7683,-2.7701,-2.7701,-2.7701,0.0,0.0,0.0,0.0,0.0,0.0,0.0,0.0,0.0,0.0,0.0,0.0,0.0,0.0,0.0,0.0,0.0,0.0,0.0,0.0,0.0,0.0,0.0,0.0,0.0,0.0,0.0,0.0,0.0,0.0,0.0,0.0,0.0,0.0,0.0,0.0,0.0,0.0,0.0,0.0,0.0,0.0,0.0,0.0,0.0,0.0,0.0,0.0,0.0,0.0,0.0,0.0,0.0,-3.479,-3.4623,-3.473,-3.473,-3.4623,-3.4602,-3.4602,-3.4602,-3.4602,-3.4602,0.0,0.0,0.0,0.0,0.0,0.0,0.0,0.0,0.0,0.0,0.0,0.0,0.0,0.0,0.0,0.0,0.0,0.0,0.0,0.0,0.0,0.0,0.0,0.0,0.0,0.0,0.0,0.0,-2.8172,-2.7999,-2.7579,0.0,0.0,0.0,0.0,0.0,0.0,0.0,0.0,0.0,0.0,-2.7385,-2.7666,-2.7701,0.0,0.0,-2.7701,-2.7701,-2.7701,-2.7701,-2.7701,-2.7701,-2.7701,0.0,0.0,0.0,0.0,0.0,0.0,0.0,0.0,0.0,0.0,0.0,0.0,0.0,0.0,0.0,0.0,0.0,0.0,0.0,0.0,0.0,0.0,0.0,0.0,0.0,0.0,0.0,0.0,0.0,0.0,0.0,0.0,0.0,0.0,0.0,0.0,0.0,0.0,0.0,0.0,0.0,0.0,0.0,0.0,0.0,0.0,0.0,0.0,0.0,0.0,0.0,0.0,-3.4812,-3.4708,-3.487,-3.4908,-3.4753,-3.4753,-3.4753,-3.4753,-3.4753,-3.4732,0.0,0.0,0.0,0.0,0.0,0.0,0.0,0.0,0.0,0.0,0.0,0.0,0.0,0.0,0.0,0.0,0.0,0.0,0.0,0.0,0.0,0.0,0.0,0.0,0.0,0.0,0.0,0.0,-2.9021,-2.8815,-2.837,0.0,0.0,0.0,0.0,0.0,0.0,0.0,0.0,0.0,0.0,-2.7701,-2.7701,-2.7701,-2.7701,-2.7701,-2.7701,-2.7701,-2.7701,-2.7701,-2.7701,-2.7701,0.0,0.0,0.0,0.0,0.0,0.0,0.0,0.0,0.0,0.0,0.0,0.0,0.0,0.0,0.0,0.0,0.0,0.0,0.0,0.0,0.0,0.0,0.0,0.0,0.0,0.0,0.0,0.0,0.0,0.0,-3.2482,0.0,0.0,0.0,0.0,0.0,0.0,0.0,0.0,0.0,0.0,0.0,0.0,0.0,0.0,0.0,0.0,0.0,0.0,0.0,0.0,0.0,0.0,-3.4908,-3.4889,-3.5032,-3.5098,-3.5081,-3.5098,-3.5081,-3.5081,-3.5098,-3.5032,-3.4889,0.0,0.0,0.0,0.0,0.0,0.0,0.0,0.0,0.0,0.0,0.0,0.0,0.0,0.0,0.0,0.0,0.0,0.0,0.0,0.0,0.0,0.0,0.0,0.0,0.0,0.0,-2.9112,-2.8863,-2.8594,0.0,0.0,0.0,0.0,0.0,0.0,0.0,0.0,0.0,0.0,-2.7701,-2.7701,-2.7701,-2.7701,-2.7736,-2.7736,-2.7736,-2.7736,-2.7754,-2.7736,-2.7701,0.0,0.0,0.0,0.0,0.0,0.0,0.0,0.0,0.0,0.0,0.0,0.0,0.0,0.0,0.0,0.0,0.0,0.0,0.0,0.0,0.0,0.0,0.0,0.0,0.0,0.0,0.0,-3.4381,-3.4381,0.0,0.0,0.0,0.0,0.0,0.0,0.0,0.0,0.0,0.0,0.0,-3.5181,-3.5162,0.0,0.0,0.0,0.0,0.0,0.0,0.0,0.0,0.0,0.0,0.0,0.0,-3.4945,-3.5032,-3.5081,-3.5098,-3.5098,-3.5098,-3.5098,-3.5098,-3.5098,-3.5081,-3.5032,0.0,0.0,0.0,0.0,0.0,0.0,0.0,0.0,0.0,0.0,0.0,0.0,0.0,0.0,0.0,0.0,0.0,0.0,0.0,0.0,0.0,0.0,0.0,0.0,0.0,-2.9126,0.0,0.0,0.0,0.0,0.0,0.0,0.0,0.0,0.0,0.0,0.0,-2.7897,-2.773,-2.784,-2.7897,-2.7713,-2.8157,-2.8491,0.0,0.0,0.0,0.0,0.0,0.0,0.0,0.0,0.0,0.0,0.0,0.0,0.0,0.0,-2.9299,-2.9299,-2.9299,-2.925,-2.9183,0.0,0.0,0.0,0.0,0.0,0.0,0.0,0.0,0.0,0.0,0.0,0.0,0.0,0.0,-3.5315,0.0,-3.5235,0.0,0.0,0.0,0.0,0.0,0.0,0.0,0.0,-3.5258,-3.5283,-3.5264,-3.5264,-3.5278,0.0,-3.5306,-3.5254,0.0,0.0,0.0,0.0,0.0,0.0,0.0,0.0,-3.5136,-3.5193,-3.5273,-3.5302,-3.5302,-3.5302,-3.5321,-3.5321,-3.5243,-3.5212,-3.5193,-3.5146,-3.503,0.0,0.0,0.0,0.0,0.0,0.0,0.0,0.0,0.0,0.0,0.0,0.0,0.0,0.0,0.0,0.0,0.0,0.0,0.0,0.0,0.0,0.0,0.0,-2.9699,0.0,0.0,0.0,0.0,0.0,0.0,0.0,0.0,0.0,-2.8091,-2.8389,-2.8586,-2.8293,-2.8649,-2.8827,-2.8587,0.0,0.0,0.0,0.0,0.0,0.0,0.0,-3.0106,-3.0106,-3.0334,-3.058,-3.0843,-3.0914,-3.0914,-3.0896,0.0,0.0,-3.0211,-3.0106,-3.0056,-3.0007,-2.9989,-2.9957,-2.9924,-2.9892,-2.9892,0.0,0.0,0.0,0.0,0.0,0.0,0.0,0.0,-3.5102,-3.5181,0.0,-3.5168,0.0,0.0,0.0,0.0,0.0,-3.5184,0.0,0.0,-3.547,-3.547,-3.5418,-3.5418,-3.5412,-3.5419,-3.5476,-3.547,-3.5405,-3.5292,0.0,0.0,0.0,0.0,0.0,0.0,-3.5405,-3.5424,-3.5608,-3.5704,-3.5704,-3.5704,-3.5704,-3.5693,-3.5509,-3.5405,-3.5405,-3.5224,-3.5047,-3.4908,-3.4927,0.0,0.0,0.0,0.0,0.0,0.0,0.0,0.0,0.0,0.0,0.0,0.0,0.0,0.0,0.0,0.0,0.0,0.0,0.0,0.0,-3.0824,0.0,0.0,0.0,0.0,0.0,0.0,0.0,0.0,0.0,0.0,-2.888,-2.9352,-2.9718,-2.9408,0.0,0.0,0.0,0.0,-3.0141,-3.0156,-3.0159,-3.0194,-3.0211,-3.0194,-3.0211,-3.0211,0.0,0.0,-3.2248,-3.2388,-3.2353,-3.2388,-3.2318,-3.1932,-3.0475,-3.0264,-3.0264,-3.0229,-3.0282,-3.0194,-3.0194,-3.0302,-3.0249,-3.6385,0.0,0.0,0.0,0.0,-3.5212,-3.5297,-3.5393,-3.5502,-3.5538,-3.5543,-3.5432,0.0,0.0,0.0,0.0,0.0,0.0,-3.5438,-3.5469,-3.5585,-3.5658,-3.5679,-3.5699,-3.5679,-3.5689,-3.5708,-3.5699,-3.5688,-3.5667,-3.5457,-3.5095,0.0,0.0,0.0,0.0,-3.5464,-3.5589,-3.5673,-3.5704,-3.5704,-3.5704,-3.5704,-3.5704,-3.5631,-3.562,-3.562,-3.5565,-3.5383,-3.5047,-3.5162,0.0,0.0,0.0,0.0,0.0,0.0,0.0,0.0,0.0,0.0,0.0,0.0,0.0,0.0,0.0,0.0,0.0,0.0,0.0,-3.1582,-3.1582,-3.1542,0.0,0.0,0.0,0.0,0.0,0.0,0.0,0.0,0.0,-3.0932,-3.0901,-3.0823,0.0,0.0,-3.102,-3.0782,-3.1023,-3.1262,-3.1262,-3.1517,0.0,-3.1739,-3.1739,-3.1756,-3.1739,-3.1914,-3.2142,-3.2371,-3.2406,-3.2406,-3.2406,-3.2406,-3.2248,-3.1879,-3.1739,-3.1721,-3.1739,-3.1739,-3.1739,-3.1739,-3.1739,-3.1739,-3.8516,-3.7398,-3.665,-3.632,-3.6291,-3.6419,-3.6511,-3.6563,-3.6621,-3.6704,-3.6755,-3.6601,-3.6547,-3.6559,-3.6408,0.0,0.0,0.0,-3.6593,-3.6647,-3.6736,-3.6793,-3.6828,-3.6828,-3.682,-3.6792,-3.68,-3.6783,-3.6774,-3.6784,-3.6665,-3.6348,0.0,0.0,-3.5519,-3.5526,-3.557,-3.5676,-3.5715,-3.5704,-3.5704,-3.5704,-3.5704,-3.5704,-3.5704,-3.5704,-3.5704,-3.5704,-3.5553,-3.5224,-3.5239,-3.5165,0.0,0.0,0.0,0.0,0.0,0.0,0.0,0.0,0.0,0.0,0.0,-3.3663,0.0,0.0,0.0,0.0,-3.2484,-3.2614,-3.2954,-3.2649,0.0,0.0,0.0,0.0,0.0,0.0,0.0,-3.2329,-3.2567,-3.2748,-3.2748,-3.2593,-3.2293,-3.1725,-3.2041,-3.2243,-3.1955,0.0,-3.2319,-3.2319,-3.2449,-3.2557,-3.2539,-3.2473,-3.2406,-3.2406,-3.2406,-3.2406,-3.2406,-3.2406,-3.2406,-3.2406,-3.2406,-3.2406,-3.2406,-3.2406,-3.2406,-3.2406,-3.2406,-3.2406,-3.2406,-3.2406,-3.2406,-4.1102,-4.0956,-3.9255,-3.8382,-3.8155,-3.826,-3.8361,-3.841,-3.8349,-3.8427,-3.8568,-3.8326,-3.8233,-3.8216,-3.8156,0.0,-3.8216,-3.8216,-3.8258,-3.8402,-3.8402,-3.8402,-3.8402,-3.8382,-3.8373,-3.8287,-3.8307,-3.8297,-3.8267,-3.8278,-3.8297,-3.8248,-3.6697,-3.5902,-3.5922,-3.5911,-3.5901,-3.592,-3.5919,-3.5897,-3.5916,-3.5897,-3.5897,-3.5897,-3.5897,-3.5878,-3.58,-3.58,-3.5666,-3.5424,-3.5224,-3.5083,-3.4926,0.0,0.0,0.0,0.0,0.0,0.0,0.0,0.0,0.0,0.0,0.0,0.0,0.0,0.0,0.0,-3.3513,0.0,-3.4526,-3.3861,0.0,0.0,0.0,-3.2179,-3.2095,-3.2743,-3.3166,-3.3101,0.0,0.0,-3.4216,-3.4197,-3.384,-3.2849,-3.3374,-3.3734,-3.3408,-3.3325,-3.335,-3.3296,-3.3014,-3.2795,-3.2781,-3.2573,-3.2406,-3.2406,-3.2406,-3.2406,-3.2406,-3.2406,-3.2406,-3.2406,-3.2406,-3.2406,-3.2406,-3.2406,-3.2406,-3.2406,-3.2406,-3.2406,-3.2406,-3.2406,-3.2406,-4.2889,-4.284,-4.2401,-4.1429,-4.0178,-4.0208,-4.0247,-4.0257,-4.0257,-4.0257,-4.0247,-3.9607,-3.8967,-3.8364,-3.8346,-3.8346,-3.8336,-3.8297,-3.8297,-3.8336,-3.8336,-3.8326,-3.8326,-3.8326,-3.8326,-3.8297,-3.8297,-3.8297,-3.8306,-3.8297,-3.8297,-3.8287,-3.788,-3.7686,-3.7686,-3.7675,-3.7684,-3.7683,-3.7683,-3.7661,-3.7618,-3.7599,-3.7599,-3.7618,-3.7618,-3.7309,-3.6651,-3.6632,-3.6226,-3.5443,-3.5489,-3.5411,-3.5064,-3.5066,0.0,0.0,0.0,0.0,0.0,0.0,0.0,0.0,0.0,-3.4602,-3.4602,0.0,-3.432,0.0,-3.4258,-3.4311,-3.4517,-3.4282,0.0,0.0,-3.3938,-3.3803,-3.3715,-3.3902,-3.4008,-3.3924,-3.4086,-3.4216,-3.4216,-3.4216,-3.4099,-3.3864,-3.3969,-3.4055,-3.3979,-3.3797,-3.368,-3.3652,-3.3214,-3.2795,-3.2813,-3.2573,-3.2406,-3.2406,-3.2406,-3.2406,-3.2406,-3.2406,-3.2406,-3.2406,-3.2406,-3.2406,-3.2406,-3.2406,-3.2406,-3.2406,-3.2406,-3.2406,-3.2406,-3.2406,-3.2406,-4.4967,-4.4617,-4.4617,-4.4054,-4.3102,-4.2384,-4.2073,-4.2073,-4.1994,-4.2004,-4.2034,-4.1568,-4.1102,-4.0694,-4.0674,-4.0674,-4.0674,-4.0636,-4.0636,-4.0626,-4.0597,-4.0606,-4.0576,-4.0576,-4.0565,-4.0555,-4.0186,-3.9993,-3.9973,-3.9605,-3.9392,-3.9411,-3.9411,-3.9411,-3.9372,-3.8664,-3.8255,-3.8244,-3.8252,-3.823,-3.8218,-3.8218,-3.8218,-3.8218,-3.8218,-3.7967,-3.7502,-3.7483,-3.7216,-3.6691,-3.6665,-3.6408,-3.5852,-3.5799,-3.5534,0.0,0.0,0.0,0.0,0.0,0.0,0.0,0.0,0.0,0.0,0.0,-3.4602,-3.4602,-3.4558,-3.4476,-3.4476,-3.4427,-3.4358,-3.434,-3.4316,-3.4293,-3.4245,-3.4245,-3.4245,-3.4197,-3.4216,-3.4216,-3.4216,-3.4216,-3.4216,-3.4216,-3.4216,-3.4216,-3.4197,-3.4092,-3.3972,-3.3954,-3.356,-3.3184,-3.3063,-3.2784,-3.259,-3.2573,-3.2491,-3.2406,-3.2406,-3.2406,-3.2406,-3.2406,-3.2406,-3.2406,-3.2406,-3.2406,-3.2406,-3.2406,-3.2406,-3.2406,-3.2406,-3.2406,-3.2406,-4.7007,-4.6346,-4.6327,-4.6327,-4.621,-4.4773,-4.4035,-4.3791,-4.3687,-4.3641,-4.3666,-4.3666,-4.3607,-4.3491,-4.3491,-4.3491,-4.3491,-4.3481,-4.3481,-4.3481,-4.3481,-4.346,-4.34,-4.34,-4.3408,-4.3366,-4.2629,-4.228,-4.223,-4.1493,-4.1106,-4.1125,-4.1125,-4.1067,-4.0893,-3.9425,-3.864,-3.8523,-3.852,-3.8528,-3.8547,-3.8528,-3.8547,-3.8528,-3.8528,-3.847,-3.8373,-3.8373,-3.8315,-3.8187,-3.8009,-3.7613,-3.6906,-3.6867,-3.6332,0.0,-3.5202,0.0,0.0,0.0,0.0,0.0,0.0,0.0,0.0,-3.4602,-3.4602,-3.4602,-3.4539,-3.4495,-3.4495,-3.4386,-3.4293,-3.4293,-3.4245,-3.4221,-3.4221,-3.4221,-3.4221,-3.4203,-3.4221,-3.424,-3.424,-3.4197,-3.4216,-3.4216,-3.4216,-3.4216,-3.4216,-3.4216,-3.4173,-3.4216,-3.3972,-3.3597,-3.3243,-3.297,-3.2781,-3.2716,-3.2606,-3.2457,-3.2406,-3.2422,-3.2439,-3.2406,-3.2406,-3.2406,-3.2406,-3.2406,-3.2406,-3.2406,-3.2406,-3.2406,-3.2406,-3.2406,-3.2406,-4.8269,-4.8094,-4.8114,-4.8114,-4.8075,-4.7764,-4.6832,-4.553,-4.55,-4.5151,-4.4559,-4.4559,-4.4171,-4.353,-4.3491,-4.3491,-4.3491,-4.3432,-4.3421,-4.3421,-4.3438,-4.3397,-4.3397,-4.3397,-4.3397,-4.3385,-4.323,-4.316,-4.3136,-4.3001,-4.2892,-4.2834,-4.2815,-4.2467,-4.1802,0.0,0.0,0.0,-4.0331,-4.0307,-4.0307,-4.0307,-4.0307,-4.0307,-4.0307,0.0,-3.9301,-3.9262,-3.8914,-3.8257,-3.8156,0.0,0.0,0.0,0.0,0.0,0.0,0.0,0.0,0.0,0.0,0.0,-3.4602,-3.4602,-3.4602,-3.4602,-3.4602,-3.4602,-3.4539,-3.4473,-3.4409,-3.4386,-3.4358,-3.4316,-3.434,-3.4381,-3.4381,-3.4381,-3.4381,-3.4363,-3.4316,-3.4288,-3.4269,-3.4221,-3.4216,-3.4197,-3.4216,-3.4216,-3.4216,-3.4216,-3.4216,-3.4191,-3.3972,-3.3578,-3.3001,-3.2858,-3.2798,-3.2539,-3.2654,-3.2621,-3.2473,-3.2606,-3.2621,-3.2457,-3.2406,-3.2406,-3.2406,-3.2406,-3.2406,-3.2406,-3.2406,-3.2406,-3.2406,-3.2406,-3.2406,-4.8988,-4.8599,-4.858,-4.858,0.0,-4.858,-4.8094,-4.7279,-4.7279,-4.7045,-4.6696,-4.6676,-4.6424,-4.5977,-4.5569,-4.5394,-4.5356,-4.4898,-4.4674,-4.4674,-4.4683,-4.4691,-4.4688,-4.4688,-4.4669,-4.4606,-4.4238,-4.4032,-4.3976,-4.3589,-4.3363,-4.3305,-4.3305,-4.3073,-4.2647,-4.2222,-4.1615,-4.0796,-4.0803,-4.079,-4.079,-4.079,-4.079,-4.079,-4.079,0.0,0.0,0.0,0.0,0.0,0.0,0.0,0.0,-3.8691,0.0,-3.7206,-3.7133,-3.6725,-3.5737,-3.5643,-3.5399,-3.4889,-3.4792,-3.471,-3.4623,-3.4602,-3.4602,-3.4602,-3.4539,-3.4495,-3.445,-3.4427,-3.4404,-3.434,-3.4381,-3.4386,-3.4386,-3.4386,-3.4386,-3.4404,-3.434,-3.4335,-3.434,-3.4269,-3.4221,-3.4245,-3.4221,-3.4234,-3.4216,-3.4216,-3.4216,-3.4197,-3.4099,-3.3902,-3.357,-3.339,-3.3243,-3.3142,-3.3081,-3.2925,-3.2654,-3.2702,-3.2734,-3.2473,-3.2406,-3.2406,-3.2406,-3.2406,-3.2406,-3.2406,-3.2406,-3.2406,-3.2406,-3.2406,-3.2406,-4.9707,-4.9066,-4.9046,-4.9066,-4.9066,-4.9046,-4.9066,-4.9046,0.0,0.0,0.0,-4.858,-4.858,-4.8541,-4.7842,-4.7531,-4.7473,-4.6793,-4.6463,-4.6463,-4.6463,-4.6374,-4.6236,-4.6236,-4.6127,-4.5891,-4.525,-4.4897,-4.4821,-4.4163,-4.3821,-4.3763,-4.375,-4.3672,-4.3479,-4.2667,-4.1912,-4.1255,-4.0945,-4.079,-4.079,-4.079,-4.079,-4.079,-4.079,-4.079,-4.079,-4.079,-4.079,-4.079,-4.079,-4.0481,-3.9797,-3.9739,-3.9264,-3.829,-3.818,-3.7723,-3.6744,-3.6671,-3.6272,-3.54,-3.5226,-3.504,-3.4687,-3.4604,-3.4602,-3.4602,-3.4539,-3.4517,-3.4495,-3.4473,-3.4409,-3.4427,-3.4409,-3.445,-3.445,-3.445,-3.4431,-3.4427,-3.4363,-3.4381,-3.4404,-3.4479,-3.4487,-3.453,-3.4729,-3.4643,-3.4587,-3.4439,-3.4216,-3.4197,-3.4173,-3.4173,-3.4099,-3.3902,-3.3788,-3.3606,-3.3465,-3.3243,-3.2921,-3.2876,-3.2766,-3.2457,-3.2406,-3.2406,-3.2406,-3.2406,-3.2406,-3.2406,-3.2406,-3.2406,-3.2406,-3.2406,-3.2406,-5.093,-5.0833,-5.0853,-5.0853,-5.0833,-5.0833,-5.0833,-5.0697,-4.926,-4.8599,-4.858,-4.858,-4.858,-4.858,-4.8463,-4.8425,-4.8405,-4.8308,-4.823,-4.823,-4.823,-4.7842,-4.7132,-4.7112,-4.6724,-4.6025,-4.5869,-4.582,-4.5786,-4.5626,-4.5551,-4.5506,-4.5465,-4.5084,-4.4407,-4.3556,-4.3053,-4.2918,-4.1525,-4.079,-4.079,-4.079,-4.079,-4.079,-4.079,-4.079,-4.079,-4.079,-4.079,-4.079,-4.079,-4.0732,-4.0636,-4.0597,-4.021,-3.9366,-3.9277,-3.8801,-3.7777,-3.7685,-3.726,-3.6332,-3.6203,-3.5831,-3.4946,-3.4689,-3.4602,-3.4602,-3.4583,-3.4561,-3.4517,-3.4539,-3.4539,-3.4495,-3.4539,-3.4561,-3.4617,-3.4655,-3.4674,-3.4692,-3.4517,-3.4529,-3.4678,-3.5072,-3.541,-3.5522,-3.5789,-3.6259,-3.598,-3.5089,-3.4309,-3.4216,-3.4216,-3.4099,-3.4157,-3.3879,-3.3881,-3.339,-3.3688,-3.3694,-3.3167,-3.3198,-3.3154,-3.2544,-3.2581,-3.2511,-3.2476,-3.2406,-3.2476,-3.2493,-3.2493,-3.2493,-3.2546,-3.2564,-3.2493,-5.1202,-5.1202,-5.1202,-5.1202,-5.1202,-5.1202,-5.1202,-5.1144,-5.0367,-4.9998,-5.0017,-5.0017,-5.0017,-4.9978,-4.9512,-4.9299,-4.9279,-4.8832,-4.858,-4.858,-4.858,-4.8386,-4.8036,-4.8017,-4.7784,-4.7414,-4.7414,-4.717,-4.6729,-4.6678,-4.6409,-4.5932,-4.5847,-4.5606,-4.522,-4.4427,-4.402,-4.3982,-4.2318,-4.1448,-4.1429,-4.1023,-4.079,-4.079,-4.079,-4.079,-4.079,-4.079,-4.079,-4.079,-4.079,-4.079,-4.079,-4.079,-4.0616,-4.023,-4.0203,-3.9772,-3.8839,-3.8325,-3.7874,-3.7401,-3.7271,-3.7022,-3.6578,-3.5439,-3.471,-3.4623,-3.4602,-3.4583,-3.458,-3.4602,-3.4583,-3.4539,-3.4993,-3.5296,-3.5353,-3.5728,-3.5953,-3.5953,-3.5889,-3.5862,-3.5862,-3.6128,-3.6279,-3.6292,-3.6552,-3.6723,-3.6723,-3.6073,-3.5553,-3.5553,-3.5572,-3.5528,-3.5362,-3.5354,-3.5301,-3.5165,-3.511,-3.4892,-3.4434,-3.4384,-3.4062,-3.3759,-3.3617,-3.3459,-3.3108,-3.3003,-3.302,-3.3003,-3.3003,-3.3108,-3.3476,-3.3652,-3.3354,-5.1202,-5.1202,-5.1202,-5.1202,-5.1202,-5.1202,-5.1202,-5.1202,-5.1202,-5.1202,-5.1202,-5.1202,-5.1202,-5.1125,-5.0484,-5.0173,-5.0095,-4.9493,-4.9202,-4.9182,-4.9182,-4.9085,-4.891,-4.8891,-4.8794,-4.8619,-4.858,-4.8258,-4.7653,-4.7408,-4.6809,-4.5984,-4.5847,-4.5814,-4.578,-4.52,-4.4871,-4.4775,-4.3363,-4.2473,-4.226,-4.1487,-4.1081,-4.1061,-4.0887,-4.079,-4.079,-4.079,-4.079,-4.079,-4.079,-4.079,-4.079,-4.079,-4.079,-4.079,-4.079,-4.052,-3.9843,-3.9166,-3.8702,-3.8508,-3.8344,-3.8113,-3.7736,-3.6417,-3.5438,-3.5256,-3.5096,-3.4977,-3.5202,-3.5221,-3.5165,-3.5202,-3.5747,-3.6141,-3.6235,-3.6723,-3.7122,-3.7099,-3.7057,-3.6972,-3.7023,-3.713,-3.7243,-3.7355,-3.7277,-3.727,-3.7251,-3.7225,-3.7243,-3.7151,-3.6946,-3.6612,-3.6705,-3.6649,-3.6612,-3.6686,-3.6344,-3.5919,-3.5597,-3.5313,-3.4994,-3.4639,-3.4618,-3.4372,-3.388,-3.3775,-3.3792,-3.3792,-3.3792,-3.3968,-3.4424,-3.4547,-3.4337,-5.1202,-5.1202,-5.1202,-5.1202,-5.1202,-5.1202,-5.1202,-5.1202,-5.1202,-5.1202,-5.1202,-5.1202,-5.1202,-5.1202,-5.1086,-5.1047,-5.1047,-5.0989,-5.0911,-5.0911,-5.095,-5.0542,-4.9823,-4.9765,-4.9376,-4.8735,-4.8677,-4.8677,-4.8433,-4.7711,-4.6829,-4.6003,-4.5893,-4.588,-4.5794,-4.5703,-4.5664,-4.5664,-4.4833,-4.3962,-4.3189,-4.2338,-4.1893,-4.1874,-4.1177,-4.079,-4.0848,-4.079,-4.079,-4.079,-4.079,-4.079,-4.079,-4.079,-4.079,-4.079,-4.079,-4.0752,-4.0674,-4.0597,-4.0152,-3.9487,-3.9347,-3.8863,-3.7855,-3.7483,-3.728,-3.705,-3.6311,-3.6066,-3.6742,-3.6802,-3.6708,-3.6629,-3.6855,-3.6986,-3.7005,-3.7065,-3.7122,-3.7122,-3.7286,-3.7099,-3.7319,-3.7722,-3.8259,-3.8652,-3.8662,-3.8635,-3.8627,-3.8599,-3.8637,-3.8507,-3.7726,-3.6909,-3.6853,-3.6723,-3.6909,-3.6809,-3.65,-3.6278,-3.6059,-3.5648,-3.5065,-3.5421,-3.4991,-3.4975,-3.4763,-3.4582,-3.4638,-3.4673,-3.4691,-3.467,-3.4705,-3.4828,-3.4705,-5.1202,-5.1202,-5.1202,-5.1202,-5.1202,-5.1202,-5.1202,-5.1202,-5.1202,-5.1202,-5.1202,-5.1202,-5.1202,-5.1202,-5.1202,-5.1202,-5.1202,-5.1202,-5.1202,-5.1202,-5.1202,-5.1008,-5.0697,-5.0678,-5.0464,-5.0153,-5.0134,-4.9862,-4.9299,-4.8499,-4.761,-4.6809,-4.6674,-4.6416,-4.5899,-4.5814,-4.58,-4.578,-4.549,-4.5123,-4.4659,-4.346,-4.2783,-4.2686,-4.1951,-4.1506,-4.1467,-4.1061,-4.079,-4.079,-4.079,-4.079,-4.079,-4.079,-4.079,-4.079,-4.079,-4.079,-4.079,-4.079,-4.0636,-4.0268,-4.0165,-3.986,-3.9353,-3.8631,-3.8345,-3.8627,-3.7524,-3.6761,-3.7103,-3.7122,-3.7122,-3.7178,-3.7512,-3.7812,-3.7812,-3.8244,-3.8587,-3.8587,-3.8568,-3.8544,-3.8552,-3.8677,-3.8891,-3.9154,-3.9202,-3.9129,-3.9082,-3.9101,-3.9101,-3.9027,-3.8488,-3.8209,-3.8061,-3.8098,-3.8079,-3.8025,-3.7848,-3.7516,-3.7351,-3.712,-3.6856,-3.6647,-3.6559,-3.6344,-3.6107,-3.6003,-3.5985,-3.5847,-3.5942,-3.6057,-3.6057,-3.6057,-3.6039,-5.1882,-5.1843,-5.1649,-5.1532,-5.1513,-5.128,-5.1202,-5.1202,-5.1202,-5.1202,-5.1202,-5.1202,-5.1202,-5.1202,-5.1202,-5.1202,-5.1202,-5.1202,-5.1202,-5.1202,-5.1202,-5.1202,-5.1202,-5.1202,-5.1202,-5.1202,-5.1183,-5.0717,-4.992,-4.9326,-4.8507,-4.7738,-4.7378,-4.6907,-4.6293,-4.5996,-4.5827,-4.5833,-4.5814,-4.58,-4.5626,-4.4601,-4.3885,-4.3614,-4.2802,-4.2357,-4.2318,-4.1564,-4.1119,-4.1119,-4.0926,-4.079,-4.079,-4.079,-4.079,-4.079,-4.079,-4.079,-4.079,-4.079,-4.079,-4.079,-4.066,-4.0534,-4.0377,-3.964,-3.9374,-3.9652,-3.8647,-3.789,-3.7798,-3.7798,-3.7798,-3.7831,-3.8338,-3.8657,-3.8694,-3.9258,-3.9564,-3.962,-3.9427,-3.9571,-3.9476,-3.9343,-3.9245,-3.9256,-3.9202,-3.9129,-3.9101,-3.9101,-3.9101,-3.9101,-3.9082,-3.9045,-3.9101,-3.8971,-3.9101,-3.9027,-3.8696,-3.845,-3.8597,-3.8296,-3.8065,-3.7446,-3.7907,-3.7855,-3.7073,-3.698,-3.7061,-3.6845,-3.6819,-3.6939,-3.6777,-3.6917,-3.6935,-5.3591,-5.3417,-5.2698,-5.2348,-5.229,-5.1591,-5.126,-5.1377,-5.1299,-5.126,-5.1319,-5.126,-5.1222,-5.126,-5.1241,-5.1202,-5.1202,-5.1202,-5.1202,-5.1202,-5.1202,-5.1202,-5.1202,-5.1202,-5.1202,-5.1202,-5.1202,-5.0794,-4.9978,-4.9881,-4.9404,-4.8553,-4.7823,-4.7306,-4.6991,-4.6332,-4.5912,-4.5893,-4.5847,-4.58,-4.58,-4.5684,-4.522,-4.4543,-4.3711,-4.3247,-4.315,-4.2415,-4.1951,-4.1951,-4.1255,-4.0848,-4.081,-4.079,-4.079,-4.079,-4.079,-4.079,-4.079,-4.079,-4.079,-4.079,-4.0765,-4.0687,-4.0504,-4.0326,-4.0135,-3.9918,-3.9724,-3.952,-3.9378,-3.9194,-3.9282,-3.932,-3.9432,-3.9489,-3.9508,-3.9508,-3.962,-3.9596,-3.9571,-3.952,-3.9495,-3.9495,-3.9425,-3.9373,-3.9256,-3.9156,-3.9129,-3.9101,-3.9101,-3.9101,-3.9101,-3.9101,-3.9101,-3.9101,-3.9101,-3.9055,-3.8884,-3.8658,-3.8486,-3.836,-3.8216,-3.8168,-3.8234,-3.8099,-3.7737,-3.7596,-3.7629,-3.7435,-3.7066,-3.7048,-3.697,-3.697,-3.697,-5.372,-5.3689,-5.3358,-5.3222,-5.3183,-5.2912,-5.2795,-5.2795,-5.2795,-5.2795,-5.2678,-5.2212,-5.196,-5.196,-5.1416,-5.1202,-5.1202,-5.1202,-5.1202,-5.1202,-5.1202,-5.1202,-5.1202,-5.1202,-5.1202,-5.1202,-5.1202,-5.1047,-5.0775,-5.0736,-5.0289,-4.954,-4.9089,-4.8398,-4.7403,-4.6913,-4.6474,-4.597,-4.5874,-4.586,-4.586,-4.5814,-4.5645,-4.5355,-4.4562,-4.4136,-4.4136,-4.3305,-4.2841,-4.2841,-4.2048,-4.1564,-4.1506,-4.1081,-4.079,-4.079,-4.079,-4.079,-4.079,-4.079,-4.079,-4.079,-4.0673,-4.0583,-4.0489,-4.0389,-4.025,-4.0138,-4.0101,-4.0061,-3.9964,-3.9766,-3.962,-3.962,-3.962,-3.962,-3.962,-3.962,-3.962,-3.962,-3.9552,-3.9546,-3.9495,-3.9469,-3.9399,-3.9283,-3.9183,-3.9129,-3.9101,-3.9101,-3.9101,-3.9101,-3.9101,-3.9101,-3.9101,-3.9101,-3.9101,-3.9073,-3.897,-3.8942,-3.8836,-3.8778,-3.8688,-3.8658,-3.8628,-3.8597,-3.8305,-3.7962,-3.7998,-3.7685,-3.7339,-3.7185,-3.697,-3.7147,-3.7126,-5.4543,-5.4485,-5.4232,-5.4116,-5.4077,-5.3805,-5.372,-5.372,-5.372,-5.372,-5.3572,-5.3067,-5.2814,-5.2678,-5.196,-5.1591,-5.1552,-5.1338,-5.1202,-5.1202,-5.1202,-5.1202,-5.1202,-5.1202,-5.1202,-5.1202,-5.1202,-5.1202,-5.1202,-5.1202,-5.0891,-5.0348,-5.0006,-4.9295,-4.8254,-4.7823,-4.7217,-4.6518,-4.6326,-4.6222,-4.597,-4.5847,-4.58,-4.5722,-4.5258,-4.5007,-4.4968,-4.4175,-4.373,-4.3614,-4.2899,-4.2415,-4.2357,-4.1912,-4.1467,-4.1235,-4.1177,-4.1042,-4.0829,-4.079,-4.079,-4.081,-4.0673,-4.0598,-4.0583,-4.0473,-4.0367,-4.0312,-4.0298,-4.0266,-4.0101,-3.9854,-3.9703,-3.9679,-3.965,-3.962,-3.962,-3.962,-3.9577,-3.9552,-3.9577,-3.9552,-3.9495,-3.9444,-3.9346,-3.9229,-3.9129,-3.9101,-3.9101,-3.9101,-3.9101,-3.9101,-3.9101,-3.9101,-3.9101,-3.9101,-3.9101,-3.9101,-3.9073,-3.9101,-3.9101,-3.9101,-3.9101,-3.9101,-3.9101,-3.9101,-3.8865,-3.8473,-3.8132,-3.7843,-3.7685,-3.7577,-3.7468,-3.7394,-3.7356,-5.6233,-5.6058,-5.5359,-5.499,-5.4912,-5.4252,-5.3805,-5.3902,-5.3883,-5.3999,-5.4019,-5.3747,-5.3708,-5.3533,-5.2795,-5.2387,-5.2173,-5.163,-5.128,-5.1202,-5.1202,-5.1202,-5.1202,-5.1202,-5.1202,-5.1202,-5.1202,-5.1202,-5.1202,-5.1202,-5.1144,-5.1008,-5.0348,-4.9901,-4.9804,-4.8946,-4.8165,-4.7454,-4.7172,-4.6739,-4.6028,-4.5886,-4.5814,-4.5814,-4.5742,-4.5703,-4.5722,-4.5007,-4.4601,-4.4504,-4.3769,-4.3324,-4.3208,-4.3111,-4.286,-4.2144,-4.2028,-4.1622,-4.1042,-4.1003,-4.1061,-4.0926,-4.0868,-4.0855,-4.0765,-4.0746,-4.0673,-4.0534,-4.0469,-4.0392,-4.0041,-3.9935,-3.987,-3.987,-3.9703,-3.962,-3.962,-3.962,-3.9596,-3.9546,-3.9552,-3.9527,-3.9425,-3.9418,-3.9373,-3.9256,-3.9156,-3.9101,-3.9101,-3.9101,-3.9101,-3.9101,-3.9101,-3.9101,-3.9101,-3.9101,-3.9101,-3.9101,-3.9082,-3.9101,-3.9101,-3.9101,-3.9101,-3.9101,-3.9101,-3.9082,-3.8894,-3.8535,-3.8378,-3.8132,-3.805,-3.7931,-3.7844,-3.7739,-3.7703,-5.6311,-5.6272,-5.6,-5.5903,-5.5864,-5.5592,-5.5495,-5.5476,-5.5495,-5.5476,-5.5378,-5.4854,-5.4582,-5.4388,-5.3689,-5.297,-5.2407,-5.2115,-5.1746,-5.128,-5.1202,-5.1202,-5.1202,-5.1202,-5.1202,-5.1202,-5.1202,-5.1202,-5.1202,-5.1202,-5.1202,-5.1144,-5.093,-5.0464,-4.994,-4.9609,-4.9054,-4.8227,-4.7571,-4.71,-4.6809,-4.6197,-4.588,-4.588,-4.5814,-4.58,-4.578,-4.5548,-4.5432,-4.5394,-4.4639,-4.3943,-4.346,-4.3305,-4.3169,-4.2937,-4.2899,-4.2841,-4.2589,-4.2473,-4.2183,-4.1777,-4.1622,-4.1332,-4.0887,-4.0848,-4.0836,-4.0745,-4.0706,-4.0583,-4.0356,-4.0196,-4.0057,-3.9727,-3.9626,-3.962,-3.962,-3.962,-3.9577,-3.9552,-3.9596,-3.9596,-3.9527,-3.9502,-3.9425,-3.9328,-3.921,-3.9156,-3.9129,-3.9101,-3.9101,-3.9101,-3.9101,-3.9101,-3.9101,-3.9101,-3.9101,-3.9101,-3.9101,-3.9101,-3.9101,-3.9101,-3.9101,-3.9101,-3.9101,-3.9027,-3.8836,-3.8688,-3.8535,-3.8346,-3.8183,-3.8135,-3.8101,-3.8083,-3.8117,-5.6311,-5.6311,-5.6311,-5.6311,-5.6311,-5.6311,-5.6311,-5.6311,-5.6311,-5.6311,-5.6155,-5.5747,-5.5495,-5.5301,-5.4563,-5.3689,-5.2912,-5.2562,-5.196,-5.1299,-5.1202,-5.1202,-5.1202,-5.1202,-5.1202,-5.1202,-5.1202,-5.1202,-5.1202,-5.1202,-5.1202,-5.1202,-5.1202,-5.095,-5.0425,-5.0348,-4.994,-4.9104,-4.8526,-4.8068,-4.7668,-4.6862,-4.6396,-4.6338,-4.6021,-4.5819,-4.58,-4.58,-4.58,-4.5722,-4.5297,-4.4775,-4.4272,-4.4253,-4.4098,-4.3827,-4.3769,-4.3653,-4.3363,-4.3208,-4.3092,-4.2589,-4.2473,-4.2299,-4.1835,-4.1738,-4.1719,-4.1719,-4.1777,-4.1619,-4.1366,-4.1225,-4.0838,-4.0121,-3.9789,-3.9639,-3.962,-3.962,-3.962,-3.962,-3.962,-3.9577,-3.9571,-3.9527,-3.9425,-3.9328,-3.9256,-3.9183,-3.9129,-3.9101,-3.9101,-3.9101,-3.9101,-3.9101,-3.9101,-3.9101,-3.9101,-3.9101,-3.9101,-3.9101,-3.9101,-3.9101,-3.9101,-3.9101,-3.9101,-3.9101,-3.8942,-3.8913,-3.8778,-3.8566,-3.841,-3.8535,-3.8597,-3.8566,-3.8548,-5.6311,-5.6311,-5.6311,-5.6311,-5.6311,-5.6311,-5.6311,-5.6311,-5.6311,-5.6311,-5.6272,-5.6214,-5.6214,-5.6078,-5.5378,-5.4524,-5.3669,-5.2912,-5.2076,-5.1416,-5.1202,-5.1202,-5.1202,-5.1202,-5.1202,-5.1202,-5.1202,-5.1202,-5.1202,-5.1202,-5.1202,-5.1202,-5.1202,-5.1202,-5.1086,-5.1163,-5.0736,-5.0056,-4.978,-4.9283,-4.8662,-4.7734,-4.7184,-4.7113,-4.6389,-4.5916,-4.58,-4.58,-4.58,-4.58,-4.5722,-4.5645,-4.5722,-4.578,-4.5297,-4.4697,-4.4678,-4.4311,-4.3692,-4.3711,-4.3556,-4.3401,-4.3363,-4.3305,-4.3092,-4.2957,-4.2976,-4.2995,-4.3053,-4.2965,-4.2622,-4.2488,-4.1958,-4.1017,-4.0103,-3.9677,-3.962,-3.962,-3.962,-3.962,-3.9602,-3.9577,-3.952,-3.952,-3.9425,-3.9283,-3.9229,-3.9156,-3.9129,-3.9101,-3.9101,-3.9101,-3.9101,-3.9101,-3.9101,-3.9101,-3.9101,-3.9101,-3.9101,-3.912,-3.9101,-3.9101,-3.9101,-3.9101,-3.9101,-3.9101,-3.9073,-3.8998,-3.8998,-3.8913,-3.8913,-3.9055,-3.9027,-3.8913,-3.8836,-5.6311,-5.6311,-5.6311,-5.6311,-5.6311,-5.6311,-5.6311,-5.6311,-5.6311,-5.6311,-5.6311,-5.6311,-5.6311,-5.6272,-5.6039,-5.5145,-5.3902,-5.3436,-5.2523,-5.1377,-5.1202,-5.1202,-5.1202,-5.1202,-5.1202,-5.1202,-5.1202,-5.1202,-5.1202,-5.1202,-5.1202,-5.1202,-5.1202,-5.1202,-5.1202,-5.1202,-5.1105,-5.0794,-5.0173,-4.9812,-4.9489,-4.8645,-4.7831,-4.7211,-4.6892,-4.6399,-4.5877,-4.58,-4.58,-4.58,-4.58,-4.58,-4.58,-4.58,-4.5664,-4.549,-4.5432,-4.5394,-4.5181,-4.5065,-4.4833,-4.433,-4.4253,-4.3982,-4.3343,-4.3324,-4.3324,-4.3305,-4.3291,-4.3196,-4.2833,-4.2717,-4.2335,-4.1669,-4.0553,-3.9752,-3.9733,-3.962,-3.962,-3.962,-3.9695,-3.9727,-3.9721,-3.967,-3.9619,-3.9504,-3.9424,-3.9351,-3.9472,-3.9426,-3.9538,-3.9212,-3.9138,-3.9101,-3.9101,-3.9101,-3.9101,-3.9101,-3.912,-3.9175,-3.9138,-3.9101,-3.9101,-3.9101,-3.9101,-3.9101,-3.9101,-3.9055,-3.9082,-3.9101,-3.9101,-3.9101,-3.9101,-3.9027,-3.8998,-5.6311,-5.6311,-5.6311,-5.6311,-5.6311,-5.6311,-5.6311,-5.6311,-5.6311,-5.6311,-5.6311,-5.6311,-5.6311,-5.6311,-5.6272,-5.532,-5.3863,-5.372,-5.2756,-5.1416,-5.1202,-5.1202,-5.1202,-5.1202,-5.1202,-5.1202,-5.1202,-5.1202,-5.1202,-5.1202,-5.1202,-5.1202,-5.1202,-5.1202,-5.1202,-5.1202,-5.1202,-5.1105,-5.0658,-5.0425,-5.0324,-4.9518,-4.8877,-4.8128,-4.7589,-4.6689,-4.5935,-4.58,-4.58,-4.58,-4.58,-4.58,-4.58,-4.58,-4.58,-4.58,-4.58,-4.58,-4.58,-4.58,-4.5587,-4.522,-4.5104,-4.4871,-4.4504,-4.4349,-4.4349,-4.4407,-4.433,-4.4129,-4.3752,-4.3295,-4.2853,-4.2446,-4.1398,-4.0628,-4.0609,-4.0666,-4.0609,-4.0591,-4.0591,-4.0591,-4.0591,-4.0521,-4.0495,-4.0499,-4.0558,-4.0439,-4.0337,-4.0179,-4.0077,-3.9918,-3.9937,-4.0123,-4.0178,-4.0178,-4.0104,-3.9993,-3.9881,-3.9807,-3.9435,-3.9342,-3.925,-3.925,-3.9175,-3.9157,-3.9287,-3.9287,-3.9101,-3.9101,-3.9101,-3.9157,-3.9212,-3.9454,-3.9398,-5.6311,-5.6311,-5.6311,-5.6311,-5.6311,-5.6311,-5.6311,-5.6311,-5.6311,-5.6311,-5.6311,-5.6311,-5.6311,-5.6311,-5.6272,-5.5359,-5.3727,-5.372,-5.2659,-5.1649,-5.1202,-5.1202,-5.1202,-5.1202,-5.1202,-5.1202,-5.1202,-5.1202,-5.1202,-5.1202,-5.1202,-5.1202,-5.1202,-5.1202,-5.1202,-5.1202,-5.1202,-5.1202,-5.1125,-5.1016,-5.0875,-5.0274,-4.9769,-4.9218,-4.7801,-4.6844,-4.6187,-4.5896,-4.58,-4.58,-4.58,-4.58,-4.58,-4.58,-4.58,-4.58,-4.58,-4.58,-4.58,-4.58,-4.58,-4.5703,-4.5722,-4.58,-4.5606,-4.551,-4.551,-4.5471,-4.5747,-4.531,-4.4836,-4.4045,-4.3544,-4.3313,-4.2656,-4.2355,-4.2216,-4.2104,-4.1999,-4.1999,-4.1935,-4.1999,-4.1991,-4.1991,-4.189,-4.121,-4.1295,-4.1148,-4.1073,-4.1026,-4.1025,-4.1107,-4.1219,-4.1386,-4.1404,-4.1404,-4.1293,-4.1181,-4.1051,-4.0828,-4.0141,-3.99,-3.964,-3.9602,-3.9993,-4.003,-3.9844,-3.9695,-3.9528,-3.964,-4.0011,-3.977,-3.9528,-3.9937,-4.0067,-5.6311,-5.6311,-5.6311,-5.6311,-5.6311,-5.6311,-5.6311,-5.6311,-5.6311,-5.6311,-5.6311,-5.6311,-5.6311,-5.6311,-5.6233,-5.534,-5.3883,-5.3611,-5.2776,-5.1377,-5.1202,-5.1202,-5.1202,-5.1202,-5.1202,-5.1202,-5.1202,-5.1202,-5.1202,-5.1202,-5.1202,-5.1202,-5.1202,-5.1202,-5.1202,-5.1202,-5.1202,-5.1202,-5.1202,-5.1202,-5.1159,-5.0914,-5.0408,-4.9697,-4.8106,-4.7154,-4.6748,-4.6148,-4.5819,-4.58,-4.58,-4.58,-4.58,-4.58,-4.58,-4.58,-4.58,-4.58,-4.58,-4.58,-4.58,-4.58,-4.58,-4.58,-4.58,-4.58,-4.58,-4.5786,-4.5642,-4.5399,-4.4947,-4.4523,-4.4185,-4.4064,-4.3951,-4.3839,-4.3745,-4.2817,-4.2243,-4.213,-4.213,-4.2036,-4.2047,-4.2133,-4.2069,-4.193,-4.1885,-4.1763,-4.1828,-4.1901,-4.2002,-4.2158,-4.2092,-4.2184,-4.2203,-4.2203,-4.2222,-4.2203,-4.2129,-4.2036,-4.133,-4.0958,-4.0921,-4.0977,-4.1126,-4.0958,-4.055,-4.0773,-4.0736,-4.0866,-4.0884,-4.0698,-4.0587,-4.0773,-4.0717,-5.6311,-5.6311,-5.6311,-5.6311,-5.6311,-5.6311,-5.6311,-5.6311,-5.6311,-5.6311,-5.6311,-5.6311,-5.6311,-5.6311,-5.6253,-5.5534,-5.433,-5.3378,-5.2426,-5.1416,-5.1202,-5.1202,-5.1202,-5.1202,-5.1202,-5.1202,-5.1202,-5.1202,-5.1202,-5.1202,-5.1202,-5.1202,-5.1202,-5.1202,-5.1202,-5.1202,-5.1202,-5.1202,-5.1202,-5.119,-5.1159,-5.1108,-5.0646,-4.9896,-4.8788,-4.8179,-4.7695,-4.6883,-4.6496,-4.6322,-4.6032,-4.58,-4.58,-4.58,-4.58,-4.58,-4.58,-4.58,-4.58,-4.58,-4.58,-4.58,-4.58,-4.58,-4.58,-4.58,-4.58,-4.5752,-4.5591,-4.5304,-4.4849,-4.4602,-4.4524,-4.4496,-4.4496,-4.4496,-4.4364,-4.3707,-4.3182,-4.3182,-4.3294,-4.3275,-4.3173,-4.2902,-4.3052,-4.3231,-4.324,-4.3137,-4.3162,-4.3226,-4.3025,-4.3051,-4.2909,-4.289,-4.289,-4.2946,-4.302,-4.3058,-4.3113,-4.3076,-4.2797,-4.2575,-4.2426,-4.2203,-4.1813,-4.1553,-4.1274,-4.1571,-4.172,-4.146,-4.1386,-4.1534,-4.1553,-4.1404,-4.1311,-5.6117,-5.6097,-5.5961,-5.5903,-5.5922,-5.5845,-5.5786,-5.5845,-5.6058,-5.6,-5.6155,-5.6194,-5.6311,-5.6311,-5.6311,-5.5806,-5.4718,-5.3242,-5.2057,-5.161,-5.126,-5.1222,-5.1202,-5.1202,-5.1202,-5.1202,-5.1202,-5.1202,-5.1202,-5.1202,-5.1202,-5.1202,-5.1202,-5.1202,-5.1202,-5.1202,-5.1202,-5.1202,-5.1202,-5.119,-5.1127,-5.1108,-5.0666,-5.0128,-4.961,-4.9184,-4.8546,-4.7811,-4.7212,-4.7076,-4.6399,-4.5993,-4.58,-4.58,-4.58,-4.58,-4.58,-4.58,-4.58,-4.58,-4.58,-4.58,-4.58,-4.58,-4.58,-4.58,-4.5786,-4.5658,-4.547,-4.5165,-4.4776,-4.4595,-4.4496,-4.4496,-4.4496,-4.4496,-4.4496,-4.4496,-4.4327,-4.4327,-4.4083,-4.4008,-4.4093,-4.4036,-4.4318,-4.4487,-4.443,-4.4354,-4.4304,-4.4188,-4.3788,-4.3664,-4.3466,-4.341,-4.341,-4.3392,-4.3503,-4.3559,-4.3745,-4.3745,-4.3745,-4.3522,-4.3113,-4.2612,-4.2259,-4.2129,-4.2184,-4.2445,-4.2389,-4.1999,-4.211,-4.25,-4.2352,-4.1999,-4.2017,-5.5223,-5.5165,-5.4427,-5.4135,-5.4155,-5.4155,-5.4232,-5.4252,-5.4971,-5.5223,-5.5301,-5.5942,-5.6175,-5.6253,-5.6291,-5.5786,-5.464,-5.3281,-5.2329,-5.1921,-5.1513,-5.1222,-5.1202,-5.1202,-5.1202,-5.1202,-5.1202,-5.1202,-5.1202,-5.1202,-5.1202,-5.1202,-5.1202,-5.1202,-5.1202,-5.1202,-5.1202,-5.1202,-5.1202,-5.119,-5.1178,-5.1108,-5.0961,-5.0538,-5.0113,-4.9745,-4.9397,-4.8643,-4.7869,-4.7173,-4.696,-4.6515,-4.6167,-4.5993,-4.5935,-4.58,-4.58,-4.58,-4.58,-4.58,-4.58,-4.58,-4.58,-4.58,-4.58,-4.58,-4.5723,-4.549,-4.5204,-4.4843,-4.4587,-4.4524,-4.4496,-4.4496,-4.4496,-4.4496,-4.4496,-4.4496,-4.4496,-4.4496,-4.4496,-4.4515,-4.4468,-4.4468,-4.444,-4.4401,-4.4344,-4.4285,-4.4244,-4.4165,-4.398,-4.3912,-4.3931,-4.3912,-4.3893,-4.3856,-4.3875,-4.3819,-4.3912,-4.3912,-4.3912,-4.3968,-4.367,-4.3188,-4.3169,-4.3318,-4.3373,-4.3355,-4.3299,-4.3058,-4.328,-4.3503,-4.3225,-4.2946,-4.3188,-5.4737,-5.4291,-5.3863,-5.372,-5.372,-5.372,-5.372,-5.3766,-5.4135,-5.433,-5.4446,-5.4776,-5.5242,-5.5514,-5.5631,-5.5145,-5.4232,-5.3591,-5.262,-5.1921,-5.1377,-5.1202,-5.1202,-5.1202,-5.1202,-5.1202,-5.1202,-5.1202,-5.1202,-5.1202,-5.1202,-5.1202,-5.1202,-5.1202,-5.1202,-5.1202,-5.1202,-5.1202,-5.1202,-5.1222,-5.121,-5.114,-5.102,-5.0786,-5.0577,-5.0364,-5.0171,-4.9533,-4.8933,-4.8469,-4.8005,-4.7579,-4.725,-4.6999,-4.6709,-4.6051,-4.5858,-4.5819,-4.58,-4.58,-4.58,-4.58,-4.58,-4.58,-4.58,-4.5786,-4.5658,-4.5362,-4.5055,-4.4714,-4.4524,-4.4496,-4.4496,-4.4496,-4.4496,-4.4496,-4.4496,-4.4496,-4.4496,-4.4496,-4.4496,-4.4515,-4.4487,-4.4458,-4.4411,-4.4344,-4.4255,-4.4226,-4.4165,-4.4104,-4.4005,-4.4005,-4.4005,-4.4005,-4.4005,-4.4005,-4.4005,-4.4005,-4.4005,-4.4005,-4.4005,-4.4005,-4.4005,-4.3801,-4.3968,-4.4005,-4.3949,-4.3708,-4.3893,-4.4005,-4.3875,-4.3801,-4.3912,-4.3986,-4.4005,-5.4077,-5.3436,-5.3261,-5.3203,-5.3183,-5.3183,-5.3164,-5.3222,-5.3358,-5.3436,-5.3475,-5.3689,-5.4155,-5.4601,-5.4679,-5.4349,-5.3669,-5.3514,-5.262,-5.1785,-5.1299,-5.1202,-5.1202,-5.1202,-5.1202,-5.1202,-5.1202,-5.1202,-5.1202,-5.1202,-5.1202,-5.1202,-5.1202,-5.1202,-5.1202,-5.1202,-5.1202,-5.1202,-5.1222,-5.1222,-5.1166,-5.1127,-5.1039,-5.0906,-5.0906,-5.0867,-5.0732,-5.0287,-4.9823,-4.9436,-4.901,-4.8546,-4.843,-4.8392,-4.7734,-4.6573,-4.6187,-4.6013,-4.5819,-4.58,-4.58,-4.58,-4.58,-4.58,-4.5786,-4.5723,-4.5594,-4.5244,-4.4962,-4.4714,-4.4551,-4.4496,-4.4496,-4.4496,-4.4496,-4.4496,-4.4496,-4.4496,-4.4496,-4.4496,-4.4496,-4.4515,-4.4487,-4.443,-4.4373,-4.4296,-4.4226,-4.4116,-4.4085,-4.4055,-4.4005,-4.4005,-4.4005,-4.4005,-4.4005,-4.4005,-4.4005,-4.4005,-4.4005,-4.4005,-4.4005,-4.4005,-4.4005,-4.4005,-4.4005,-4.4005,-4.4005,-4.4005,-4.4005,-4.4005,-4.4005,-4.4005,-4.4005,-4.4005,-4.4005,-5.264,-5.2484,-5.1804,-5.1494,-5.1571,-5.1591,-5.1552,-5.1668,-5.229,-5.2562,-5.2601,-5.3261,-5.363,-5.3844,-5.3922,-5.3805,-5.3475,-5.295,-5.2465,-5.1901,-5.1455,-5.1202,-5.1202,-5.1202,-5.1202,-5.1202,-5.1202,-5.1202,-5.1202,-5.1202,-5.1202,-5.1202,-5.1202,-5.1202,-5.1202,-5.1202,-5.1202,-5.1202,-5.1202,-5.1178,-5.1108,-5.1114,-5.102,-5.0941,-5.0906,-5.0906,-5.0906,-5.0654,-5.0422,-4.9823,-4.9668,-4.9165,-4.8585,-4.8411,-4.8353,-4.7908,-4.7386,-4.6612,-4.6148,-4.6109,-4.6129,-4.6148,-4.5974,-4.5838,-4.5786,-4.5642,-4.5472,-4.5243,-4.4962,-4.4764,-4.4587,-4.4496,-4.4496,-4.4496,-4.4496,-4.4496,-4.4496,-4.4496,-4.4496,-4.4496,-4.4496,-4.4496,-4.4515,-4.4401,-4.4314,-4.4255,-4.4177,-4.4085,-4.4036,-4.4005,-4.4005,-4.4005,-4.4005,-4.4005,-4.4005,-4.4005,-4.4005,-4.4005,-4.4005,-4.4005,-4.4005,-4.4005,-4.4005,-4.4005,-4.4005,-4.4005,-4.4005,-4.4005,-4.4005,-4.4005,-4.4005,-4.4005,-4.4005,-4.4005,-4.4005,-5.1707,-5.1707,-5.1358,-5.1202,-5.1202,-5.1202,-5.1202,-5.128,-5.1571,-5.1727,-5.1766,-5.2076,-5.2504,-5.295,-5.3417,-5.3417,-5.297,-5.2523,-5.2115,-5.1804,-5.1377,-5.1202,-5.1202,-5.1202,-5.1202,-5.1202,-5.1202,-5.1202,-5.1202,-5.1202,-5.1202,-5.1202,-5.1202,-5.1202,-5.1202,-5.1202,-5.1202,-5.1202,-5.1202,-5.1159,-5.1102,-5.1095,-5.1053,-5.0956,-5.0921,-5.0906,-5.0906,-5.0906,-5.079,-5.0403,-5.0384,-5.0248,-4.9939,-4.9803,-4.9687,-4.9088,-4.8817,-4.8198,-4.7482,-4.7289,-4.7173,-4.7076,-4.6806,-4.6361,-4.5945,-4.5665,-4.551,-4.5381,-4.5011,-4.477,-4.4655,-4.456,-4.4524,-4.4496,-4.4496,-4.4496,-4.4496,-4.4496,-4.4496,-4.4496,-4.4496,-4.4496,-4.4468,-4.4373,-4.4314,-4.4255,-4.4147,-4.4055,-4.4005,-4.4005,-4.4005,-4.4005,-4.4005,-4.4005,-4.4005,-4.4005,-4.4005,-4.4005,-4.4005,-4.4005,-4.4005,-4.4005,-4.4005,-4.4005,-4.4005,-4.4005,-4.4005,-4.4005,-4.4005,-4.4005,-4.4005,-4.4005,-4.4005,-4.4005,-4.4005,-5.1202,-5.1202,-5.1202,-5.1202,-5.1202,-5.1202,-5.1202,-5.1202,-5.1241,-5.1222,-5.1202,-5.128,-5.161,-5.2076,-5.264,-5.2581,-5.2115,-5.2096,-5.1766,-5.1377,-5.1202,-5.1202,-5.1202,-5.1202,-5.1202,-5.1202,-5.1202,-5.1202,-5.1202,-5.1202,-5.1202,-5.1202,-5.1202,-5.1202,-5.1202,-5.1202,-5.1202,-5.1202,-5.1202,-5.1159,-5.1114,-5.1089,-5.1048,-5.0986,-5.0956,-5.0906,-5.0906,-5.0906,-5.0887,-5.0867,-5.0828,-5.0732,-5.0693,-5.0635,-5.0461,-5.0055,-4.9861,-4.9668,-4.8991,-4.8624,-4.8488,-4.8198,-4.7927,-4.7192,-4.6675,-4.6182,-4.5871,-4.5913,-4.5302,-4.5007,-4.48,-4.4655,-4.4587,-4.4551,-4.4496,-4.4496,-4.4515,-4.4515,-4.4515,-4.4496,-4.4496,-4.4496,-4.444,-4.4373,-4.4314,-4.4285,-4.4177,-4.4036,-4.4005,-4.4005,-4.4005,-4.4005,-4.4005,-4.4005,-4.4005,-4.4005,-4.4005,-4.4005,-4.4005,-4.4005,-4.4005,-4.4005,-4.4005,-4.4005,-4.4005,-4.4005,-4.4005,-4.4005,-4.4005,-4.4005,-4.4005,-4.4005,-4.4005,-4.4005,-4.4005,-5.1202,-5.1202,-5.1202,-5.1202,-5.1202,-5.1202,-5.1202,-5.1202,-5.1202,-5.1202,-5.1202,-5.1222,-5.1241,-5.1396,-5.1552,-5.1571,-5.1338,-5.128,-5.128,-5.126,-5.1202,-5.1202,-5.1202,-5.1202,-5.1202,-5.1202,-5.1202,-5.1202,-5.1202,-5.1202,-5.1202,-5.1202,-5.1202,-5.1202,-5.1202,-5.1202,-5.1202,-5.1202,-5.1202,-5.1171,-5.1127,-5.1102,-5.1056,-5.1,-5.0986,-5.0971,-5.0906,-5.0906,-5.0906,-5.0906,-5.0906,-5.0906,-5.0906,-5.0906,-5.0751,-5.0674,-5.0616,-5.05,-5.019,-4.9378,-4.8585,-4.843,-4.8333,-4.8179,-4.7753,-4.7289,-4.6982,-4.6716,-4.6186,-4.5588,-4.5217,-4.4827,-4.5115,-4.5047,-4.5059,-4.4796,-4.474,-4.4533,-4.4515,-4.4515,-4.4496,-4.4468,-4.444,-4.4354,-4.4314,-4.4285,-4.4147,-4.4005,-4.4005,-4.4005,-4.4005,-4.4005,-4.4005,-4.4005,-4.4005,-4.4005,-4.4005,-4.4005,-4.4005,-4.4005,-4.4005,-4.4005,-4.4005,-4.4005,-4.4005,-4.4005,-4.4005,-4.4005,-4.4005,-4.4005,-4.4005,-4.4005,-4.4005,-4.4005,-4.4005,-5.1202,-5.1202,-5.1202,-5.1202,-5.1202,-5.1202,-5.1202,-5.1202,-5.1202,-5.1202,-5.1202,-5.1202,-5.1202,-5.1202,-5.1202,-5.1202,-5.1202,-5.1222,-5.1202,-5.1202,-5.1202,-5.1202,-5.1202,-5.1202,-5.1202,-5.1202,-5.1202,-5.1202,-5.1202,-5.1202,-5.1202,-5.1202,-5.1202,-5.1202,-5.1202,-5.1202,-5.1202,-5.1202,-5.1202,-5.1171,-5.1171,-5.1127,-5.1069,-5.1067,-5.1,-5.0971,-5.0906,-5.0906,-5.0906,-5.0906,-5.0906,-5.0906,-5.0906,-5.0906,-5.0906,-5.0906,-5.0906,-5.0906,-5.0906,-5.0229,-4.9784,-4.9243,-4.9184,-4.903,-4.8662,-4.8082,-4.7913,-4.7642,-4.7311,-4.6743,-4.6856,-4.6591,-4.6436,-4.6142,-4.5762,-4.5369,-4.5172,-4.5021,-4.489,-4.5021,-4.4693,-4.4468,-4.4411,-4.4325,-4.4314,-4.4285,-4.4116,-4.4005,-4.4005,-4.4005,-4.4005,-4.4005,-4.4005,-4.4005,-4.4005,-4.4005,-4.4005,-4.4005,-4.4005,-4.4005,-4.4005,-4.4005,-4.4005,-4.4005,-4.4005,-4.4005,-4.4005,-4.4005,-4.4005,-4.4005,-4.4005,-4.4005,-4.4005,-4.4005,-4.4005,-5.1202,-5.1202,-5.1202,-5.1202,-5.1202,-5.1202,-5.1202,-5.1202,-5.1202,-5.1202,-5.1202,-5.1202,-5.1202,-5.1202,-5.1202,-5.1202,-5.1202,-5.1202,-5.1202,-5.1202,-5.1202,-5.1202,-5.1202,-5.1202,-5.1202,-5.1202,-5.1202,-5.1202,-5.1202,-5.1202,-5.1202,-5.1202,-5.1202,-5.1202,-5.1202,-5.1202,-5.1202,-5.1202,-5.1202,-5.1202,-5.119,-5.1159,-5.1102,-5.1101,-5.1053,-5.0971,-5.0921,-5.0906,-5.0906,-5.0906,-5.0906,-5.0906,-5.0906,-5.0906,-5.0906,-5.0906,-5.0906,-5.0906,-5.0906,-5.0848,-5.0654,-5.0152,-5.0074,-4.9745,-4.9301,-4.8952,-4.8783,-4.8725,-4.8417,-4.8178,-4.8162,-4.7535,-4.7175,-4.6821,-4.6459,-4.611,-4.6017,-4.5885,-4.5679,-4.5585,-4.52,-4.4918,-4.4682,-4.4595,-4.4244,-4.4214,-4.4116,-4.4005,-4.4005,-4.4005,-4.4005,-4.4005,-4.4005,-4.4005,-4.4005,-4.4005,-4.4005,-4.4005,-4.4005,-4.4005,-4.4005,-4.4005,-4.4005,-4.4005,-4.4005,-4.4005,-4.4005,-4.4005,-4.4005,-4.4005,-4.4005,-4.4005,-4.4005,-4.4005,-4.4005,-5.1202,-5.1202,-5.1202,-5.1202,-5.1202,-5.1202,-5.1202,-5.1202,-5.1202,-5.1202,-5.1202,-5.1202,-5.1202,-5.1202,-5.1202,-5.1202,-5.1202,-5.1202,-5.1202,-5.1202,-5.1202,-5.1202,-5.1202,-5.1202,-5.1202,-5.1202,-5.1202,-5.1202,-5.1202,-5.1202,-5.1202,-5.1202,-5.1202,-5.1202,-5.1202,-5.1202,-5.1202,-5.1202,-5.1202,-5.1202,-5.1202,-5.1171,-5.1134,-5.1114,-5.1087,-5.1005,-5.0921,-5.0906,-5.0906,-5.0906,-5.0906,-5.0906,-5.0906,-5.0906,-5.0906,-5.0906,-5.0906,-5.0906,-5.0906,-5.0906,-5.0828,-5.0732,-5.0616,-5.0538,-5.0538,-5.0171,-4.9668,-4.961,-4.9135,-4.8607,-4.8257,-4.8025,-4.7964,-4.772,-4.7399,-4.6966,-4.6891,-4.6542,-4.6298,-4.6167,-4.5904,-4.5594,-4.5234,-4.4883,-4.4351,-4.4123,-4.4023,-4.4005,-4.4005,-4.4005,-4.4005,-4.4005,-4.4005,-4.4005,-4.4005,-4.4005,-4.4005,-4.4005,-4.4005,-4.4005,-4.4005,-4.4005,-4.4005,-4.4005,-4.4005,-4.4005,-4.4005,-4.4005,-4.4005,-4.4005,-4.4005,-4.4005,-4.4005,-4.4005,-4.4005,-5.1202,-5.1202,-5.1202,-5.1202,-5.1202,-5.1202,-5.1202,-5.1202,-5.1202,-5.1202,-5.1202,-5.1202,-5.1202,-5.1202,-5.1202,-5.1202,-5.1202,-5.1202,-5.1202,-5.1202,-5.1202,-5.1202,-5.1202,-5.1202,-5.1202,-5.1202,-5.1202,-5.1202,-5.1202,-5.1202,-5.1202,-5.1202,-5.1202,-5.1202,-5.1202,-5.1202,-5.1202,-5.1202,-5.1202,-5.1202,-5.1183,-5.1159,-5.1134,-5.1101,-5.1067,-5.1005,-5.0906,-5.0906,-5.0906,-5.0906,-5.0906,-5.0906,-5.0906,-5.0906,-5.0906,-5.0906,-5.0906,-5.0906,-5.0906,-5.0906,-5.0906,-5.0906,-5.0906,-5.0906,-5.0828,-5.0712,-5.0538,-5.0442,-5.0074,-4.9795,-4.9978,-4.9779,-4.9616,-4.9234,-4.8814,-4.8126,-4.7749,-4.7172,-4.6805,-4.6749,-4.658,-4.6004,-4.5578,-4.5121,-4.4606,-4.4147,-4.4023,-4.4005,-4.4005,-4.4005,-4.4005,-4.4005,-4.4005,-4.4005,-4.4005,-4.4005,-4.4005,-4.4005,-4.4005,-4.4005,-4.4005,-4.4005,-4.4005,-4.4005,-4.4005,-4.4005,-4.4005,-4.4005,-4.4005,-4.4005,-4.4005,-4.4005,-4.4005,-4.4005,-4.4005,-5.1202,-5.1202,-5.1202,-5.1202,-5.1202,-5.1202,-5.1202,-5.1202,-5.1202,-5.1202,-5.1202,-5.1202,-5.1202,-5.1202,-5.1202,-5.1202,-5.1202,-5.1202,-5.1202,-5.1202,-5.1202,-5.1202,-5.1202,-5.1202,-5.1202,-5.1202,-5.1202,-5.1202,-5.1202,-5.1202,-5.1202,-5.1202,-5.1202,-5.1202,-5.1202,-5.1202,-5.1202,-5.1202,-5.1202,-5.1222,-5.119,-5.1159,-5.1114,-5.1095,-5.1053,-5.0986,-5.0941,-5.0906,-5.0906,-5.0906,-5.0906,-5.0906,-5.0906,-5.0906,-5.0906,-5.0906,-5.0906,-5.0906,-5.0906,-5.0906,-5.0906,-5.0906,-5.0906,-5.0906,-5.0906,-5.0848,-5.0848,-5.0848,-5.0906,-5.0871,-5.0816,-5.0718,-5.047,-5.0065,-4.9651,-4.8935,-4.8655,-4.8079,-4.7875,-4.7781,-4.7346,-4.6675,-4.5854,-4.5357,-4.4878,-4.4432,-4.4005,-4.4005,-4.4005,-4.4005,-4.4005,-4.4005,-4.4005,-4.4005,-4.4005,-4.4005,-4.4005,-4.4005,-4.4005,-4.4005,-4.4005,-4.4005,-4.4005,-4.4005,-4.4005,-4.4005,-4.4005,-4.4005,-4.4005,-4.4005,-4.4005,-4.4005,-4.4005,-4.4005,-4.4005,-5.1202,-5.1202,-5.1202,-5.1202,-5.1202,-5.1202,-5.1202,-5.1202,-5.1202,-5.1202,-5.1202,-5.1202,-5.1202,-5.1202,-5.1202,-5.1202,-5.1202,-5.1202,-5.1202,-5.1202,-5.1202,-5.1202,-5.1202,-5.1202,-5.1202,-5.1202,-5.1202,-5.1202,-5.1202,-5.1202,-5.1202,-5.1202,-5.1202,-5.1202,-5.1202,-5.1202,-5.1202,-5.1202,-5.1202,-5.1202,-5.1202,-5.1178,-5.1121,-5.1101,-5.1053,-5.099,-5.0941,-5.0906,-5.0906,-5.0906,-5.0906,-5.0906,-5.0906,-5.0906,-5.0906,-5.0906,-5.0906,-5.0906,-5.0906,-5.0906,-5.0906,-5.0906,-5.0906,-5.0906,-5.0906,-5.0906,-5.0906,-5.0906,-5.0906,-5.0906,-5.0874,-5.0754,-5.0625,-5.0306,-5.0054,-4.9739,-4.9597,-4.9381,-4.9232,-4.8933,-4.8421,-4.7617,-4.6402,-4.5736,-4.5287,-4.4674,-4.4246,-4.4005,-4.4005,-4.4005,-4.4005,-4.4005,-4.4005,-4.4005,-4.4005,-4.4005,-4.4005,-4.4005,-4.4005,-4.4005,-4.4005,-4.4005,-4.4005,-4.4005,-4.4005,-4.4005,-4.4005,-4.4005,-4.4005,-4.4005,-4.4005,-4.4005,-4.4005,-4.4005,-4.4005,-5.1202,-5.1202,-5.1202,-5.1202,-5.1202,-5.1202,-5.1202,-5.1202,-5.1202,-5.1202,-5.1202,-5.1202,-5.1202,-5.1202,-5.1202,-5.1202,-5.1202,-5.1202,-5.1202,-5.1202,-5.1202,-5.1202,-5.1202,-5.1202,-5.1202,-5.1202,-5.1202,-5.1202,-5.1202,-5.1202,-5.1202,-5.1202,-5.1202,-5.1202,-5.1202,-5.1202,-5.1202,-5.1202,-5.1202,-5.1202,-5.119,-5.1166,-5.1127,-5.1081,-5.102,-5.0956,-5.0906,-5.0906,-5.0906,-5.0906,-5.0906,-5.0906,-5.0906,-5.0906,-5.0906,-5.0906,-5.0906,-5.0906,-5.0906,-5.0906,-5.0906,-5.0906,-5.0906,-5.0906,-5.0906,-5.0906,-5.0906,-5.0906,-5.0906,-5.0906,-5.0906,-5.0805,-5.0718,-5.0528,-5.0256,-5.0019,-4.9857,-4.9655,-4.9532,-4.9334,-4.884,-4.8258,-4.7042,-4.6243,-4.5788,-4.5064,-4.4506,-4.4191,-4.4005,-4.4005,-4.4005,-4.4005,-4.4005,-4.4005,-4.4005,-4.4005,-4.4005,-4.4005,-4.4005,-4.4005,-4.4005,-4.4005,-4.4005,-4.4005,-4.4005,-4.4005,-4.4005,-4.4005,-4.4005,-4.4005,-4.4005,-4.4005,-4.4005,-4.4005,-4.4005,-5.1202,-5.1202,-5.1202,-5.1202,-5.1202,-5.1202,-5.1202,-5.1202,-5.1202,-5.1202,-5.1202,-5.1202,-5.1202,-5.1202,-5.1202,-5.1202,-5.1202,-5.1202,-5.1202,-5.1202,-5.1202,-5.1202,-5.1202,-5.1202,-5.1202,-5.1202,-5.1202,-5.1202,-5.1202,-5.1202,-5.1202,-5.1202,-5.1202,-5.1202,-5.1202,-5.1202,-5.1202,-5.1202,-5.1202,-5.1202,-5.1178,-5.1153,-5.1108,-5.1067,-5.099,-5.0941,-5.0906,-5.0906,-5.0906,-5.0906,-5.0906,-5.0906,-5.0906,-5.0906,-5.0906,-5.0906,-5.0906,-5.0906,-5.0906,-5.0906,-5.0906,-5.0906,-5.0906,-5.0906,-5.0906,-5.0906,-5.0906,-5.0906,-5.0906,-5.0906,-5.0906,-5.089,-5.0825,-5.0736,-5.0427,-5.014,-4.9903,-4.9655,-4.9544,-4.9421,-4.9051,-4.8651,-4.7886,-4.708,-4.6197,-4.5305,-4.4599,-4.4153,-4.4005,-4.4005,-4.4005,-4.4005,-4.4005,-4.4005,-4.4005,-4.4005,-4.4005,-4.4005,-4.4005,-4.4005,-4.4005,-4.4005,-4.4005,-4.4005,-4.4005,-4.4005,-4.4005,-4.4005,-4.4005,-4.4005,-4.4005,-4.4005,-4.4005,-4.4005,-4.4005,-5.1202,-5.1202,-5.1202,-5.1202,-5.1202,-5.1202,-5.1202,-5.1202,-5.1202,-5.1202,-5.1202,-5.1202,-5.1202,-5.1202,-5.1202,-5.1202,-5.1202,-5.1202,-5.1202,-5.1202,-5.1202,-5.1202,-5.1202,-5.1202,-5.1202,-5.1202,-5.1202,-5.1202,-5.1202,-5.1202,-5.1202,-5.1202,-5.1202,-5.1202,-5.1202,-5.1202,-5.1202,-5.1202,-5.1202,-5.1202,-5.119,-5.1146,-5.1089,-5.1101,-5.1039,-5.0956,-5.0906,-5.0906,-5.0906,-5.0906,-5.0906,-5.0906,-5.0906,-5.0906,-5.0906,-5.0906,-5.0906,-5.0906,-5.0906,-5.0906,-5.0906,-5.0906,-5.0906,-5.0906,-5.0906,-5.0906,-5.0906,-5.0906,-5.0906,-5.0906,-5.0906,-5.0906,-5.0858,-5.0754,-5.0548,-5.0278,-5.0062,-4.9778,-4.9502,-4.9409,-4.922,-4.8805,-4.8404,-4.756,-4.668,-4.5658,-4.4896,-4.4376,-4.4023,-4.4023,-4.4005,-4.4005,-4.4005,-4.4005,-4.4005,-4.4005,-4.4005,-4.4005,-4.4005,-4.4005,-4.4005,-4.4005,-4.4005,-4.4005,-4.4005,-4.4005,-4.4005,-4.4023,-4.4042,-4.4005,-4.4005,-4.4005,-4.4023,-4.4098,-4.4005,-5.1202,-5.1202,-5.1202,-5.1202,-5.1202,-5.1202,-5.1202,-5.1202,-5.1202,-5.1202,-5.1202,-5.1202,-5.1202,-5.1202,-5.1202,-5.1202,-5.1202,-5.1202,-5.1202,-5.1202,-5.1202,-5.1202,-5.1202,-5.1202,-5.1202,-5.1202,-5.1202,-5.1202,-5.1202,-5.1202,-5.1202,-5.1202,-5.1202,-5.1202,-5.1202,-5.1202,-5.1202,-5.1202,-5.1202,-5.1202,-5.119,-5.1134,-5.1081,-5.1053,-5.1005,-5.0941,-5.0906,-5.0906,-5.0906,-5.0906,-5.0906,-5.0906,-5.0906,-5.0906,-5.0906,-5.0906,-5.0906,-5.0906,-5.0906,-5.0906,-5.0906,-5.0906,-5.0906,-5.0906,-5.0906,-5.0906,-5.0906,-5.0906,-5.0906,-5.0906,-5.0906,-5.0906,-5.089,-5.0789,-5.0625,-5.0406,-5.0183,-4.9841,-4.9502,-4.9377,-4.9295,-4.8992,-4.8628,-4.7984,-4.714,-4.6308,-4.5528,-4.4896,-4.4283,-4.4079,-4.4023,-4.4005,-4.4005,-4.4005,-4.4005,-4.4005,-4.4005,-4.4005,-4.4005,-4.4005,-4.4023,-4.4191,-4.4302,-4.4098,-4.4005,-4.4321,-4.4432,-4.4098,-4.4079,-4.4321,-4.4413,-4.4581,-4.4413,-4.4413,-4.4191,-5.1202,-5.1202,-5.1202,-5.1202,-5.1202,-5.1202,-5.1202,-5.1202,-5.1202,-5.1202,-5.1202,-5.1202,-5.1202,-5.1202,-5.1202,-5.1202,-5.1202,-5.1202,-5.1202,-5.1202,-5.1202,-5.1202,-5.1202,-5.1202,-5.1202,-5.1202,-5.1202,-5.1202,-5.1202,-5.1202,-5.1202,-5.1202,-5.1202,-5.1222,-5.1222,-5.1202,-5.1202,-5.1202,-5.1202,-5.119,-5.1159,-5.1108,-5.1067,-5.1039,-5.0971,-5.0906,-5.0906,-5.0906,-5.0906,-5.0906,-5.0906,-5.0906,-5.0906,-5.0906,-5.0906,-5.0906,-5.0906,-5.0906,-5.0906,-5.0906,-5.0906,-5.0906,-5.0906,-5.0906,-5.0906,-5.0906,-5.0906,-5.0906,-5.0906,-5.0906,-5.0906,-5.0906,-5.0906,-5.0822,-5.0528,-5.0206,-4.9974,-4.9663,-4.949,-4.9459,-4.9345,-4.9174,-4.8721,-4.8137,-4.74,-4.6977,-4.6215,-4.5379,-4.4766,-4.4209,-4.4135,-4.4005,-4.4005,-4.4005,-4.4005,-4.4005,-4.4005,-4.4005,-4.4005,-4.4042,-4.4098,-4.4451,-4.4599,-4.4636,-4.4841,-4.5249,-4.5212,-4.4878,-4.5045,-4.5454,-4.5398,-4.5287,-4.5045,-4.4915,-4.4989,-5.1202,-5.1202,-5.1202,-5.1202,-5.1202,-5.1202,-5.1202,-5.1202,-5.1202,-5.1202,-5.1202,-5.1202,-5.1202,-5.1202,-5.1202,-5.1202,-5.1202,-5.1202,-5.1202,-5.1202,-5.1202,-5.1202,-5.1202,-5.1202,-5.1202,-5.1202,-5.1202,-5.1202,-5.1202,-5.1202,-5.1202,-5.1183,-5.1202,-5.1222,-5.1202,-5.1202,-5.1202,-5.1202,-5.119,-5.1159,-5.1134,-5.1095,-5.1067,-5.1005,-5.0921,-5.0906,-5.0906,-5.0906,-5.0906,-5.0906,-5.0906,-5.0906,-5.0906,-5.0906,-5.0906,-5.0906,-5.0906,-5.0906,-5.0906,-5.0906,-5.0906,-5.0906,-5.0906,-5.0906,-5.0906,-5.0906,-5.0906,-5.0906,-5.0906,-5.0906,-5.0906,-5.0906,-5.0906,-5.0822,-5.0448,-5.013,-4.9833,-4.9582,-4.949,-4.949,-4.9345,-4.923,-4.8833,-4.8215,-4.7828,-4.7441,-4.6847,-4.5992,-4.5249,-4.4748,-4.4432,-4.4191,-4.4005,-4.4005,-4.4005,-4.4005,-4.4005,-4.4005,-4.4023,-4.4061,-4.4302,-4.4952,-4.5398,-4.5528,-4.5769,-4.603,-4.616,-4.5974,-4.6252,-4.6401,-4.6104,-4.5862,-4.5937,-4.5862,-4.6141,-5.1202,-5.1202,-5.1202,-5.1202,-5.1202,-5.1202,-5.1202,-5.1202,-5.1202,-5.1202,-5.1202,-5.1202,-5.1202,-5.1202,-5.1202,-5.1202,-5.1202,-5.1202,-5.1202,-5.1202,-5.1202,-5.1202,-5.1202,-5.1202,-5.1202,-5.1202,-5.1202,-5.1202,-5.1202,-5.1202,-5.1171,-5.1108,-5.1171,-5.1171,-5.1146,-5.1159,-5.119,-5.119,-5.1178,-5.1146,-5.1108,-5.1067,-5.1067,-5.1005,-5.0921,-5.0906,-5.0906,-5.0906,-5.0906,-5.0906,-5.0906,-5.0906,-5.0906,-5.0906,-5.0906,-5.0906,-5.0906,-5.0906,-5.0906,-5.0906,-5.0906,-5.0906,-5.0906,-5.0906,-5.0906,-5.0906,-5.0906,-5.0906,-5.0906,-5.0906,-5.0906,-5.0906,-5.089,-5.0735,-5.0488,-5.0252,-5.0006,-4.9683,-4.9459,-4.9377,-4.9295,-4.9164,-4.9079,-4.8606,-4.8296,-4.7943,-4.7571,-4.6717,-4.5807,-4.5287,-4.4822,-4.4488,-4.4191,-4.4005,-4.4005,-4.4005,-4.4005,-4.4005,-4.4172,-4.4506,-4.5008,-4.5769,-4.6141,-4.6308,-4.6401,-4.6568,-4.668,-4.7014,-4.6828,-4.6865,-4.6568,-4.6401,-4.6587,-4.6791,-4.7033]}]]